Time,TemperatureF,DewpointF,PressureIn,WindDirection,WindDirectionDegrees,WindSpeedMPH,WindSpeedGustMPH,Humidity,HourlyPrecipIn,Conditions,Clouds,dailyrainin,SoftwareType,DateUTC
2013-12-19 00:00:00,49.1,45.7,29.53,WNW,292,23.3,25.5,88,0.00,,,0.00,VWS V14.01,2013-12-19 08:00:00,
2013-12-19 00:01:00,49.1,45.7,29.53,West,270,21.3,23.3,88,0.00,,,0.00,VWS V14.01,2013-12-19 08:01:00,
2013-12-19 00:02:00,49.1,45.7,29.53,West,270,21.3,23.3,88,0.00,,,0.00,VWS V14.01,2013-12-19 08:02:00,
2013-12-19 00:03:00,49.1,45.7,29.53,WNW,292,19.5,23.3,88,0.00,,,0.00,VWS V14.01,2013-12-19 08:03:00,
2013-12-19 00:04:00,49.1,45.7,29.53,West,270,23.0,23.0,88,0.00,,,0.00,VWS V14.01,2013-12-19 08:04:00,
2013-12-19 00:05:00,49.1,45.7,29.53,North,0,22.4,23.0,88,0.00,,,0.00,VWS V14.01,2013-12-19 08:05:00,
2013-12-19 00:06:00,49.1,45.7,29.53,SSW,202,15.2,23.0,88,0.00,,,0.00,VWS V14.01,2013-12-19 08:06:00,
2013-12-19 00:07:00,49.1,45.7,29.53,WNW,292,21.5,23.0,88,0.00,,,0.00,VWS V14.01,2013-12-19 08:07:00,
2013-12-19 00:08:00,49.1,45.4,29.53,WNW,292,17.7,23.0,87,0.00,,,0.00,VWS V14.01,2013-12-19 08:08:00,
2013-12-19 00:09:00,49.3,45.3,29.53,West,270,26.0,26.0,86,0.00,,,0.00,VWS V14.01,2013-12-19 08:09:00,
2013-12-19 00:10:00,49.3,45.3,29.53,WNW,292,17.7,26.0,86,0.00,,,0.00,VWS V14.01,2013-12-19 08:10:00,
2013-12-19 00:11:00,49.3,45.3,29.53,West,270,17.0,26.0,86,0.00,,,0.00,VWS V14.01,2013-12-19 08:11:00,
2013-12-19 00:12:00,49.3,45.3,29.53,WNW,292,17.0,26.0,86,0.00,,,0.00,VWS V14.01,2013-12-19 08:12:00,
2013-12-19 00:13:00,49.3,45.0,29.53,WNW,292,22.4,22.4,85,0.00,,,0.00,VWS V14.01,2013-12-19 08:13:00,
2013-12-19 00:14:00,49.3,45.0,29.53,WSW,248,19.5,22.4,85,0.00,,,0.00,VWS V14.01,2013-12-19 08:14:00,
2013-12-19 00:15:00,49.3,45.3,29.53,NW,315,13.0,22.4,86,0.00,,,0.00,VWS V14.01,2013-12-19 08:15:00,
2013-12-19 00:16:00,49.1,44.8,29.53,WNW,292,22.2,22.4,85,0.00,,,0.00,VWS V14.01,2013-12-19 08:16:00,
2013-12-19 00:17:00,49.1,44.8,29.53,WNW,292,22.2,22.2,85,0.00,,,0.00,VWS V14.01,2013-12-19 08:17:00,
2013-12-19 00:18:00,49.1,44.8,29.53,WNW,292,19.9,22.2,85,0.05,,,0.05,VWS V14.01,2013-12-19 08:18:00,
2013-12-19 00:19:00,49.1,44.8,29.53,WSW,248,24.4,24.4,85,0.05,,,0.05,VWS V14.01,2013-12-19 08:19:00,
2013-12-19 00:20:00,49.1,44.8,29.53,WNW,292,23.5,24.4,85,0.05,,,0.05,VWS V14.01,2013-12-19 08:20:00,
2013-12-19 00:21:00,49.1,45.1,29.53,WNW,292,16.6,24.4,86,0.05,,,0.05,VWS V14.01,2013-12-19 08:21:00,
2013-12-19 00:22:00,49.1,45.1,29.53,WNW,292,13.2,24.4,86,0.05,,,0.05,VWS V14.01,2013-12-19 08:22:00,
2013-12-19 00:23:00,49.1,45.1,29.53,WNW,292,14.5,24.4,86,0.05,,,0.05,VWS V14.01,2013-12-19 08:23:00,
2013-12-19 00:24:00,49.1,44.8,29.53,WNW,292,21.9,21.9,85,0.05,,,0.05,VWS V14.01,2013-12-19 08:24:00,
2013-12-19 00:25:00,49.1,44.8,29.53,NW,315,22.4,22.4,85,0.05,,,0.05,VWS V14.01,2013-12-19 08:25:00,
2013-12-19 00:26:00,49.1,44.8,29.53,NW,315,22.4,22.4,85,0.05,,,0.05,VWS V14.01,2013-12-19 08:26:00,
2013-12-19 00:27:00,49.1,44.8,29.53,NW,315,22.4,22.4,85,0.05,,,0.05,VWS V14.01,2013-12-19 08:27:00,
2013-12-19 00:28:00,49.1,44.8,29.53,WNW,292,15.9,22.4,85,0.05,,,0.05,VWS V14.01,2013-12-19 08:28:00,
2013-12-19 00:29:00,48.9,44.6,29.53,WNW,292,11.0,22.4,85,0.05,,,0.05,VWS V14.01,2013-12-19 08:29:00,
2013-12-19 00:30:00,48.9,44.6,29.53,NW,315,23.0,23.0,85,0.05,,,0.05,VWS V14.01,2013-12-19 08:30:00,
2013-12-19 00:31:00,48.9,44.6,29.53,NW,315,14.8,23.0,85,0.05,,,0.05,VWS V14.01,2013-12-19 08:31:00,
2013-12-19 00:32:00,48.9,44.6,29.53,NW,315,23.5,23.5,85,0.05,,,0.05,VWS V14.01,2013-12-19 08:32:00,
2013-12-19 00:33:00,48.9,44.6,29.53,WNW,292,13.0,23.5,85,0.05,,,0.05,VWS V14.01,2013-12-19 08:33:00,
2013-12-19 00:34:00,48.9,44.6,29.53,WSW,248,12.8,23.5,85,0.05,,,0.05,VWS V14.01,2013-12-19 08:34:00,
2013-12-19 00:35:00,48.9,44.6,29.53,WSW,248,10.5,23.5,85,0.05,,,0.05,VWS V14.01,2013-12-19 08:35:00,
2013-12-19 00:36:00,48.9,44.6,29.53,West,270,23.7,23.7,85,0.09,,,0.09,VWS V14.01,2013-12-19 08:36:00,
2013-12-19 00:37:00,48.9,44.6,29.53,WNW,292,29.1,29.1,85,0.09,,,0.09,VWS V14.01,2013-12-19 08:37:00,
2013-12-19 00:38:00,48.9,44.6,29.53,NW,315,33.3,33.3,85,0.09,,,0.09,VWS V14.01,2013-12-19 08:38:00,
2013-12-19 00:39:00,48.9,44.6,29.53,WSW,248,17.7,33.3,85,0.09,,,0.09,VWS V14.01,2013-12-19 08:39:00,
2013-12-19 00:40:00,48.9,44.6,29.53,WSW,248,23.3,33.3,85,0.09,,,0.09,VWS V14.01,2013-12-19 08:40:00,
2013-12-19 00:41:00,48.7,44.4,29.53,NNW,338,18.1,33.3,85,0.09,,,0.09,VWS V14.01,2013-12-19 08:41:00,
2013-12-19 00:42:00,48.7,44.4,29.50,WNW,292,24.4,24.4,85,0.09,,,0.09,VWS V14.01,2013-12-19 08:42:00,
2013-12-19 00:43:00,48.7,44.4,29.50,WNW,292,24.4,24.4,85,0.09,,,0.09,VWS V14.01,2013-12-19 08:43:00,
2013-12-19 00:44:00,48.7,44.4,29.50,WNW,292,17.5,24.4,85,0.09,,,0.09,VWS V14.01,2013-12-19 08:44:00,
2013-12-19 00:45:00,48.7,44.4,29.50,WNW,292,18.6,24.4,85,0.09,,,0.09,VWS V14.01,2013-12-19 08:45:00,
2013-12-19 00:46:00,48.7,44.8,29.50,WNW,292,14.5,26.4,86,0.09,,,0.09,VWS V14.01,2013-12-19 08:46:00,
2013-12-19 00:47:00,48.7,44.8,29.50,WNW,292,20.6,26.4,86,0.09,,,0.09,VWS V14.01,2013-12-19 08:47:00,
2013-12-19 00:48:00,48.7,44.8,29.50,WNW,292,23.0,26.4,86,0.09,,,0.09,VWS V14.01,2013-12-19 08:48:00,
2013-12-19 00:49:00,48.7,44.8,29.50,NW,315,19.9,26.4,86,0.13,,,0.13,VWS V14.01,2013-12-19 08:49:00,
2013-12-19 00:50:00,48.7,44.4,29.50,NW,315,22.8,23.0,85,0.13,,,0.13,VWS V14.01,2013-12-19 08:50:00,
2013-12-19 00:51:00,48.7,44.4,29.50,WNW,292,28.4,28.4,85,0.13,,,0.13,VWS V14.01,2013-12-19 08:51:00,
2013-12-19 00:52:00,48.7,44.4,29.50,WNW,292,18.8,28.4,85,0.13,,,0.13,VWS V14.01,2013-12-19 08:52:00,
2013-12-19 00:53:00,48.7,44.4,29.50,NNW,338,25.7,28.4,85,0.13,,,0.13,VWS V14.01,2013-12-19 08:53:00,
2013-12-19 00:54:00,48.7,44.4,29.50,West,270,23.0,28.4,85,0.13,,,0.13,VWS V14.01,2013-12-19 08:54:00,
2013-12-19 00:55:00,48.6,44.3,29.50,WNW,292,21.0,25.7,85,0.17,,,0.17,VWS V14.01,2013-12-19 08:55:00,
2013-12-19 00:56:00,48.6,44.3,29.50,WNW,292,25.1,25.7,85,0.17,,,0.17,VWS V14.01,2013-12-19 08:56:00,
2013-12-19 00:57:00,48.6,44.6,29.50,NNW,338,13.6,25.1,86,0.17,,,0.17,VWS V14.01,2013-12-19 08:57:00,
2013-12-19 00:58:00,48.6,44.6,29.50,WNW,292,25.3,25.3,86,0.17,,,0.17,VWS V14.01,2013-12-19 08:58:00,
2013-12-19 00:59:00,48.6,44.3,29.50,West,270,16.3,25.3,85,0.17,,,0.17,VWS V14.01,2013-12-19 08:59:00,
2013-12-19 01:00:00,48.6,44.3,29.50,WSW,248,10.3,25.3,85,0.17,,,0.17,VWS V14.01,2013-12-19 09:00:00,
2013-12-19 01:01:00,48.6,44.6,29.50,WNW,292,17.0,25.3,86,0.17,,,0.17,VWS V14.01,2013-12-19 09:01:00,
2013-12-19 01:02:00,48.6,44.3,29.50,WNW,292,28.6,28.6,85,0.17,,,0.17,VWS V14.01,2013-12-19 09:02:00,
2013-12-19 01:03:00,48.6,44.3,29.50,WNW,292,17.0,28.6,85,0.17,,,0.17,VWS V14.01,2013-12-19 09:03:00,
2013-12-19 01:04:00,48.6,44.3,29.50,NNW,338,18.6,28.6,85,0.26,,,0.26,VWS V14.01,2013-12-19 09:04:00,
2013-12-19 01:05:00,48.6,44.3,29.50,WNW,292,22.8,28.6,85,0.26,,,0.26,VWS V14.01,2013-12-19 09:05:00,
2013-12-19 01:06:00,48.6,44.3,29.50,WNW,292,17.5,28.6,85,0.26,,,0.26,VWS V14.01,2013-12-19 09:06:00,
2013-12-19 01:07:00,48.6,44.3,29.50,WNW,292,23.9,23.9,85,0.26,,,0.26,VWS V14.01,2013-12-19 09:07:00,
2013-12-19 01:08:00,48.6,44.3,29.50,WNW,292,12.8,23.9,85,0.26,,,0.26,VWS V14.01,2013-12-19 09:08:00,
2013-12-19 01:09:00,48.6,44.3,29.50,West,270,22.8,23.9,85,0.26,,,0.26,VWS V14.01,2013-12-19 09:09:00,
2013-12-19 01:10:00,48.6,44.3,29.50,WNW,292,24.6,24.6,85,0.26,,,0.26,VWS V14.01,2013-12-19 09:10:00,
2013-12-19 01:11:00,48.6,44.3,29.50,WNW,292,25.1,25.1,85,0.26,,,0.26,VWS V14.01,2013-12-19 09:11:00,
2013-12-19 01:12:00,48.6,44.3,29.50,WNW,292,25.1,25.1,85,0.26,,,0.26,VWS V14.01,2013-12-19 09:12:00,
2013-12-19 01:13:00,48.6,44.3,29.50,NNW,338,22.8,25.1,85,0.26,,,0.26,VWS V14.01,2013-12-19 09:13:00,
2013-12-19 01:14:00,48.6,44.3,29.50,NNW,338,12.3,25.1,85,0.26,,,0.26,VWS V14.01,2013-12-19 09:14:00,
2013-12-19 01:15:00,48.4,44.1,29.50,NNW,338,25.5,25.5,85,0.26,,,0.26,VWS V14.01,2013-12-19 09:15:00,
2013-12-19 01:16:00,48.4,44.1,29.50,NW,315,16.3,25.5,85,0.26,,,0.26,VWS V14.01,2013-12-19 09:16:00,
2013-12-19 01:17:00,48.4,44.1,29.50,WNW,292,28.6,28.6,85,0.26,,,0.26,VWS V14.01,2013-12-19 09:17:00,
2013-12-19 01:18:00,48.6,44.0,29.50,WNW,292,23.7,28.6,84,0.26,,,0.26,VWS V14.01,2013-12-19 09:18:00,
2013-12-19 01:19:00,48.6,44.0,29.50,NW,315,20.8,28.6,84,0.21,,,0.26,VWS V14.01,2013-12-19 09:19:00,
2013-12-19 01:20:00,48.4,44.1,29.50,WNW,292,14.5,28.6,85,0.21,,,0.26,VWS V14.01,2013-12-19 09:20:00,
2013-12-19 01:21:00,48.4,44.1,29.50,NW,315,13.0,23.7,85,0.21,,,0.26,VWS V14.01,2013-12-19 09:21:00,
2013-12-19 01:22:00,48.4,44.1,29.50,SW,225,17.0,20.8,85,0.21,,,0.26,VWS V14.01,2013-12-19 09:22:00,
2013-12-19 01:23:00,48.4,44.1,29.50,WNW,292,22.6,22.6,85,0.21,,,0.26,VWS V14.01,2013-12-19 09:23:00,
2013-12-19 01:24:00,48.4,44.1,29.50,WNW,292,22.6,22.6,85,0.21,,,0.26,VWS V14.01,2013-12-19 09:24:00,
2013-12-19 01:25:00,48.4,44.1,29.50,NW,315,23.7,23.7,85,0.21,,,0.26,VWS V14.01,2013-12-19 09:25:00,
2013-12-19 01:26:00,48.4,44.1,29.50,NNW,338,14.1,23.7,85,0.21,,,0.26,VWS V14.01,2013-12-19 09:26:00,
2013-12-19 01:27:00,48.4,44.1,29.50,NNW,338,14.1,23.7,85,0.21,,,0.26,VWS V14.01,2013-12-19 09:27:00,
2013-12-19 01:28:00,48.4,44.1,29.50,WNW,292,18.6,23.7,85,0.21,,,0.26,VWS V14.01,2013-12-19 09:28:00,
2013-12-19 01:29:00,48.4,44.1,29.50,NW,315,18.8,23.7,85,0.21,,,0.26,VWS V14.01,2013-12-19 09:29:00,
2013-12-19 01:30:00,48.4,44.1,29.50,NNW,338,13.2,19.0,85,0.21,,,0.26,VWS V14.01,2013-12-19 09:30:00,
2013-12-19 01:31:00,48.4,44.1,29.50,NW,315,13.2,19.0,85,0.21,,,0.26,VWS V14.01,2013-12-19 09:31:00,
2013-12-19 01:32:00,48.4,44.1,29.50,NW,315,13.2,19.0,85,0.21,,,0.26,VWS V14.01,2013-12-19 09:32:00,
2013-12-19 01:33:00,48.4,44.1,29.50,NW,315,13.2,19.0,85,0.21,,,0.26,VWS V14.01,2013-12-19 09:33:00,
2013-12-19 01:34:00,48.4,43.8,29.50,NNW,338,8.1,22.6,84,0.21,,,0.26,VWS V14.01,2013-12-19 09:34:00,
2013-12-19 01:35:00,48.4,43.8,29.50,NNW,338,15.2,22.6,84,0.21,,,0.26,VWS V14.01,2013-12-19 09:35:00,
2013-12-19 01:36:00,48.4,43.8,29.50,NNW,338,15.2,22.6,84,0.21,,,0.26,VWS V14.01,2013-12-19 09:36:00,
2013-12-19 01:37:00,48.4,43.8,29.50,NNW,338,19.2,22.6,84,0.21,,,0.26,VWS V14.01,2013-12-19 09:37:00,
2013-12-19 01:38:00,48.4,43.5,29.50,WNW,292,10.7,19.2,83,0.17,,,0.26,VWS V14.01,2013-12-19 09:38:00,
2013-12-19 01:39:00,48.4,43.5,29.50,NW,315,13.9,19.2,83,0.17,,,0.26,VWS V14.01,2013-12-19 09:39:00,
2013-12-19 01:40:00,48.4,43.5,29.50,WNW,292,17.2,19.2,83,0.17,,,0.26,VWS V14.01,2013-12-19 09:40:00,
2013-12-19 01:41:00,48.4,43.2,29.50,WNW,292,22.4,22.4,82,0.17,,,0.26,VWS V14.01,2013-12-19 09:41:00,
2013-12-19 01:42:00,48.4,43.2,29.53,NNW,338,13.4,22.4,82,0.17,,,0.26,VWS V14.01,2013-12-19 09:42:00,
2013-12-19 01:43:00,48.4,42.8,29.53,NW,315,10.7,22.4,81,0.17,,,0.26,VWS V14.01,2013-12-19 09:43:00,
2013-12-19 01:44:00,48.4,42.8,29.53,NW,315,10.7,22.4,81,0.17,,,0.26,VWS V14.01,2013-12-19 09:44:00,
2013-12-19 01:45:00,48.4,43.2,29.53,WNW,292,10.7,22.4,82,0.17,,,0.26,VWS V14.01,2013-12-19 09:45:00,
2013-12-19 01:46:00,48.4,43.2,29.53,NW,315,11.0,11.0,82,0.17,,,0.26,VWS V14.01,2013-12-19 09:46:00,
2013-12-19 01:47:00,48.4,43.2,29.53,NW,315,11.0,11.0,82,0.17,,,0.26,VWS V14.01,2013-12-19 09:47:00,
2013-12-19 01:48:00,48.4,42.8,29.53,NNW,338,17.2,17.2,81,0.17,,,0.26,VWS V14.01,2013-12-19 09:48:00,
2013-12-19 01:49:00,48.4,42.8,29.53,NNW,338,10.1,17.2,81,0.17,,,0.26,VWS V14.01,2013-12-19 09:49:00,
2013-12-19 01:50:00,48.4,42.8,29.53,NW,315,10.5,17.2,81,0.13,,,0.26,VWS V14.01,2013-12-19 09:50:00,
2013-12-19 01:51:00,48.4,42.8,29.53,NNW,338,9.8,17.2,81,0.13,,,0.26,VWS V14.01,2013-12-19 09:51:00,
2013-12-19 01:52:00,48.2,43.0,29.53,WNW,292,5.8,10.5,82,0.13,,,0.26,VWS V14.01,2013-12-19 09:52:00,
2013-12-19 01:53:00,48.2,43.0,29.53,NNW,338,11.2,11.2,82,0.13,,,0.26,VWS V14.01,2013-12-19 09:53:00,
2013-12-19 01:54:00,48.2,43.0,29.53,WNW,292,10.1,11.2,82,0.13,,,0.26,VWS V14.01,2013-12-19 09:54:00,
2013-12-19 01:55:00,48.2,43.0,29.53,NW,315,11.2,11.2,82,0.13,,,0.26,VWS V14.01,2013-12-19 09:55:00,
2013-12-19 01:56:00,48.2,43.0,29.53,NNW,338,10.3,12.3,82,0.09,,,0.26,VWS V14.01,2013-12-19 09:56:00,
2013-12-19 01:57:00,48.0,42.8,29.53,WNW,292,5.8,12.3,82,0.09,,,0.26,VWS V14.01,2013-12-19 09:57:00,
2013-12-19 01:58:00,48.0,42.8,29.53,WNW,292,15.2,15.2,82,0.09,,,0.26,VWS V14.01,2013-12-19 09:58:00,
2013-12-19 01:59:00,48.2,42.3,29.53,NW,315,11.0,15.2,80,0.09,,,0.26,VWS V14.01,2013-12-19 09:59:00,
2013-12-19 02:00:00,48.2,42.3,29.53,NNW,338,12.8,15.2,80,0.09,,,0.26,VWS V14.01,2013-12-19 10:00:00,
2013-12-19 02:01:00,48.2,42.3,29.53,WNW,292,4.3,15.2,80,0.09,,,0.26,VWS V14.01,2013-12-19 10:01:00,
2013-12-19 02:03:00,48.2,42.3,29.53,WNW,292,4.3,15.2,80,0.09,,,0.26,VWS V14.01,2013-12-19 10:03:00,
2013-12-19 02:04:00,48.0,42.5,29.53,NW,315,7.8,12.8,81,0.09,,,0.26,VWS V14.01,2013-12-19 10:04:00,
2013-12-19 02:05:00,48.0,42.5,29.53,NNW,338,9.0,12.8,81,0.00,,,0.26,VWS V14.01,2013-12-19 10:05:00,
2013-12-19 02:06:00,48.0,42.2,29.53,NNW,338,15.4,15.4,80,0.00,,,0.26,VWS V14.01,2013-12-19 10:06:00,
2013-12-19 02:07:00,48.0,42.2,29.53,NW,315,22.2,22.2,80,0.00,,,0.26,VWS V14.01,2013-12-19 10:07:00,
2013-12-19 02:08:00,48.2,41.3,29.53,NNW,338,17.7,22.2,77,0.00,,,0.26,VWS V14.01,2013-12-19 10:08:00,
2013-12-19 02:09:00,48.2,41.3,29.53,NW,315,22.2,22.2,77,0.00,,,0.26,VWS V14.01,2013-12-19 10:09:00,
2013-12-19 02:10:00,48.2,41.3,29.53,WNW,292,14.8,22.2,77,0.00,,,0.26,VWS V14.01,2013-12-19 10:10:00,
2013-12-19 02:11:00,48.2,41.0,29.53,NW,315,13.2,22.2,76,0.00,,,0.26,VWS V14.01,2013-12-19 10:11:00,
2013-12-19 02:12:00,48.2,41.0,29.53,NW,315,13.2,22.2,76,0.00,,,0.26,VWS V14.01,2013-12-19 10:12:00,
2013-12-19 02:13:00,48.2,41.0,29.53,WNW,292,17.5,22.2,76,0.00,,,0.26,VWS V14.01,2013-12-19 10:13:00,
2013-12-19 02:14:00,48.2,41.0,29.53,NNW,338,17.5,17.5,76,0.00,,,0.26,VWS V14.01,2013-12-19 10:14:00,
2013-12-19 02:15:00,48.2,41.0,29.53,NNW,338,17.5,17.5,76,0.00,,,0.26,VWS V14.01,2013-12-19 10:15:00,
2013-12-19 02:16:00,48.2,40.7,29.53,NNW,338,16.3,17.5,75,0.00,,,0.26,VWS V14.01,2013-12-19 10:16:00,
2013-12-19 02:17:00,48.2,40.7,29.53,WNW,292,9.6,17.5,75,0.00,,,0.26,VWS V14.01,2013-12-19 10:17:00,
2013-12-19 02:18:00,48.0,40.8,29.53,NNW,338,10.7,17.5,76,0.00,,,0.26,VWS V14.01,2013-12-19 10:18:00,
2013-12-19 02:19:00,48.0,40.8,29.53,NW,315,17.2,17.2,76,0.00,,,0.26,VWS V14.01,2013-12-19 10:19:00,
2013-12-19 02:20:00,48.0,40.8,29.53,WNW,292,12.8,17.2,76,0.00,,,0.26,VWS V14.01,2013-12-19 10:20:00,
2013-12-19 02:21:00,48.0,40.8,29.53,NW,315,19.9,19.9,76,0.00,,,0.26,VWS V14.01,2013-12-19 10:21:00,
2013-12-19 02:22:00,48.0,40.8,29.53,NW,315,19.9,19.9,76,0.00,,,0.26,VWS V14.01,2013-12-19 10:22:00,
2013-12-19 02:23:00,48.0,40.8,29.53,NNW,338,10.1,19.9,76,0.00,,,0.26,VWS V14.01,2013-12-19 10:23:00,
2013-12-19 02:24:00,48.0,40.8,29.53,SW,225,8.5,19.9,76,0.00,,,0.26,VWS V14.01,2013-12-19 10:24:00,
2013-12-19 02:25:00,48.0,40.8,29.53,SW,225,8.5,19.9,76,0.00,,,0.26,VWS V14.01,2013-12-19 10:25:00,
2013-12-19 02:26:00,48.0,40.8,29.53,NW,315,12.3,12.3,76,0.00,,,0.26,VWS V14.01,2013-12-19 10:26:00,
2013-12-19 02:27:00,48.0,40.8,29.50,WNW,292,8.5,12.3,76,0.00,,,0.26,VWS V14.01,2013-12-19 10:27:00,
2013-12-19 02:28:00,48.0,40.8,29.50,NW,315,5.8,12.3,76,0.00,,,0.26,VWS V14.01,2013-12-19 10:28:00,
2013-12-19 02:29:00,47.8,40.7,29.50,West,270,9.4,12.3,76,0.00,,,0.26,VWS V14.01,2013-12-19 10:29:00,
2013-12-19 02:30:00,47.8,40.7,29.50,NW,315,11.9,12.3,76,0.00,,,0.26,VWS V14.01,2013-12-19 10:30:00,
2013-12-19 02:31:00,48.0,40.8,29.50,WNW,292,10.5,11.9,76,0.00,,,0.26,VWS V14.01,2013-12-19 10:31:00,
2013-12-19 02:32:00,48.0,40.8,29.50,WNW,292,10.1,11.9,76,0.00,,,0.26,VWS V14.01,2013-12-19 10:32:00,
2013-12-19 02:33:00,47.8,40.7,29.50,NNW,338,7.8,11.9,76,0.00,,,0.26,VWS V14.01,2013-12-19 10:33:00,
2013-12-19 02:34:00,47.8,40.7,29.50,WNW,292,7.4,10.5,76,0.00,,,0.26,VWS V14.01,2013-12-19 10:34:00,
2013-12-19 02:35:00,47.8,40.7,29.50,NNW,338,13.2,13.2,76,0.00,,,0.26,VWS V14.01,2013-12-19 10:35:00,
2013-12-19 02:36:00,47.8,40.7,29.50,WNW,292,10.3,13.2,76,0.00,,,0.26,VWS V14.01,2013-12-19 10:36:00,
2013-12-19 02:37:00,47.8,40.7,29.50,NNW,338,10.5,13.2,76,0.00,,,0.26,VWS V14.01,2013-12-19 10:37:00,
2013-12-19 02:38:00,47.8,40.7,29.50,WNW,292,11.2,13.2,76,0.00,,,0.26,VWS V14.01,2013-12-19 10:38:00,
2013-12-19 02:39:00,47.8,40.7,29.50,WNW,292,11.2,11.2,76,0.00,,,0.26,VWS V14.01,2013-12-19 10:39:00,
2013-12-19 02:40:00,47.8,40.7,29.50,NNW,338,14.8,14.8,76,0.00,,,0.26,VWS V14.01,2013-12-19 10:40:00,
2013-12-19 02:41:00,47.8,40.7,29.50,NW,315,7.6,14.8,76,0.00,,,0.26,VWS V14.01,2013-12-19 10:41:00,
2013-12-19 02:42:00,47.8,40.7,29.50,NNW,338,6.5,14.8,76,0.00,,,0.26,VWS V14.01,2013-12-19 10:42:00,
2013-12-19 02:43:00,47.8,40.7,29.50,NNW,338,8.1,14.8,76,0.00,,,0.26,VWS V14.01,2013-12-19 10:43:00,
2013-12-19 02:44:00,47.8,40.7,29.50,WNW,292,9.8,14.8,76,0.00,,,0.26,VWS V14.01,2013-12-19 10:44:00,
2013-12-19 02:45:00,47.7,40.5,29.50,NW,315,12.5,12.5,76,0.00,,,0.26,VWS V14.01,2013-12-19 10:45:00,
2013-12-19 02:46:00,47.8,40.7,29.50,NW,315,11.2,12.5,76,0.00,,,0.26,VWS V14.01,2013-12-19 10:46:00,
2013-12-19 02:47:00,47.8,40.7,29.50,WNW,292,5.4,12.5,76,0.00,,,0.26,VWS V14.01,2013-12-19 10:47:00,
2013-12-19 02:48:00,47.8,40.3,29.50,NW,315,7.8,12.5,75,0.00,,,0.26,VWS V14.01,2013-12-19 10:48:00,
2013-12-19 02:49:00,47.8,40.3,29.50,NNW,338,10.1,11.2,75,0.00,,,0.26,VWS V14.01,2013-12-19 10:49:00,
2013-12-19 02:50:00,47.8,40.3,29.50,WNW,292,9.4,10.1,75,0.00,,,0.26,VWS V14.01,2013-12-19 10:50:00,
2013-12-19 02:51:00,47.8,40.3,29.50,WNW,292,10.3,10.3,75,0.00,,,0.26,VWS V14.01,2013-12-19 10:51:00,
2013-12-19 02:52:00,47.7,40.1,29.50,NNW,338,6.5,10.3,75,0.00,,,0.26,VWS V14.01,2013-12-19 10:52:00,
2013-12-19 02:53:00,47.7,40.1,29.50,WSW,248,11.9,11.9,75,0.00,,,0.26,VWS V14.01,2013-12-19 10:53:00,
2013-12-19 02:54:00,47.7,40.1,29.50,WNW,292,9.6,11.9,75,0.00,,,0.26,VWS V14.01,2013-12-19 10:54:00,
2013-12-19 02:55:00,47.7,40.1,29.50,WNW,292,9.6,11.9,75,0.00,,,0.26,VWS V14.01,2013-12-19 10:55:00,
2013-12-19 02:56:00,47.7,40.1,29.50,WNW,292,9.2,12.1,75,0.00,,,0.26,VWS V14.01,2013-12-19 10:56:00,
2013-12-19 02:57:00,47.8,40.3,29.50,NW,315,12.3,12.3,75,0.00,,,0.26,VWS V14.01,2013-12-19 10:57:00,
2013-12-19 02:58:00,47.8,40.3,29.50,NNW,338,12.5,12.5,75,0.00,,,0.26,VWS V14.01,2013-12-19 10:58:00,
2013-12-19 02:59:00,47.8,40.3,29.50,NNW,338,10.3,12.5,75,0.00,,,0.26,VWS V14.01,2013-12-19 10:59:00,
2013-12-19 03:00:00,47.8,40.3,29.50,NW,315,10.1,12.5,75,0.00,,,0.26,VWS V14.01,2013-12-19 11:00:00,
2013-12-19 03:01:00,47.7,39.8,29.50,NW,315,10.1,12.5,74,0.00,,,0.26,VWS V14.01,2013-12-19 11:01:00,
2013-12-19 03:02:00,47.7,39.8,29.50,NW,315,5.4,12.5,74,0.00,,,0.26,VWS V14.01,2013-12-19 11:02:00,
2013-12-19 03:03:00,47.7,40.1,29.50,West,270,10.1,10.3,75,0.00,,,0.26,VWS V14.01,2013-12-19 11:03:00,
2013-12-19 03:04:00,47.7,40.1,29.50,WNW,292,12.3,12.3,75,0.00,,,0.26,VWS V14.01,2013-12-19 11:04:00,
2013-12-19 03:05:00,47.7,40.1,29.50,WNW,292,8.1,12.3,75,0.00,,,0.26,VWS V14.01,2013-12-19 11:05:00,
2013-12-19 03:06:00,47.7,40.1,29.50,WSW,248,11.9,15.4,75,0.00,,,0.26,VWS V14.01,2013-12-19 11:06:00,
2013-12-19 03:07:00,47.7,40.1,29.50,WNW,292,7.4,15.4,75,0.00,,,0.26,VWS V14.01,2013-12-19 11:07:00,
2013-12-19 03:08:00,47.7,40.1,29.50,WNW,292,12.1,15.4,75,0.00,,,0.26,VWS V14.01,2013-12-19 11:08:00,
2013-12-19 03:09:00,47.7,40.1,29.50,WNW,292,10.7,15.4,75,0.00,,,0.26,VWS V14.01,2013-12-19 11:09:00,
2013-12-19 03:10:00,47.7,40.1,29.50,NW,315,5.6,12.1,75,0.00,,,0.26,VWS V14.01,2013-12-19 11:10:00,
2013-12-19 03:11:00,47.7,40.1,29.50,NW,315,5.6,12.1,75,0.00,,,0.26,VWS V14.01,2013-12-19 11:11:00,
2013-12-19 03:12:00,47.7,40.1,29.50,NW,315,7.8,12.1,75,0.00,,,0.26,VWS V14.01,2013-12-19 11:12:00,
2013-12-19 03:13:00,47.5,40.0,29.50,WNW,292,10.3,10.3,75,0.00,,,0.26,VWS V14.01,2013-12-19 11:13:00,
2013-12-19 03:14:00,47.5,40.0,29.50,WSW,248,6.3,10.3,75,0.00,,,0.26,VWS V14.01,2013-12-19 11:14:00,
2013-12-19 03:15:00,47.5,40.0,29.50,WNW,292,10.3,10.3,75,0.00,,,0.26,VWS V14.01,2013-12-19 11:15:00,
2013-12-19 03:16:00,47.5,40.0,29.50,WNW,292,5.6,10.3,75,0.00,,,0.26,VWS V14.01,2013-12-19 11:16:00,
2013-12-19 03:17:00,47.5,40.0,29.50,WSW,248,11.4,11.4,75,0.00,,,0.26,VWS V14.01,2013-12-19 11:17:00,
2013-12-19 03:18:00,47.5,40.0,29.50,WNW,292,13.2,13.2,75,0.00,,,0.26,VWS V14.01,2013-12-19 11:18:00,
2013-12-19 03:19:00,47.5,40.0,29.50,WNW,292,7.8,13.2,75,0.00,,,0.26,VWS V14.01,2013-12-19 11:19:00,
2013-12-19 03:20:00,47.5,40.0,29.50,NW,315,9.8,13.2,75,0.00,,,0.26,VWS V14.01,2013-12-19 11:20:00,
2013-12-19 03:21:00,47.5,40.0,29.50,WNW,292,8.1,13.2,75,0.00,,,0.26,VWS V14.01,2013-12-19 11:21:00,
2013-12-19 03:22:00,47.5,40.0,29.50,WNW,292,5.6,9.8,75,0.00,,,0.26,VWS V14.01,2013-12-19 11:22:00,
2013-12-19 03:23:00,47.5,40.0,29.50,WNW,292,11.0,11.0,75,0.00,,,0.26,VWS V14.01,2013-12-19 11:23:00,
2013-12-19 03:24:00,47.5,40.0,29.50,WNW,292,8.7,11.0,75,0.00,,,0.26,VWS V14.01,2013-12-19 11:24:00,
2013-12-19 03:25:00,47.5,40.0,29.50,NW,315,8.1,11.0,75,0.00,,,0.26,VWS V14.01,2013-12-19 11:25:00,
2013-12-19 03:26:00,47.5,40.0,29.50,WNW,292,4.9,11.0,75,0.00,,,0.26,VWS V14.01,2013-12-19 11:26:00,
2013-12-19 03:27:00,47.3,39.8,29.50,NNW,338,9.6,9.6,75,0.00,,,0.26,VWS V14.01,2013-12-19 11:27:00,
2013-12-19 03:28:00,47.3,39.8,29.50,NW,315,7.4,9.6,75,0.00,,,0.26,VWS V14.01,2013-12-19 11:28:00,
2013-12-19 03:30:00,47.3,40.1,29.50,WNW,292,8.5,9.6,76,0.00,,,0.26,VWS V14.01,2013-12-19 11:30:00,
2013-12-19 03:31:00,47.3,40.1,29.50,WNW,292,7.6,9.6,76,0.00,,,0.26,VWS V14.01,2013-12-19 11:31:00,
2013-12-19 03:32:00,47.3,40.1,29.50,NNW,338,5.8,8.5,76,0.00,,,0.26,VWS V14.01,2013-12-19 11:32:00,
2013-12-19 03:33:00,47.3,39.8,29.50,NNW,338,5.4,8.5,75,0.00,,,0.26,VWS V14.01,2013-12-19 11:33:00,
2013-12-19 03:34:00,47.3,39.8,29.50,WNW,292,5.8,7.6,75,0.00,,,0.26,VWS V14.01,2013-12-19 11:34:00,
2013-12-19 03:35:00,47.3,39.8,29.50,WNW,292,5.8,6.0,75,0.00,,,0.26,VWS V14.01,2013-12-19 11:35:00,
2013-12-19 03:36:00,47.3,39.8,29.50,NNW,338,7.4,10.3,75,0.00,,,0.26,VWS V14.01,2013-12-19 11:36:00,
2013-12-19 03:37:00,47.3,39.8,29.50,NNW,338,5.6,10.3,75,0.00,,,0.26,VWS V14.01,2013-12-19 11:37:00,
2013-12-19 03:38:00,47.3,39.8,29.50,WNW,292,8.1,10.3,75,0.00,,,0.26,VWS V14.01,2013-12-19 11:38:00,
2013-12-19 03:39:00,47.3,39.8,29.50,NNW,338,7.6,10.3,75,0.00,,,0.26,VWS V14.01,2013-12-19 11:39:00,
2013-12-19 03:40:00,47.3,39.8,29.50,NNW,338,6.0,8.1,75,0.00,,,0.26,VWS V14.01,2013-12-19 11:40:00,
2013-12-19 03:41:00,47.3,39.8,29.50,WNW,292,6.0,8.1,75,0.00,,,0.26,VWS V14.01,2013-12-19 11:41:00,
2013-12-19 03:42:00,47.3,39.8,29.50,NW,315,4.7,7.6,75,0.00,,,0.26,VWS V14.01,2013-12-19 11:42:00,
2013-12-19 03:43:00,47.3,39.8,29.50,WNW,292,7.8,7.8,75,0.00,,,0.26,VWS V14.01,2013-12-19 11:43:00,
2013-12-19 03:44:00,47.3,39.8,29.50,NNW,338,10.1,10.1,75,0.00,,,0.26,VWS V14.01,2013-12-19 11:44:00,
2013-12-19 03:45:00,47.3,39.8,29.50,NNW,338,8.5,10.1,75,0.00,,,0.26,VWS V14.01,2013-12-19 11:45:00,
2013-12-19 03:46:00,47.3,39.8,29.50,NW,315,8.1,10.1,75,0.00,,,0.26,VWS V14.01,2013-12-19 11:46:00,
2013-12-19 03:47:00,47.3,39.8,29.50,WNW,292,6.0,10.1,75,0.00,,,0.26,VWS V14.01,2013-12-19 11:47:00,
2013-12-19 03:48:00,47.3,39.8,29.50,WNW,292,5.4,10.1,75,0.00,,,0.26,VWS V14.01,2013-12-19 11:48:00,
2013-12-19 03:49:00,47.1,39.6,29.50,West,270,3.6,8.1,75,0.00,,,0.26,VWS V14.01,2013-12-19 11:49:00,
2013-12-19 03:50:00,46.9,39.4,29.50,WNW,292,3.6,6.0,75,0.00,,,0.26,VWS V14.01,2013-12-19 11:50:00,
2013-12-19 03:51:00,46.9,39.4,29.50,WNW,292,4.0,5.4,75,0.00,,,0.26,VWS V14.01,2013-12-19 11:51:00,
2013-12-19 03:52:00,46.9,39.4,29.50,WNW,292,6.0,6.0,75,0.00,,,0.26,VWS V14.01,2013-12-19 11:52:00,
2013-12-19 03:53:00,46.9,39.4,29.50,WNW,292,4.9,6.0,75,0.00,,,0.26,VWS V14.01,2013-12-19 11:53:00,
2013-12-19 03:54:00,46.9,39.8,29.50,WNW,292,5.8,6.0,76,0.00,,,0.26,VWS V14.01,2013-12-19 11:54:00,
2013-12-19 03:55:00,46.9,39.8,29.50,NW,315,3.8,6.0,76,0.00,,,0.26,VWS V14.01,2013-12-19 11:55:00,
2013-12-19 03:56:00,46.8,39.6,29.50,WSW,248,6.0,6.0,76,0.00,,,0.26,VWS V14.01,2013-12-19 11:56:00,
2013-12-19 03:57:00,46.8,39.6,29.50,WNW,292,6.0,6.0,76,0.00,,,0.26,VWS V14.01,2013-12-19 11:57:00,
2013-12-19 03:58:00,46.8,39.6,29.50,WNW,292,5.4,6.0,76,0.00,,,0.26,VWS V14.01,2013-12-19 11:58:00,
2013-12-19 03:59:00,46.6,39.4,29.50,WNW,292,4.0,6.0,76,0.00,,,0.26,VWS V14.01,2013-12-19 11:59:00,
2013-12-19 04:00:00,46.6,39.4,29.50,WNW,292,6.3,6.3,76,0.00,,,0.26,VWS V14.01,2013-12-19 12:00:00,
2013-12-19 04:01:00,46.8,39.6,29.50,WNW,292,6.3,6.3,76,0.00,,,0.26,VWS V14.01,2013-12-19 12:01:00,
2013-12-19 04:02:00,46.8,39.6,29.50,WNW,292,5.8,6.3,76,0.00,,,0.26,VWS V14.01,2013-12-19 12:02:00,
2013-12-19 04:03:00,46.8,39.6,29.50,NW,315,6.3,6.3,76,0.00,,,0.26,VWS V14.01,2013-12-19 12:03:00,
2013-12-19 04:04:00,46.8,39.6,29.50,WNW,292,5.6,6.3,76,0.00,,,0.26,VWS V14.01,2013-12-19 12:04:00,
2013-12-19 04:05:00,46.8,39.6,29.50,WNW,292,4.9,6.3,76,0.00,,,0.26,VWS V14.01,2013-12-19 12:05:00,
2013-12-19 04:06:00,46.8,39.6,29.50,WNW,292,4.9,6.3,76,0.00,,,0.26,VWS V14.01,2013-12-19 12:06:00,
2013-12-19 04:07:00,46.8,39.6,29.50,NW,315,3.6,6.3,76,0.00,,,0.26,VWS V14.01,2013-12-19 12:07:00,
2013-12-19 04:08:00,46.6,39.4,29.50,WNW,292,4.0,5.6,76,0.00,,,0.26,VWS V14.01,2013-12-19 12:08:00,
2013-12-19 04:09:00,46.6,39.4,29.50,WSW,248,6.3,6.3,76,0.00,,,0.26,VWS V14.01,2013-12-19 12:09:00,
2013-12-19 04:10:00,46.8,39.6,29.50,WNW,292,6.7,6.7,76,0.00,,,0.26,VWS V14.01,2013-12-19 12:10:00,
2013-12-19 04:11:00,46.8,39.6,29.50,WNW,292,6.3,6.7,76,0.00,,,0.26,VWS V14.01,2013-12-19 12:11:00,
2013-12-19 04:12:00,46.8,39.6,29.50,WNW,292,5.4,6.7,76,0.00,,,0.26,VWS V14.01,2013-12-19 12:12:00,
2013-12-19 04:13:00,46.8,39.6,29.50,WNW,292,5.4,6.7,76,0.00,,,0.26,VWS V14.01,2013-12-19 12:13:00,
2013-12-19 04:14:00,46.8,39.6,29.50,WNW,292,6.3,6.3,76,0.00,,,0.26,VWS V14.01,2013-12-19 12:14:00,
2013-12-19 04:15:00,46.6,39.4,29.50,WNW,292,5.4,6.3,76,0.00,,,0.26,VWS V14.01,2013-12-19 12:15:00,
2013-12-19 04:16:00,46.6,39.4,29.50,WNW,292,6.9,6.9,76,0.00,,,0.26,VWS V14.01,2013-12-19 12:16:00,
2013-12-19 04:17:00,46.8,39.6,29.50,WNW,292,4.0,7.6,76,0.00,,,0.26,VWS V14.01,2013-12-19 12:17:00,
2013-12-19 04:18:00,46.8,39.6,29.50,WNW,292,4.0,7.6,76,0.00,,,0.26,VWS V14.01,2013-12-19 12:18:00,
2013-12-19 04:19:00,46.8,39.6,29.50,WNW,292,8.1,8.1,76,0.00,,,0.26,VWS V14.01,2013-12-19 12:19:00,
2013-12-19 04:20:00,46.8,39.6,29.50,WNW,292,8.1,8.1,76,0.00,,,0.26,VWS V14.01,2013-12-19 12:20:00,
2013-12-19 04:21:00,46.8,39.6,29.50,WNW,292,4.0,8.1,76,0.00,,,0.26,VWS V14.01,2013-12-19 12:21:00,
2013-12-19 04:22:00,46.8,39.6,29.50,WNW,292,6.0,8.1,76,0.00,,,0.26,VWS V14.01,2013-12-19 12:22:00,
2013-12-19 04:23:00,46.8,39.6,29.50,NNW,338,4.3,8.1,76,0.00,,,0.26,VWS V14.01,2013-12-19 12:23:00,
2013-12-19 04:24:00,46.8,39.6,29.50,NNW,338,4.3,8.1,76,0.00,,,0.26,VWS V14.01,2013-12-19 12:24:00,
2013-12-19 04:25:00,46.8,39.6,29.50,WNW,292,3.6,8.1,76,0.00,,,0.26,VWS V14.01,2013-12-19 12:25:00,
2013-12-19 04:26:00,46.6,39.4,29.50,NW,315,4.9,6.0,76,0.00,,,0.26,VWS V14.01,2013-12-19 12:26:00,
2013-12-19 04:27:00,46.6,39.4,29.50,NW,315,4.9,4.9,76,0.00,,,0.26,VWS V14.01,2013-12-19 12:27:00,
2013-12-19 04:28:00,46.6,39.4,29.50,NW,315,5.8,5.8,76,0.00,,,0.26,VWS V14.01,2013-12-19 12:28:00,
2013-12-19 04:29:00,46.4,39.3,29.50,NW,315,5.4,5.8,76,0.00,,,0.26,VWS V14.01,2013-12-19 12:29:00,
2013-12-19 04:30:00,46.4,39.3,29.50,NW,315,11.0,11.0,76,0.00,,,0.26,VWS V14.01,2013-12-19 12:30:00,
2013-12-19 04:31:00,46.6,39.4,29.50,NW,315,11.0,11.0,76,0.00,,,0.26,VWS V14.01,2013-12-19 12:31:00,
2013-12-19 04:32:00,46.6,39.4,29.50,NNW,338,6.3,11.0,76,0.00,,,0.26,VWS V14.01,2013-12-19 12:32:00,
2013-12-19 04:33:00,46.6,39.4,29.50,NNW,338,6.3,11.0,76,0.00,,,0.26,VWS V14.01,2013-12-19 12:33:00,
2013-12-19 04:34:00,46.6,39.4,29.50,NNW,338,6.5,7.8,76,0.00,,,0.26,VWS V14.01,2013-12-19 12:34:00,
2013-12-19 04:35:00,46.6,39.4,29.50,NW,315,5.6,7.8,76,0.00,,,0.26,VWS V14.01,2013-12-19 12:35:00,
2013-12-19 04:36:00,46.6,39.4,29.50,NNW,338,7.6,7.8,76,0.00,,,0.26,VWS V14.01,2013-12-19 12:36:00,
2013-12-19 04:37:00,46.6,39.4,29.50,NW,315,6.0,7.8,76,0.00,,,0.26,VWS V14.01,2013-12-19 12:37:00,
2013-12-19 04:38:00,46.6,39.1,29.50,NW,315,5.8,7.6,75,0.00,,,0.26,VWS V14.01,2013-12-19 12:38:00,
2013-12-19 04:39:00,46.6,39.1,29.50,NNW,338,4.9,7.6,75,0.00,,,0.26,VWS V14.01,2013-12-19 12:39:00,
2013-12-19 04:40:00,46.6,39.1,29.50,NNW,338,3.4,6.0,75,0.00,,,0.26,VWS V14.01,2013-12-19 12:40:00,
2013-12-19 04:41:00,46.6,39.1,29.50,NNW,338,7.4,7.4,75,0.00,,,0.26,VWS V14.01,2013-12-19 12:41:00,
2013-12-19 04:42:00,46.6,39.1,29.50,WNW,292,4.0,7.4,75,0.00,,,0.26,VWS V14.01,2013-12-19 12:42:00,
2013-12-19 04:43:00,46.6,39.1,29.50,NW,315,4.5,7.4,75,0.00,,,0.26,VWS V14.01,2013-12-19 12:43:00,
2013-12-19 04:44:00,46.6,39.1,29.50,WNW,292,4.3,7.4,75,0.00,,,0.26,VWS V14.01,2013-12-19 12:44:00,
2013-12-19 04:45:00,46.4,38.9,29.50,WNW,292,3.6,5.8,75,0.00,,,0.26,VWS V14.01,2013-12-19 12:45:00,
2013-12-19 04:46:00,46.4,38.9,29.50,WNW,292,3.6,5.8,75,0.00,,,0.26,VWS V14.01,2013-12-19 12:46:00,
2013-12-19 04:47:00,46.4,38.9,29.50,WNW,292,3.8,5.8,75,0.00,,,0.26,VWS V14.01,2013-12-19 12:47:00,
2013-12-19 04:48:00,46.4,38.9,29.50,WNW,292,4.3,5.6,75,0.00,,,0.26,VWS V14.01,2013-12-19 12:48:00,
2013-12-19 04:49:00,46.4,38.9,29.50,WNW,292,4.3,5.6,75,0.00,,,0.26,VWS V14.01,2013-12-19 12:49:00,
2013-12-19 04:50:00,46.4,38.9,29.50,WNW,292,3.4,5.6,75,0.00,,,0.26,VWS V14.01,2013-12-19 12:50:00,
2013-12-19 04:51:00,46.4,38.9,29.50,WNW,292,4.3,5.6,75,0.00,,,0.26,VWS V14.01,2013-12-19 12:51:00,
2013-12-19 04:52:00,46.4,38.9,29.50,WNW,292,3.1,4.3,75,0.00,,,0.26,VWS V14.01,2013-12-19 12:52:00,
2013-12-19 04:53:00,46.4,38.9,29.50,West,270,5.8,5.8,75,0.00,,,0.26,VWS V14.01,2013-12-19 12:53:00,
2013-12-19 04:54:00,46.4,38.9,29.50,WNW,292,5.8,5.8,75,0.00,,,0.26,VWS V14.01,2013-12-19 12:54:00,
2013-12-19 04:55:00,46.4,38.9,29.50,West,270,4.9,5.8,75,0.00,,,0.26,VWS V14.01,2013-12-19 12:55:00,
2013-12-19 04:56:00,46.4,38.9,29.50,WNW,292,5.4,5.8,75,0.00,,,0.26,VWS V14.01,2013-12-19 12:56:00,
2013-12-19 04:57:00,46.4,38.6,29.50,West,270,7.4,7.4,74,0.00,,,0.26,VWS V14.01,2013-12-19 12:57:00,
2013-12-19 04:58:00,46.4,38.6,29.50,WNW,292,3.1,7.4,74,0.00,,,0.26,VWS V14.01,2013-12-19 12:58:00,
2013-12-19 04:59:00,46.4,38.6,29.50,WNW,292,5.4,7.4,74,0.00,,,0.26,VWS V14.01,2013-12-19 12:59:00,
2013-12-19 05:00:00,46.4,38.6,29.50,WNW,292,4.0,7.4,74,0.00,,,0.26,VWS V14.01,2013-12-19 13:00:00,
2013-12-19 05:01:00,46.4,38.2,29.50,WNW,292,3.4,5.4,73,0.00,,,0.26,VWS V14.01,2013-12-19 13:01:00,
2013-12-19 05:02:00,46.4,38.2,29.50,WNW,292,6.5,6.5,73,0.00,,,0.26,VWS V14.01,2013-12-19 13:02:00,
2013-12-19 05:03:00,46.4,38.2,29.50,WNW,292,8.1,8.1,73,0.00,,,0.26,VWS V14.01,2013-12-19 13:03:00,
2013-12-19 05:04:00,46.6,38.4,29.50,NW,315,6.9,8.1,73,0.00,,,0.26,VWS V14.01,2013-12-19 13:04:00,
2013-12-19 05:05:00,46.6,38.4,29.50,West,270,7.4,8.1,73,0.00,,,0.26,VWS V14.01,2013-12-19 13:05:00,
2013-12-19 05:06:00,46.6,38.4,29.50,WNW,292,7.4,8.1,73,0.00,,,0.26,VWS V14.01,2013-12-19 13:06:00,
2013-12-19 05:08:00,46.6,38.4,29.50,WNW,292,7.4,8.1,73,0.00,,,0.26,VWS V14.01,2013-12-19 13:08:00,
2013-12-19 05:09:00,46.6,38.4,29.50,NNW,338,7.8,7.8,73,0.00,,,0.26,VWS V14.01,2013-12-19 13:09:00,
2013-12-19 05:10:00,46.6,38.4,29.50,NNW,338,3.6,7.8,73,0.00,,,0.26,VWS V14.01,2013-12-19 13:10:00,
2013-12-19 05:11:00,46.6,38.4,29.50,NNW,338,3.6,7.8,73,0.00,,,0.26,VWS V14.01,2013-12-19 13:11:00,
2013-12-19 05:12:00,46.6,38.0,29.50,NW,315,6.3,7.8,72,0.00,,,0.26,VWS V14.01,2013-12-19 13:12:00,
2013-12-19 05:13:00,46.8,38.2,29.50,NNW,338,7.4,7.4,72,0.00,,,0.26,VWS V14.01,2013-12-19 13:13:00,
2013-12-19 05:14:00,46.8,38.2,29.50,WNW,292,3.6,7.4,72,0.00,,,0.26,VWS V14.01,2013-12-19 13:14:00,
2013-12-19 05:15:00,46.8,38.2,29.50,WNW,292,6.0,7.4,72,0.00,,,0.26,VWS V14.01,2013-12-19 13:15:00,
2013-12-19 05:16:00,46.8,38.2,29.50,WNW,292,6.3,7.4,72,0.00,,,0.26,VWS V14.01,2013-12-19 13:16:00,
2013-12-19 05:17:00,46.9,38.0,29.50,NW,315,5.4,6.3,71,0.00,,,0.26,VWS V14.01,2013-12-19 13:17:00,
2013-12-19 05:18:00,46.9,38.0,29.50,WNW,292,4.3,6.3,71,0.00,,,0.26,VWS V14.01,2013-12-19 13:18:00,
2013-12-19 05:19:00,46.8,38.2,29.50,NNW,338,6.5,6.5,72,0.00,,,0.26,VWS V14.01,2013-12-19 13:19:00,
2013-12-19 05:20:00,46.8,37.9,29.50,WNW,292,6.5,6.5,71,0.00,,,0.26,VWS V14.01,2013-12-19 13:20:00,
2013-12-19 05:21:00,46.8,37.9,29.50,NW,315,6.3,6.5,71,0.00,,,0.26,VWS V14.01,2013-12-19 13:21:00,
2013-12-19 05:22:00,46.6,37.7,29.50,WNW,292,6.5,6.5,71,0.00,,,0.26,VWS V14.01,2013-12-19 13:22:00,
2013-12-19 05:23:00,46.6,37.7,29.50,NW,315,3.8,6.5,71,0.00,,,0.26,VWS V14.01,2013-12-19 13:23:00,
2013-12-19 05:24:00,46.6,38.0,29.50,NW,315,3.8,6.5,72,0.00,,,0.26,VWS V14.01,2013-12-19 13:24:00,
2013-12-19 05:25:00,46.6,38.0,29.50,NW,315,5.6,6.5,72,0.00,,,0.26,VWS V14.01,2013-12-19 13:25:00,
2013-12-19 05:26:00,46.8,37.9,29.50,WNW,292,6.0,6.0,71,0.00,,,0.26,VWS V14.01,2013-12-19 13:26:00,
2013-12-19 05:27:00,46.8,37.9,29.50,WNW,292,6.9,6.9,71,0.00,,,0.26,VWS V14.01,2013-12-19 13:27:00,
2013-12-19 05:28:00,46.8,37.9,29.50,WNW,292,6.7,6.9,71,0.00,,,0.26,VWS V14.01,2013-12-19 13:28:00,
2013-12-19 05:29:00,46.8,37.9,29.50,WNW,292,7.2,7.2,71,0.00,,,0.26,VWS V14.01,2013-12-19 13:29:00,
2013-12-19 05:30:00,46.8,37.9,29.50,WNW,292,6.9,7.2,71,0.00,,,0.26,VWS V14.01,2013-12-19 13:30:00,
2013-12-19 05:31:00,46.9,38.4,29.50,WNW,292,6.0,7.2,72,0.00,,,0.26,VWS V14.01,2013-12-19 13:31:00,
2013-12-19 05:32:00,46.9,38.4,29.50,NW,315,5.8,7.2,72,0.00,,,0.26,VWS V14.01,2013-12-19 13:32:00,
2013-12-19 05:33:00,46.8,38.2,29.50,WNW,292,7.8,7.8,72,0.00,,,0.26,VWS V14.01,2013-12-19 13:33:00,
2013-12-19 05:34:00,46.8,38.2,29.50,NNW,338,6.3,7.8,72,0.00,,,0.26,VWS V14.01,2013-12-19 13:34:00,
2013-12-19 05:35:00,46.9,38.4,29.50,NNW,338,7.6,7.8,72,0.00,,,0.26,VWS V14.01,2013-12-19 13:35:00,
2013-12-19 05:36:00,46.8,38.2,29.50,WNW,292,5.4,7.8,72,0.00,,,0.26,VWS V14.01,2013-12-19 13:36:00,
2013-12-19 05:37:00,46.8,38.2,29.50,WNW,292,3.8,7.6,72,0.00,,,0.26,VWS V14.01,2013-12-19 13:37:00,
2013-12-19 05:38:00,46.8,38.2,29.50,WNW,292,4.9,7.6,72,0.00,,,0.26,VWS V14.01,2013-12-19 13:38:00,
2013-12-19 05:39:00,46.8,38.2,29.50,WNW,292,4.9,7.6,72,0.00,,,0.26,VWS V14.01,2013-12-19 13:39:00,
2013-12-19 05:40:00,46.8,38.2,29.50,WNW,292,5.4,5.4,72,0.00,,,0.26,VWS V14.01,2013-12-19 13:40:00,
2013-12-19 05:41:00,46.8,38.2,29.50,WNW,292,5.4,5.4,72,0.00,,,0.26,VWS V14.01,2013-12-19 13:41:00,
2013-12-19 05:42:00,46.8,38.6,29.50,NW,315,6.5,6.5,73,0.00,,,0.26,VWS V14.01,2013-12-19 13:42:00,
2013-12-19 05:43:00,46.8,38.2,29.50,WNW,292,6.3,6.5,72,0.00,,,0.26,VWS V14.01,2013-12-19 13:43:00,
2013-12-19 05:44:00,46.8,38.2,29.50,NNW,338,7.8,7.8,72,0.00,,,0.26,VWS V14.01,2013-12-19 13:44:00,
2013-12-19 05:45:00,46.8,38.2,29.50,NW,315,4.3,7.8,72,0.00,,,0.26,VWS V14.01,2013-12-19 13:45:00,
2013-12-19 05:46:00,46.8,38.2,29.50,NW,315,4.3,7.8,72,0.00,,,0.26,VWS V14.01,2013-12-19 13:46:00,
2013-12-19 05:47:00,46.8,38.2,29.50,NW,315,6.0,7.8,72,0.00,,,0.26,VWS V14.01,2013-12-19 13:47:00,
2013-12-19 05:48:00,46.8,38.2,29.50,NW,315,5.4,7.8,72,0.00,,,0.26,VWS V14.01,2013-12-19 13:48:00,
2013-12-19 05:49:00,46.8,38.2,29.50,NW,315,4.7,6.0,72,0.00,,,0.26,VWS V14.01,2013-12-19 13:49:00,
2013-12-19 05:50:00,46.8,38.2,29.50,NW,315,4.9,6.0,72,0.00,,,0.26,VWS V14.01,2013-12-19 13:50:00,
2013-12-19 05:51:00,46.8,38.2,29.50,NW,315,4.9,5.4,72,0.00,,,0.26,VWS V14.01,2013-12-19 13:51:00,
2013-12-19 05:52:00,46.8,38.2,29.50,WNW,292,4.9,4.9,72,0.00,,,0.26,VWS V14.01,2013-12-19 13:52:00,
2013-12-19 05:53:00,46.8,38.2,29.50,NW,315,5.8,5.8,72,0.00,,,0.26,VWS V14.01,2013-12-19 13:53:00,
2013-12-19 05:54:00,46.9,38.0,29.50,NNW,338,5.8,10.3,71,0.00,,,0.26,VWS V14.01,2013-12-19 13:54:00,
2013-12-19 05:55:00,46.9,38.0,29.50,NW,315,5.8,10.3,71,0.00,,,0.26,VWS V14.01,2013-12-19 13:55:00,
2013-12-19 05:56:00,46.9,38.0,29.50,NW,315,5.8,10.3,71,0.00,,,0.26,VWS V14.01,2013-12-19 13:56:00,
2013-12-19 05:57:00,46.9,38.0,29.50,NNW,338,9.6,10.3,71,0.00,,,0.26,VWS V14.01,2013-12-19 13:57:00,
2013-12-19 05:58:00,46.9,38.0,29.50,WNW,292,5.6,9.6,71,0.00,,,0.26,VWS V14.01,2013-12-19 13:58:00,
2013-12-19 05:59:00,46.9,37.7,29.50,NW,315,3.8,9.6,70,0.00,,,0.26,VWS V14.01,2013-12-19 13:59:00,
2013-12-19 06:00:00,46.9,37.7,29.50,WNW,292,5.6,5.8,70,0.00,,,0.26,VWS V14.01,2013-12-19 14:00:00,
2013-12-19 06:01:00,46.9,37.7,29.50,WNW,292,5.6,5.6,70,0.00,,,0.26,VWS V14.01,2013-12-19 14:01:00,
2013-12-19 06:02:00,46.9,37.7,29.50,WNW,292,6.3,6.3,70,0.00,,,0.26,VWS V14.01,2013-12-19 14:02:00,
2013-12-19 06:03:00,46.9,37.7,29.50,WNW,292,4.0,6.3,70,0.00,,,0.26,VWS V14.01,2013-12-19 14:03:00,
2013-12-19 06:04:00,46.9,37.7,29.50,WNW,292,4.9,6.3,70,0.00,,,0.26,VWS V14.01,2013-12-19 14:04:00,
2013-12-19 06:05:00,46.8,37.9,29.50,NW,315,4.5,6.3,71,0.00,,,0.26,VWS V14.01,2013-12-19 14:05:00,
2013-12-19 06:06:00,46.8,37.9,29.50,NW,315,4.5,4.9,71,0.00,,,0.26,VWS V14.01,2013-12-19 14:06:00,
2013-12-19 06:07:00,46.8,37.9,29.50,WNW,292,2.9,4.9,71,0.00,,,0.26,VWS V14.01,2013-12-19 14:07:00,
2013-12-19 06:08:00,46.8,37.9,29.50,WNW,292,6.0,6.5,71,0.00,,,0.26,VWS V14.01,2013-12-19 14:08:00,
2013-12-19 06:09:00,46.8,37.9,29.50,WNW,292,6.5,6.5,71,0.00,,,0.26,VWS V14.01,2013-12-19 14:09:00,
2013-12-19 06:10:00,46.8,37.9,29.50,WNW,292,5.8,6.5,71,0.00,,,0.26,VWS V14.01,2013-12-19 14:10:00,
2013-12-19 06:11:00,46.8,37.9,29.50,NW,315,3.4,6.5,71,0.00,,,0.26,VWS V14.01,2013-12-19 14:11:00,
2013-12-19 06:12:00,46.8,37.9,29.50,WNW,292,4.9,6.5,71,0.00,,,0.26,VWS V14.01,2013-12-19 14:12:00,
2013-12-19 06:13:00,46.6,37.7,29.50,WNW,292,3.1,5.8,71,0.00,,,0.26,VWS V14.01,2013-12-19 14:13:00,
2013-12-19 06:14:00,46.6,37.7,29.50,West,270,4.0,4.9,71,0.00,,,0.26,VWS V14.01,2013-12-19 14:14:00,
2013-12-19 06:15:00,46.6,37.7,29.50,WNW,292,3.8,4.9,71,0.00,,,0.26,VWS V14.01,2013-12-19 14:15:00,
2013-12-19 06:16:00,46.6,37.7,29.50,WNW,292,3.8,4.9,71,0.00,,,0.26,VWS V14.01,2013-12-19 14:16:00,
2013-12-19 06:17:00,46.4,37.5,29.50,WNW,292,3.8,4.0,71,0.00,,,0.26,VWS V14.01,2013-12-19 14:17:00,
2013-12-19 06:18:00,46.4,37.5,29.50,WNW,292,3.8,4.0,71,0.00,,,0.26,VWS V14.01,2013-12-19 14:18:00,
2013-12-19 06:19:00,46.6,37.7,29.50,WNW,292,5.6,5.6,71,0.00,,,0.26,VWS V14.01,2013-12-19 14:19:00,
2013-12-19 06:20:00,46.4,37.5,29.50,WNW,292,2.9,5.6,71,0.00,,,0.26,VWS V14.01,2013-12-19 14:20:00,
2013-12-19 06:21:00,46.4,37.5,29.50,WNW,292,2.9,5.6,71,0.00,,,0.26,VWS V14.01,2013-12-19 14:21:00,
2013-12-19 06:22:00,46.6,37.7,29.50,WNW,292,4.9,5.6,71,0.00,,,0.26,VWS V14.01,2013-12-19 14:22:00,
2013-12-19 06:23:00,46.6,37.7,29.50,WNW,292,4.0,5.6,71,0.00,,,0.26,VWS V14.01,2013-12-19 14:23:00,
2013-12-19 06:24:00,46.6,37.7,29.50,WNW,292,4.0,5.6,71,0.00,,,0.26,VWS V14.01,2013-12-19 14:24:00,
2013-12-19 06:25:00,46.4,37.9,29.50,NW,315,3.4,5.6,72,0.00,,,0.26,VWS V14.01,2013-12-19 14:25:00,
2013-12-19 06:26:00,46.4,37.9,29.50,WNW,292,2.9,5.6,72,0.00,,,0.26,VWS V14.01,2013-12-19 14:26:00,
2013-12-19 06:27:00,46.4,37.9,29.53,NW,315,3.6,4.9,72,0.00,,,0.26,VWS V14.01,2013-12-19 14:27:00,
2013-12-19 06:28:00,46.4,37.9,29.53,WNW,292,2.9,3.6,72,0.00,,,0.26,VWS V14.01,2013-12-19 14:28:00,
2013-12-19 06:29:00,46.2,37.7,29.53,WNW,292,2.9,3.6,72,0.00,,,0.26,VWS V14.01,2013-12-19 14:29:00,
2013-12-19 06:30:00,46.2,37.7,29.53,WNW,292,2.9,3.6,72,0.00,,,0.26,VWS V14.01,2013-12-19 14:30:00,
2013-12-19 06:31:00,46.2,37.7,29.53,WNW,292,2.9,3.6,72,0.00,,,0.26,VWS V14.01,2013-12-19 14:31:00,
2013-12-19 06:32:00,46.2,37.7,29.53,WNW,292,2.9,2.9,72,0.00,,,0.26,VWS V14.01,2013-12-19 14:32:00,
2013-12-19 06:33:00,46.2,38.1,29.53,WNW,292,2.9,2.9,73,0.00,,,0.26,VWS V14.01,2013-12-19 14:33:00,
2013-12-19 06:34:00,46.2,38.1,29.53,WNW,292,2.9,2.9,73,0.00,,,0.26,VWS V14.01,2013-12-19 14:34:00,
2013-12-19 06:35:00,46.2,38.1,29.53,WNW,292,2.9,2.9,73,0.00,,,0.26,VWS V14.01,2013-12-19 14:35:00,
2013-12-19 06:36:00,46.2,38.1,29.53,WNW,292,2.9,2.9,73,0.00,,,0.26,VWS V14.01,2013-12-19 14:36:00,
2013-12-19 06:37:00,46.2,38.1,29.53,WNW,292,2.9,2.9,73,0.00,,,0.26,VWS V14.01,2013-12-19 14:37:00,
2013-12-19 06:38:00,46.4,37.9,29.53,WNW,292,2.9,2.9,72,0.00,,,0.26,VWS V14.01,2013-12-19 14:38:00,
2013-12-19 06:39:00,46.4,37.9,29.53,West,270,4.0,4.0,72,0.00,,,0.26,VWS V14.01,2013-12-19 14:39:00,
2013-12-19 06:40:00,46.4,37.9,29.53,WNW,292,3.1,4.0,72,0.00,,,0.26,VWS V14.01,2013-12-19 14:40:00,
2013-12-19 06:41:00,46.4,37.9,29.53,WNW,292,3.4,4.0,72,0.00,,,0.26,VWS V14.01,2013-12-19 14:41:00,
2013-12-19 06:42:00,46.2,38.1,29.53,WNW,292,2.7,4.0,73,0.00,,,0.26,VWS V14.01,2013-12-19 14:42:00,
2013-12-19 06:43:00,46.2,38.1,29.53,WNW,292,3.4,3.4,73,0.00,,,0.26,VWS V14.01,2013-12-19 14:43:00,
2013-12-19 06:44:00,46.2,38.1,29.53,WNW,292,2.9,3.4,73,0.00,,,0.26,VWS V14.01,2013-12-19 14:44:00,
2013-12-19 06:45:00,46.2,38.1,29.53,WNW,292,4.7,4.7,73,0.00,,,0.26,VWS V14.01,2013-12-19 14:45:00,
2013-12-19 06:46:00,46.2,38.1,29.53,WNW,292,4.7,4.7,73,0.00,,,0.26,VWS V14.01,2013-12-19 14:46:00,
2013-12-19 06:47:00,46.2,38.1,29.53,WNW,292,4.3,4.7,73,0.00,,,0.26,VWS V14.01,2013-12-19 14:47:00,
2013-12-19 06:48:00,46.2,38.1,29.53,West,270,6.9,6.9,73,0.00,,,0.26,VWS V14.01,2013-12-19 14:48:00,
2013-12-19 06:49:00,46.4,38.2,29.53,WSW,248,4.9,6.9,73,0.00,,,0.26,VWS V14.01,2013-12-19 14:49:00,
2013-12-19 06:50:00,46.6,38.4,29.53,NW,315,4.9,6.9,73,0.00,,,0.26,VWS V14.01,2013-12-19 14:50:00,
2013-12-19 06:51:00,46.6,38.4,29.53,NW,315,2.9,6.9,73,0.00,,,0.26,VWS V14.01,2013-12-19 14:51:00,
2013-12-19 06:52:00,46.4,38.2,29.53,NW,315,2.9,6.9,73,0.00,,,0.26,VWS V14.01,2013-12-19 14:52:00,
2013-12-19 06:53:00,46.4,38.2,29.53,NW,315,2.9,5.4,73,0.00,,,0.26,VWS V14.01,2013-12-19 14:53:00,
2013-12-19 06:54:00,46.0,37.9,29.53,WNW,292,4.3,5.4,73,0.00,,,0.26,VWS V14.01,2013-12-19 14:54:00,
2013-12-19 06:55:00,46.0,37.9,29.53,WNW,292,4.3,4.3,73,0.00,,,0.26,VWS V14.01,2013-12-19 14:55:00,
2013-12-19 06:56:00,46.0,37.9,29.53,NNW,338,3.6,4.3,73,0.00,,,0.26,VWS V14.01,2013-12-19 14:56:00,
2013-12-19 06:57:00,46.0,37.9,29.53,NW,315,2.9,4.3,73,0.00,,,0.26,VWS V14.01,2013-12-19 14:57:00,
2013-12-19 06:58:00,45.9,37.7,29.53,NW,315,3.6,4.3,73,0.00,,,0.26,VWS V14.01,2013-12-19 14:58:00,
2013-12-19 06:59:00,45.9,38.1,29.53,WNW,292,2.5,3.6,74,0.00,,,0.26,VWS V14.01,2013-12-19 14:59:00,
2013-12-19 07:00:00,45.5,37.7,29.53,West,270,2.2,3.6,74,0.00,,,0.26,VWS V14.01,2013-12-19 15:00:00,
2013-12-19 07:01:00,45.5,37.7,29.53,West,270,2.2,3.6,74,0.00,,,0.26,VWS V14.01,2013-12-19 15:01:00,
2013-12-19 07:02:00,45.5,37.7,29.53,West,270,2.0,2.5,74,0.00,,,0.26,VWS V14.01,2013-12-19 15:02:00,
2013-12-19 07:03:00,45.3,37.5,29.53,West,270,1.6,2.5,74,0.00,,,0.26,VWS V14.01,2013-12-19 15:03:00,
2013-12-19 07:04:00,45.3,37.5,29.53,West,270,1.6,2.2,74,0.00,,,0.26,VWS V14.01,2013-12-19 15:04:00,
2013-12-19 07:05:00,45.3,37.5,29.53,West,270,1.6,2.0,74,0.00,,,0.26,VWS V14.01,2013-12-19 15:05:00,
2013-12-19 07:06:00,45.5,38.0,29.53,WNW,292,2.7,2.7,75,0.00,,,0.26,VWS V14.01,2013-12-19 15:06:00,
2013-12-19 07:07:00,45.5,38.0,29.53,West,270,2.5,2.7,75,0.00,,,0.26,VWS V14.01,2013-12-19 15:07:00,
2013-12-19 07:08:00,45.5,38.0,29.53,WSW,248,4.0,4.0,75,0.00,,,0.26,VWS V14.01,2013-12-19 15:08:00,
2013-12-19 07:09:00,45.5,38.0,29.53,West,270,3.6,4.0,75,0.00,,,0.26,VWS V14.01,2013-12-19 15:09:00,
2013-12-19 07:10:00,45.7,38.2,29.53,West,270,3.6,4.0,75,0.00,,,0.26,VWS V14.01,2013-12-19 15:10:00,
2013-12-19 07:11:00,45.7,38.2,29.53,West,270,3.6,4.0,75,0.00,,,0.26,VWS V14.01,2013-12-19 15:11:00,
2013-12-19 07:12:00,45.7,38.2,29.53,WNW,292,4.0,4.0,75,0.00,,,0.26,VWS V14.01,2013-12-19 15:12:00,
2013-12-19 07:13:00,45.9,38.4,29.53,West,270,4.9,4.9,75,0.00,,,0.26,VWS V14.01,2013-12-19 15:13:00,
2013-12-19 07:14:00,45.9,38.4,29.53,West,270,4.9,4.9,75,0.00,,,0.26,VWS V14.01,2013-12-19 15:14:00,
2013-12-19 07:15:00,46.0,38.6,29.53,WNW,292,3.4,4.9,75,0.00,,,0.26,VWS V14.01,2013-12-19 15:15:00,
2013-12-19 07:16:00,46.0,38.6,29.53,WNW,292,3.4,4.9,75,0.00,,,0.26,VWS V14.01,2013-12-19 15:16:00,
2013-12-19 07:17:00,46.0,38.2,29.53,WNW,292,5.4,5.4,74,0.00,,,0.26,VWS V14.01,2013-12-19 15:17:00,
2013-12-19 07:18:00,46.0,38.2,29.53,WNW,292,3.4,5.4,74,0.00,,,0.26,VWS V14.01,2013-12-19 15:18:00,
2013-12-19 07:19:00,46.0,38.2,29.53,WNW,292,3.4,5.4,74,0.00,,,0.26,VWS V14.01,2013-12-19 15:19:00,
2013-12-19 07:20:00,46.0,38.2,29.53,West,270,3.4,3.6,74,0.00,,,0.26,VWS V14.01,2013-12-19 15:20:00,
2013-12-19 07:21:00,46.0,38.2,29.53,WNW,292,3.6,3.6,74,0.00,,,0.26,VWS V14.01,2013-12-19 15:21:00,
2013-12-19 07:22:00,46.0,38.2,29.53,West,270,5.4,5.4,74,0.00,,,0.26,VWS V14.01,2013-12-19 15:22:00,
2013-12-19 07:23:00,46.0,38.2,29.53,WNW,292,3.1,5.4,74,0.00,,,0.26,VWS V14.01,2013-12-19 15:23:00,
2013-12-19 07:24:00,46.0,38.2,29.53,WNW,292,3.4,5.4,74,0.00,,,0.26,VWS V14.01,2013-12-19 15:24:00,
2013-12-19 07:25:00,46.2,38.1,29.53,West,270,4.0,5.4,73,0.00,,,0.26,VWS V14.01,2013-12-19 15:25:00,
2013-12-19 07:26:00,46.2,38.1,29.53,West,270,4.0,4.9,73,0.00,,,0.26,VWS V14.01,2013-12-19 15:26:00,
2013-12-19 07:27:00,46.2,38.1,29.53,WNW,292,3.1,4.9,73,0.00,,,0.26,VWS V14.01,2013-12-19 15:27:00,
2013-12-19 07:28:00,46.2,38.1,29.53,WNW,292,4.0,4.9,73,0.00,,,0.26,VWS V14.01,2013-12-19 15:28:00,
2013-12-19 07:29:00,46.2,38.1,29.53,West,270,4.0,4.0,73,0.00,,,0.26,VWS V14.01,2013-12-19 15:29:00,
2013-12-19 07:30:00,46.2,38.1,29.53,WSW,248,4.7,4.7,73,0.00,,,0.26,VWS V14.01,2013-12-19 15:30:00,
2013-12-19 07:31:00,46.2,38.1,29.53,WSW,248,4.7,4.7,73,0.00,,,0.26,VWS V14.01,2013-12-19 15:31:00,
2013-12-19 07:32:00,46.2,38.1,29.53,WNW,292,4.9,4.9,73,0.00,,,0.26,VWS V14.01,2013-12-19 15:32:00,
2013-12-19 07:33:00,46.4,38.2,29.53,West,270,3.6,4.9,73,0.00,,,0.26,VWS V14.01,2013-12-19 15:33:00,
2013-12-19 07:34:00,46.4,38.2,29.53,WNW,292,4.0,4.9,73,0.00,,,0.26,VWS V14.01,2013-12-19 15:34:00,
2013-12-19 07:35:00,46.6,38.0,29.53,West,270,5.4,5.4,72,0.00,,,0.26,VWS V14.01,2013-12-19 15:35:00,
2013-12-19 07:36:00,46.8,38.2,29.53,WNW,292,4.0,5.4,72,0.00,,,0.26,VWS V14.01,2013-12-19 15:36:00,
2013-12-19 07:37:00,46.8,38.2,29.53,WNW,292,5.4,5.4,72,0.00,,,0.26,VWS V14.01,2013-12-19 15:37:00,
2013-12-19 07:38:00,46.9,38.4,29.53,West,270,2.7,5.4,72,0.00,,,0.26,VWS V14.01,2013-12-19 15:38:00,
2013-12-19 07:39:00,46.9,38.4,29.53,WNW,292,3.8,5.4,72,0.00,,,0.26,VWS V14.01,2013-12-19 15:39:00,
2013-12-19 07:40:00,47.1,38.2,29.53,West,270,4.9,5.4,71,0.00,,,0.26,VWS V14.01,2013-12-19 15:40:00,
2013-12-19 07:41:00,47.1,38.2,29.53,West,270,4.9,5.4,71,0.00,,,0.26,VWS V14.01,2013-12-19 15:41:00,
2013-12-19 07:42:00,47.3,38.0,29.53,WNW,292,4.3,4.9,70,0.00,,,0.26,VWS V14.01,2013-12-19 15:42:00,
2013-12-19 07:43:00,47.3,38.0,29.53,West,270,5.6,5.6,70,0.00,,,0.26,VWS V14.01,2013-12-19 15:43:00,
2013-12-19 07:44:00,47.3,38.0,29.53,West,270,2.7,5.6,70,0.00,,,0.26,VWS V14.01,2013-12-19 15:44:00,
2013-12-19 07:45:00,47.5,38.2,29.53,WNW,292,2.0,5.6,70,0.00,,,0.26,VWS V14.01,2013-12-19 15:45:00,
2013-12-19 07:46:00,47.5,38.2,29.53,WSW,248,3.6,5.6,70,0.00,,,0.26,VWS V14.01,2013-12-19 15:46:00,
2013-12-19 07:47:00,47.5,38.2,29.53,WNW,292,2.7,3.6,70,0.00,,,0.26,VWS V14.01,2013-12-19 15:47:00,
2013-12-19 07:48:00,47.5,38.2,29.53,West,270,3.8,3.8,70,0.00,,,0.26,VWS V14.01,2013-12-19 15:48:00,
2013-12-19 07:49:00,47.7,38.4,29.53,West,270,3.8,3.8,70,0.00,,,0.26,VWS V14.01,2013-12-19 15:49:00,
2013-12-19 07:50:00,47.8,38.2,29.53,WSW,248,3.4,3.8,69,0.00,,,0.26,VWS V14.01,2013-12-19 15:50:00,
2013-12-19 07:51:00,47.8,38.2,29.53,West,270,1.3,3.8,69,0.00,,,0.26,VWS V14.01,2013-12-19 15:51:00,
2013-12-19 07:52:00,48.0,38.3,29.53,West,270,1.1,3.8,69,0.00,,,0.26,VWS V14.01,2013-12-19 15:52:00,
2013-12-19 07:53:00,48.0,38.3,29.53,WSW,248,2.0,3.4,69,0.00,,,0.26,VWS V14.01,2013-12-19 15:53:00,
2013-12-19 07:54:00,48.0,38.3,29.53,WSW,248,2.5,3.4,69,0.00,,,0.26,VWS V14.01,2013-12-19 15:54:00,
2013-12-19 07:55:00,48.4,37.9,29.53,WNW,292,2.0,2.5,67,0.00,,,0.26,VWS V14.01,2013-12-19 15:55:00,
2013-12-19 07:56:00,48.4,37.9,29.53,WNW,292,2.0,2.5,67,0.00,,,0.26,VWS V14.01,2013-12-19 15:56:00,
2013-12-19 07:57:00,48.4,37.9,29.53,West,270,3.6,3.6,67,0.00,,,0.26,VWS V14.01,2013-12-19 15:57:00,
2013-12-19 07:58:00,48.7,37.9,29.53,West,270,4.0,4.0,66,0.00,,,0.26,VWS V14.01,2013-12-19 15:58:00,
2013-12-19 07:59:00,48.9,38.1,29.53,WSW,248,3.1,4.0,66,0.00,,,0.26,VWS V14.01,2013-12-19 15:59:00,
2013-12-19 08:00:00,49.1,37.9,29.53,West,270,3.1,4.3,65,0.00,,,0.26,VWS V14.01,2013-12-19 16:00:00,
2013-12-19 08:01:00,49.1,37.9,29.53,West,270,4.3,4.3,65,0.00,,,0.26,VWS V14.01,2013-12-19 16:01:00,
2013-12-19 08:02:00,49.1,37.9,29.53,WNW,292,2.5,4.3,65,0.00,,,0.26,VWS V14.01,2013-12-19 16:02:00,
2013-12-19 08:03:00,49.1,37.9,29.53,WNW,292,4.0,4.3,65,0.00,,,0.26,VWS V14.01,2013-12-19 16:03:00,
2013-12-19 08:04:00,49.1,37.9,29.53,WNW,292,3.4,4.3,65,0.00,,,0.26,VWS V14.01,2013-12-19 16:04:00,
2013-12-19 08:05:00,49.3,37.2,29.53,WNW,292,3.8,4.0,63,0.00,,,0.26,VWS V14.01,2013-12-19 16:05:00,
2013-12-19 08:06:00,49.5,37.8,29.53,West,270,2.9,4.0,64,0.00,,,0.26,VWS V14.01,2013-12-19 16:06:00,
2013-12-19 08:07:00,49.5,37.8,29.53,West,270,2.5,3.8,64,0.00,,,0.26,VWS V14.01,2013-12-19 16:07:00,
2013-12-19 08:08:00,49.6,38.0,29.53,West,270,2.5,3.8,64,0.00,,,0.26,VWS V14.01,2013-12-19 16:08:00,
2013-12-19 08:10:00,49.6,38.0,29.53,West,270,3.6,3.6,64,0.00,,,0.26,VWS V14.01,2013-12-19 16:10:00,
2013-12-19 08:11:00,49.6,38.0,29.53,West,270,3.6,3.6,64,0.00,,,0.26,VWS V14.01,2013-12-19 16:11:00,
2013-12-19 08:12:00,50.0,37.1,29.53,West,270,3.6,3.6,61,0.00,,,0.26,VWS V14.01,2013-12-19 16:12:00,
2013-12-19 08:13:00,50.0,37.1,29.53,West,270,5.8,5.8,61,0.00,,,0.26,VWS V14.01,2013-12-19 16:13:00,
2013-12-19 08:14:00,50.2,37.3,29.53,WNW,292,4.3,5.8,61,0.00,,,0.26,VWS V14.01,2013-12-19 16:14:00,
2013-12-19 08:15:00,50.2,37.3,29.53,WNW,292,3.4,5.8,61,0.00,,,0.26,VWS V14.01,2013-12-19 16:15:00,
2013-12-19 08:16:00,50.2,37.3,29.53,WSW,248,4.3,5.8,61,0.00,,,0.26,VWS V14.01,2013-12-19 16:16:00,
2013-12-19 08:17:00,50.4,37.0,29.53,WNW,292,3.1,5.8,60,0.00,,,0.26,VWS V14.01,2013-12-19 16:17:00,
2013-12-19 08:18:00,50.4,37.0,29.53,WNW,292,3.1,4.3,60,0.00,,,0.26,VWS V14.01,2013-12-19 16:18:00,
2013-12-19 08:19:00,50.2,36.8,29.53,WNW,292,3.8,4.3,60,0.00,,,0.26,VWS V14.01,2013-12-19 16:19:00,
2013-12-19 08:20:00,50.2,37.3,29.53,West,270,6.0,6.0,61,0.00,,,0.26,VWS V14.01,2013-12-19 16:20:00,
2013-12-19 08:21:00,50.2,37.3,29.53,West,270,3.6,6.0,61,0.00,,,0.26,VWS V14.01,2013-12-19 16:21:00,
2013-12-19 08:22:00,50.2,36.8,29.53,West,270,5.4,6.0,60,0.00,,,0.26,VWS V14.01,2013-12-19 16:22:00,
2013-12-19 08:23:00,50.2,36.8,29.53,WNW,292,5.6,6.0,60,0.00,,,0.26,VWS V14.01,2013-12-19 16:23:00,
2013-12-19 08:24:00,50.2,36.8,29.53,WNW,292,6.0,6.0,60,0.00,,,0.26,VWS V14.01,2013-12-19 16:24:00,
2013-12-19 08:25:00,50.2,36.8,29.53,NW,315,4.9,6.0,60,0.00,,,0.26,VWS V14.01,2013-12-19 16:25:00,
2013-12-19 08:26:00,50.2,36.8,29.53,NW,315,4.9,6.0,60,0.00,,,0.26,VWS V14.01,2013-12-19 16:26:00,
2013-12-19 08:27:00,50.2,36.8,29.53,WNW,292,3.1,6.0,60,0.00,,,0.26,VWS V14.01,2013-12-19 16:27:00,
2013-12-19 08:28:00,50.2,36.8,29.53,WSW,248,6.0,6.0,60,0.00,,,0.26,VWS V14.01,2013-12-19 16:28:00,
2013-12-19 08:29:00,50.4,37.0,29.53,WNW,292,4.3,6.0,60,0.00,,,0.26,VWS V14.01,2013-12-19 16:29:00,
2013-12-19 08:30:00,50.4,37.0,29.53,WSW,248,3.6,6.0,60,0.00,,,0.26,VWS V14.01,2013-12-19 16:30:00,
2013-12-19 08:31:00,50.4,37.0,29.53,NW,315,4.9,6.0,60,0.00,,,0.26,VWS V14.01,2013-12-19 16:31:00,
2013-12-19 08:32:00,50.4,37.0,29.53,West,270,4.3,4.9,60,0.00,,,0.26,VWS V14.01,2013-12-19 16:32:00,
2013-12-19 08:33:00,50.4,37.0,29.53,West,270,4.3,4.9,60,0.00,,,0.26,VWS V14.01,2013-12-19 16:33:00,
2013-12-19 08:34:00,50.4,37.0,29.53,West,270,4.3,4.9,60,0.00,,,0.26,VWS V14.01,2013-12-19 16:34:00,
2013-12-19 08:35:00,50.4,36.6,29.53,West,270,4.3,4.9,59,0.00,,,0.26,VWS V14.01,2013-12-19 16:35:00,
2013-12-19 08:37:00,50.4,36.6,29.53,West,270,4.3,4.3,59,0.00,,,0.26,VWS V14.01,2013-12-19 16:37:00,
2013-12-19 08:38:00,50.7,36.9,29.53,West,270,4.3,4.3,59,0.00,,,0.26,VWS V14.01,2013-12-19 16:38:00,
2013-12-19 08:39:00,50.7,36.9,29.53,West,270,4.3,4.3,59,0.00,,,0.26,VWS V14.01,2013-12-19 16:39:00,
2013-12-19 08:40:00,50.5,36.3,29.53,West,270,4.3,4.3,58,0.00,,,0.26,VWS V14.01,2013-12-19 16:40:00,
2013-12-19 08:41:00,50.5,36.3,29.53,West,270,4.3,4.3,58,0.00,,,0.26,VWS V14.01,2013-12-19 16:41:00,
2013-12-19 08:42:00,50.9,36.7,29.56,West,270,4.3,4.3,58,0.00,,,0.26,VWS V14.01,2013-12-19 16:42:00,
2013-12-19 08:43:00,50.9,36.7,29.56,West,270,4.3,4.3,58,0.00,,,0.26,VWS V14.01,2013-12-19 16:43:00,
2013-12-19 08:44:00,50.9,36.2,29.56,WNW,292,6.0,6.0,57,0.00,,,0.26,VWS V14.01,2013-12-19 16:44:00,
2013-12-19 08:45:00,50.7,36.1,29.56,WNW,292,6.0,6.0,57,0.00,,,0.26,VWS V14.01,2013-12-19 16:45:00,
2013-12-19 08:46:00,50.7,36.1,29.56,WNW,292,4.9,6.0,57,0.00,,,0.26,VWS V14.01,2013-12-19 16:46:00,
2013-12-19 08:47:00,50.9,36.2,29.56,WNW,292,4.9,6.0,57,0.00,,,0.26,VWS V14.01,2013-12-19 16:47:00,
2013-12-19 08:48:00,50.9,36.2,29.56,WNW,292,4.9,6.0,57,0.00,,,0.26,VWS V14.01,2013-12-19 16:48:00,
2013-12-19 08:49:00,50.9,36.7,29.56,WNW,292,4.9,6.0,58,0.00,,,0.26,VWS V14.01,2013-12-19 16:49:00,
2013-12-19 08:50:00,50.9,36.7,29.56,WNW,292,4.9,4.9,58,0.00,,,0.26,VWS V14.01,2013-12-19 16:50:00,
2013-12-19 08:51:00,50.9,36.7,29.56,WNW,292,4.9,4.9,58,0.00,,,0.26,VWS V14.01,2013-12-19 16:51:00,
2013-12-19 08:52:00,50.9,36.7,29.56,WNW,292,4.9,4.9,58,0.00,,,0.26,VWS V14.01,2013-12-19 16:52:00,
2013-12-19 08:53:00,50.9,36.7,29.56,WNW,292,4.9,4.9,58,0.00,,,0.26,VWS V14.01,2013-12-19 16:53:00,
2013-12-19 08:54:00,50.9,36.7,29.56,WNW,292,4.9,4.9,58,0.00,,,0.26,VWS V14.01,2013-12-19 16:54:00,
2013-12-19 08:55:00,50.9,36.7,29.56,WNW,292,4.9,4.9,58,0.00,,,0.26,VWS V14.01,2013-12-19 16:55:00,
2013-12-19 08:56:00,50.9,36.7,29.56,WNW,292,4.9,4.9,58,0.00,,,0.26,VWS V14.01,2013-12-19 16:56:00,
2013-12-19 08:57:00,50.9,36.7,29.56,WNW,292,4.9,4.9,58,0.00,,,0.26,VWS V14.01,2013-12-19 16:57:00,
2013-12-19 08:58:00,50.9,36.7,29.56,WNW,292,4.9,4.9,58,0.00,,,0.26,VWS V14.01,2013-12-19 16:58:00,
2013-12-19 08:59:00,51.4,36.7,29.56,WNW,292,4.9,4.9,57,0.00,,,0.26,VWS V14.01,2013-12-19 16:59:00,
2013-12-19 09:00:00,51.4,36.7,29.56,WNW,292,4.9,4.9,57,0.00,,,0.26,VWS V14.01,2013-12-19 17:00:00,
2013-12-19 09:01:00,51.4,36.7,29.56,WNW,292,4.9,4.9,57,0.00,,,0.26,VWS V14.01,2013-12-19 17:01:00,
2013-12-19 09:02:00,51.4,36.7,29.56,WNW,292,4.9,4.9,57,0.00,,,0.26,VWS V14.01,2013-12-19 17:02:00,
2013-12-19 09:03:00,51.4,36.7,29.56,WNW,292,4.9,4.9,57,0.00,,,0.26,VWS V14.01,2013-12-19 17:03:00,
2013-12-19 09:04:00,51.4,36.7,29.56,WNW,292,4.9,4.9,57,0.00,,,0.26,VWS V14.01,2013-12-19 17:04:00,
2013-12-19 09:05:00,51.4,36.7,29.56,WNW,292,4.9,4.9,57,0.00,,,0.26,VWS V14.01,2013-12-19 17:05:00,
2013-12-19 09:06:00,51.4,36.7,29.56,WNW,292,4.9,4.9,57,0.00,,,0.26,VWS V14.01,2013-12-19 17:06:00,
2013-12-19 09:07:00,51.4,36.7,29.56,WNW,292,4.9,4.9,57,0.00,,,0.26,VWS V14.01,2013-12-19 17:07:00,
2013-12-19 09:08:00,51.4,36.7,29.56,WNW,292,4.9,4.9,57,0.00,,,0.26,VWS V14.01,2013-12-19 17:08:00,
2013-12-19 09:09:00,51.4,36.7,29.56,WNW,292,4.9,4.9,57,0.00,,,0.26,VWS V14.01,2013-12-19 17:09:00,
2013-12-19 09:10:00,52.2,36.5,29.56,WNW,292,2.9,4.9,55,0.00,,,0.26,VWS V14.01,2013-12-19 17:10:00,
2013-12-19 09:11:00,52.2,36.5,29.56,WNW,292,1.6,4.9,55,0.00,,,0.26,VWS V14.01,2013-12-19 17:11:00,
2013-12-19 09:12:00,52.5,36.8,29.56,WNW,292,1.6,4.9,55,0.00,,,0.26,VWS V14.01,2013-12-19 17:12:00,
2013-12-19 09:13:00,52.5,36.8,29.56,WNW,292,3.6,4.9,55,0.00,,,0.26,VWS V14.01,2013-12-19 17:13:00,
2013-12-19 09:14:00,52.7,37.0,29.56,WNW,292,3.6,3.6,55,0.00,,,0.26,VWS V14.01,2013-12-19 17:14:00,
2013-12-19 09:15:00,52.9,36.7,29.56,WNW,292,6.0,6.0,54,0.00,,,0.26,VWS V14.01,2013-12-19 17:15:00,
2013-12-19 09:16:00,52.9,36.7,29.56,WNW,292,6.0,6.0,54,0.00,,,0.26,VWS V14.01,2013-12-19 17:16:00,
2013-12-19 09:17:00,52.9,36.7,29.56,SW,225,2.5,6.0,54,0.00,,,0.26,VWS V14.01,2013-12-19 17:17:00,
2013-12-19 09:18:00,52.9,36.7,29.56,WNW,292,4.7,6.0,54,0.00,,,0.26,VWS V14.01,2013-12-19 17:18:00,
2013-12-19 09:19:00,53.1,36.9,29.56,WNW,292,3.6,6.0,54,0.00,,,0.26,VWS V14.01,2013-12-19 17:19:00,
2013-12-19 09:20:00,53.1,36.9,29.56,NW,315,2.7,5.4,54,0.00,,,0.26,VWS V14.01,2013-12-19 17:20:00,
2013-12-19 09:21:00,53.1,36.9,29.56,NW,315,2.7,5.4,54,0.00,,,0.26,VWS V14.01,2013-12-19 17:21:00,
2013-12-19 09:22:00,53.4,37.2,29.56,NW,315,2.7,5.4,54,0.00,,,0.26,VWS V14.01,2013-12-19 17:22:00,
2013-12-19 09:23:00,53.4,37.2,29.56,WNW,292,3.6,5.4,54,0.00,,,0.26,VWS V14.01,2013-12-19 17:23:00,
2013-12-19 09:24:00,53.2,36.6,29.56,WNW,292,5.4,5.8,53,0.00,,,0.26,VWS V14.01,2013-12-19 17:24:00,
2013-12-19 09:25:00,53.2,36.6,29.56,WNW,292,5.4,5.8,53,0.00,,,0.26,VWS V14.01,2013-12-19 17:25:00,
2013-12-19 09:26:00,53.2,36.6,29.56,WNW,292,6.0,6.0,53,0.00,,,0.26,VWS V14.01,2013-12-19 17:26:00,
2013-12-19 09:27:00,53.2,36.6,29.56,NNW,338,7.2,7.2,53,0.00,,,0.26,VWS V14.01,2013-12-19 17:27:00,
2013-12-19 09:28:00,53.1,36.4,29.56,NW,315,3.8,7.2,53,0.00,,,0.26,VWS V14.01,2013-12-19 17:28:00,
2013-12-19 09:29:00,52.9,36.2,29.56,WNW,292,3.6,7.2,53,0.00,,,0.26,VWS V14.01,2013-12-19 17:29:00,
2013-12-19 09:30:00,52.9,36.2,29.56,WNW,292,2.7,7.2,53,0.00,,,0.26,VWS V14.01,2013-12-19 17:30:00,
2013-12-19 09:31:00,53.2,37.0,29.56,WNW,292,3.4,3.8,54,0.00,,,0.26,VWS V14.01,2013-12-19 17:31:00,
2013-12-19 09:32:00,53.2,37.0,29.56,NW,315,4.5,4.5,54,0.00,,,0.26,VWS V14.01,2013-12-19 17:32:00,
2013-12-19 09:33:00,53.4,36.7,29.56,NW,315,4.5,4.5,53,0.00,,,0.26,VWS V14.01,2013-12-19 17:33:00,
2013-12-19 09:34:00,53.4,36.7,29.56,NW,315,3.1,4.5,53,0.00,,,0.26,VWS V14.01,2013-12-19 17:34:00,
2013-12-19 09:35:00,53.4,36.7,29.56,WNW,292,4.0,4.5,53,0.00,,,0.26,VWS V14.01,2013-12-19 17:35:00,
2013-12-19 09:36:00,53.4,36.7,29.56,WNW,292,4.0,4.5,53,0.00,,,0.26,VWS V14.01,2013-12-19 17:36:00,
2013-12-19 09:37:00,53.4,36.7,29.56,WNW,292,5.6,5.6,53,0.00,,,0.26,VWS V14.01,2013-12-19 17:37:00,
2013-12-19 09:38:00,53.8,36.6,29.56,WNW,292,1.6,5.6,52,0.00,,,0.26,VWS V14.01,2013-12-19 17:38:00,
2013-12-19 09:39:00,53.8,36.6,29.56,WNW,292,1.6,5.6,52,0.00,,,0.26,VWS V14.01,2013-12-19 17:39:00,
2013-12-19 09:40:00,54.3,37.1,29.56,NW,315,10.3,10.3,52,0.00,,,0.26,VWS V14.01,2013-12-19 17:40:00,
2013-12-19 09:41:00,54.3,37.1,29.56,NW,315,3.1,10.3,52,0.00,,,0.26,VWS V14.01,2013-12-19 17:41:00,
2013-12-19 09:42:00,54.1,35.9,29.59,NNW,338,6.0,10.3,50,0.00,,,0.26,VWS V14.01,2013-12-19 17:42:00,
2013-12-19 09:43:00,54.1,35.9,29.59,NNW,338,12.8,12.8,50,0.00,,,0.26,VWS V14.01,2013-12-19 17:43:00,
2013-12-19 09:44:00,53.8,34.6,29.59,NNW,338,12.8,12.8,48,0.00,,,0.26,VWS V14.01,2013-12-19 17:44:00,
2013-12-19 09:45:00,53.8,35.1,29.59,NNW,338,3.4,12.8,49,0.00,,,0.26,VWS V14.01,2013-12-19 17:45:00,
2013-12-19 09:46:00,53.8,35.1,29.59,NW,315,8.1,12.8,49,0.00,,,0.26,VWS V14.01,2013-12-19 17:46:00,
2013-12-19 09:47:00,53.8,35.1,29.59,NW,315,8.1,12.8,49,0.00,,,0.26,VWS V14.01,2013-12-19 17:47:00,
2013-12-19 09:48:00,53.8,35.1,29.59,NW,315,8.1,12.8,49,0.00,,,0.26,VWS V14.01,2013-12-19 17:48:00,
2013-12-19 09:49:00,53.6,34.9,29.59,North,0,8.5,8.5,49,0.00,,,0.26,VWS V14.01,2013-12-19 17:49:00,
2013-12-19 09:50:00,53.6,34.9,29.59,NNW,338,6.3,8.5,49,0.00,,,0.26,VWS V14.01,2013-12-19 17:50:00,
2013-12-19 09:51:00,53.6,34.9,29.59,NNW,338,6.3,8.5,49,0.00,,,0.26,VWS V14.01,2013-12-19 17:51:00,
2013-12-19 09:52:00,53.8,35.1,29.59,NNW,338,5.6,8.5,49,0.00,,,0.26,VWS V14.01,2013-12-19 17:52:00,
2013-12-19 09:53:00,53.8,35.1,29.59,NNW,338,6.0,7.6,49,0.00,,,0.26,VWS V14.01,2013-12-19 17:53:00,
2013-12-19 09:54:00,53.8,35.1,29.59,NW,315,6.3,6.3,49,0.00,,,0.26,VWS V14.01,2013-12-19 17:54:00,
2013-12-19 09:55:00,53.8,35.1,29.59,NNW,338,9.2,9.2,49,0.00,,,0.26,VWS V14.01,2013-12-19 17:55:00,
2013-12-19 09:56:00,53.8,35.1,29.59,NW,315,6.5,9.2,49,0.00,,,0.26,VWS V14.01,2013-12-19 17:56:00,
2013-12-19 09:57:00,53.8,35.1,29.56,NW,315,4.3,9.2,49,0.00,,,0.26,VWS V14.01,2013-12-19 17:57:00,
2013-12-19 09:58:00,53.6,34.9,29.56,NNW,338,9.6,9.6,49,0.00,,,0.26,VWS V14.01,2013-12-19 17:58:00,
2013-12-19 09:59:00,53.6,34.9,29.56,NNW,338,6.0,9.6,49,0.00,,,0.26,VWS V14.01,2013-12-19 17:59:00,
2013-12-19 10:00:00,53.8,34.6,29.56,NNW,338,6.0,9.6,48,0.00,,,0.26,VWS V14.01,2013-12-19 18:00:00,
2013-12-19 10:01:00,53.6,34.9,29.56,NNW,338,6.0,9.6,49,0.00,,,0.26,VWS V14.01,2013-12-19 18:01:00,
2013-12-19 10:02:00,53.6,34.9,29.56,NNW,338,5.8,9.6,49,0.00,,,0.26,VWS V14.01,2013-12-19 18:02:00,
2013-12-19 10:03:00,53.8,35.1,29.56,NNW,338,5.4,6.0,49,0.00,,,0.26,VWS V14.01,2013-12-19 18:03:00,
2013-12-19 10:04:00,53.8,35.1,29.56,NNW,338,7.6,7.6,49,0.00,,,0.26,VWS V14.01,2013-12-19 18:04:00,
2013-12-19 10:05:00,53.6,34.9,29.56,NW,315,5.4,7.6,49,0.00,,,0.26,VWS V14.01,2013-12-19 18:05:00,
2013-12-19 10:06:00,53.6,34.9,29.56,NW,315,5.4,7.6,49,0.00,,,0.26,VWS V14.01,2013-12-19 18:06:00,
2013-12-19 10:07:00,53.6,34.9,29.56,NW,315,4.9,7.6,49,0.00,,,0.26,VWS V14.01,2013-12-19 18:07:00,
2013-12-19 10:08:00,53.8,34.6,29.56,WNW,292,6.0,7.2,48,0.00,,,0.26,VWS V14.01,2013-12-19 18:08:00,
2013-12-19 10:09:00,53.8,34.6,29.56,NNW,338,9.6,9.6,48,0.00,,,0.26,VWS V14.01,2013-12-19 18:09:00,
2013-12-19 10:10:00,54.0,35.2,29.56,NW,315,7.8,9.6,49,0.00,,,0.26,VWS V14.01,2013-12-19 18:10:00,
2013-12-19 10:11:00,54.0,35.2,29.56,NNW,338,6.3,9.6,49,0.00,,,0.26,VWS V14.01,2013-12-19 18:11:00,
2013-12-19 10:12:00,53.8,35.1,29.59,NW,315,4.9,9.6,49,0.00,,,0.26,VWS V14.01,2013-12-19 18:12:00,
2013-12-19 10:13:00,53.8,35.1,29.59,NNW,338,7.2,9.6,49,0.00,,,0.26,VWS V14.01,2013-12-19 18:13:00,
2013-12-19 10:14:00,54.1,35.4,29.59,NNW,338,5.8,7.2,49,0.00,,,0.26,VWS V14.01,2013-12-19 18:14:00,
2013-12-19 10:15:00,54.1,35.4,29.59,NW,315,8.1,8.1,49,0.00,,,0.26,VWS V14.01,2013-12-19 18:15:00,
2013-12-19 10:16:00,54.1,35.4,29.59,NNW,338,5.6,8.1,49,0.00,,,0.26,VWS V14.01,2013-12-19 18:16:00,
2013-12-19 10:17:00,54.5,35.8,29.59,NNW,338,5.6,8.1,49,0.00,,,0.26,VWS V14.01,2013-12-19 18:17:00,
2013-12-19 10:18:00,54.5,35.8,29.59,NNW,338,7.8,8.1,49,0.00,,,0.26,VWS V14.01,2013-12-19 18:18:00,
2013-12-19 10:19:00,54.5,35.2,29.59,NNE,22,7.2,7.8,48,0.00,,,0.26,VWS V14.01,2013-12-19 18:19:00,
2013-12-19 10:20:00,55.0,35.7,29.59,NNE,22,2.7,7.8,48,0.00,,,0.26,VWS V14.01,2013-12-19 18:20:00,
2013-12-19 10:21:00,55.0,35.7,29.59,NNW,338,3.8,7.8,48,0.00,,,0.26,VWS V14.01,2013-12-19 18:21:00,
2013-12-19 10:22:00,55.0,35.2,29.59,NNW,338,3.8,7.2,47,0.00,,,0.26,VWS V14.01,2013-12-19 18:22:00,
2013-12-19 10:23:00,55.0,35.2,29.59,NNW,338,7.8,7.8,47,0.00,,,0.26,VWS V14.01,2013-12-19 18:23:00,
2013-12-19 10:24:00,54.9,35.0,29.59,NNW,338,6.3,7.8,47,0.00,,,0.26,VWS V14.01,2013-12-19 18:24:00,
2013-12-19 10:25:00,54.9,35.0,29.59,NNE,22,3.8,7.8,47,0.00,,,0.26,VWS V14.01,2013-12-19 18:25:00,
2013-12-19 10:26:00,54.9,35.0,29.59,NNE,22,3.8,6.3,47,0.00,,,0.26,VWS V14.01,2013-12-19 18:26:00,
2013-12-19 10:27:00,54.9,35.0,29.59,NNE,22,3.8,3.8,47,0.00,,,0.26,VWS V14.01,2013-12-19 18:27:00,
2013-12-19 10:28:00,55.2,35.4,29.59,NNE,22,3.8,3.8,47,0.00,,,0.26,VWS V14.01,2013-12-19 18:28:00,
2013-12-19 10:29:00,55.4,35.5,29.59,NNE,22,3.8,3.8,47,0.00,,,0.26,VWS V14.01,2013-12-19 18:29:00,
2013-12-19 10:30:00,55.4,35.5,29.59,NNE,22,3.8,3.8,47,0.00,,,0.26,VWS V14.01,2013-12-19 18:30:00,
2013-12-19 10:31:00,55.8,35.8,29.59,NNW,338,4.3,4.3,47,0.00,,,0.26,VWS V14.01,2013-12-19 18:31:00,
2013-12-19 10:33:00,55.8,35.8,29.59,NNW,338,2.7,4.3,47,0.00,,,0.26,VWS V14.01,2013-12-19 18:33:00,
2013-12-19 10:34:00,55.8,35.8,29.59,North,0,3.8,4.3,47,0.00,,,0.26,VWS V14.01,2013-12-19 18:34:00,
2013-12-19 10:35:00,56.5,36.5,29.59,NNW,338,3.8,4.3,47,0.00,,,0.26,VWS V14.01,2013-12-19 18:35:00,
2013-12-19 10:36:00,56.5,36.5,29.59,NNW,338,3.8,4.3,47,0.00,,,0.26,VWS V14.01,2013-12-19 18:36:00,
2013-12-19 10:37:00,56.3,35.2,29.59,NNW,338,5.8,5.8,45,0.00,,,0.26,VWS V14.01,2013-12-19 18:37:00,
2013-12-19 10:38:00,56.3,35.2,29.59,NNW,338,4.7,5.8,45,0.00,,,0.26,VWS V14.01,2013-12-19 18:38:00,
2013-12-19 10:39:00,56.3,35.2,29.59,NNW,338,4.7,5.8,45,0.00,,,0.26,VWS V14.01,2013-12-19 18:39:00,
2013-12-19 10:40:00,56.1,35.1,29.59,NNW,338,6.3,6.3,45,0.00,,,0.26,VWS V14.01,2013-12-19 18:40:00,
2013-12-19 10:41:00,56.1,35.1,29.59,WNW,292,2.9,6.3,45,0.00,,,0.26,VWS V14.01,2013-12-19 18:41:00,
2013-12-19 10:42:00,56.5,35.4,29.59,NNW,338,3.6,3.6,45,0.00,,,0.26,VWS V14.01,2013-12-19 18:42:00,
2013-12-19 10:43:00,56.5,35.4,29.59,NNW,338,3.8,3.8,45,0.00,,,0.26,VWS V14.01,2013-12-19 18:43:00,
2013-12-19 10:44:00,56.7,35.6,29.59,NNW,338,7.8,7.8,45,0.00,,,0.26,VWS V14.01,2013-12-19 18:44:00,
2013-12-19 10:45:00,56.7,35.0,29.59,NNW,338,6.5,6.5,44,0.00,,,0.26,VWS V14.01,2013-12-19 18:45:00,
2013-12-19 10:46:00,56.7,35.0,29.59,NNW,338,6.5,6.5,44,0.00,,,0.26,VWS V14.01,2013-12-19 18:46:00,
2013-12-19 10:47:00,56.7,35.0,29.59,NNE,22,7.6,7.6,44,0.00,,,0.26,VWS V14.01,2013-12-19 18:47:00,
2013-12-19 10:48:00,56.7,35.0,29.59,NNW,338,4.9,6.3,44,0.00,,,0.26,VWS V14.01,2013-12-19 18:48:00,
2013-12-19 10:49:00,56.7,35.0,29.59,NNW,338,4.9,4.9,44,0.00,,,0.26,VWS V14.01,2013-12-19 18:49:00,
2013-12-19 10:50:00,56.3,34.1,29.59,NNW,338,6.3,7.6,43,0.00,,,0.26,VWS V14.01,2013-12-19 18:50:00,
2013-12-19 10:51:00,56.3,34.1,29.59,NNE,22,5.4,6.3,43,0.00,,,0.26,VWS V14.01,2013-12-19 18:51:00,
2013-12-19 10:52:00,56.3,34.1,29.59,NNE,22,5.4,6.3,43,0.00,,,0.26,VWS V14.01,2013-12-19 18:52:00,
2013-12-19 10:53:00,56.3,34.1,29.59,NNE,22,5.6,5.6,43,0.00,,,0.26,VWS V14.01,2013-12-19 18:53:00,
2013-12-19 10:54:00,56.7,34.4,29.59,NNW,338,4.3,5.6,43,0.00,,,0.26,VWS V14.01,2013-12-19 18:54:00,
2013-12-19 10:55:00,56.7,34.4,29.59,NNW,338,6.3,6.3,43,0.00,,,0.26,VWS V14.01,2013-12-19 18:55:00,
2013-12-19 10:56:00,56.7,33.8,29.59,NNE,22,5.8,6.3,42,0.00,,,0.26,VWS V14.01,2013-12-19 18:56:00,
2013-12-19 10:57:00,56.7,33.8,29.59,NNE,22,6.3,6.3,42,0.00,,,0.26,VWS V14.01,2013-12-19 18:57:00,
2013-12-19 10:58:00,56.7,33.8,29.59,NNE,22,5.6,6.3,42,0.00,,,0.26,VWS V14.01,2013-12-19 18:58:00,
2013-12-19 10:59:00,56.7,33.8,29.59,NNE,22,5.6,5.6,42,0.00,,,0.26,VWS V14.01,2013-12-19 18:59:00,
2013-12-19 11:00:00,56.8,34.0,29.59,North,0,8.7,8.7,42,0.00,,,0.26,VWS V14.01,2013-12-19 19:00:00,
2013-12-19 11:01:00,56.8,34.0,29.59,North,0,8.7,8.7,42,0.00,,,0.26,VWS V14.01,2013-12-19 19:01:00,
2013-12-19 11:02:00,56.8,34.0,29.59,North,0,4.9,8.7,42,0.00,,,0.26,VWS V14.01,2013-12-19 19:02:00,
2013-12-19 11:03:00,56.8,34.0,29.59,North,0,4.9,4.9,42,0.00,,,0.26,VWS V14.01,2013-12-19 19:03:00,
2013-12-19 11:04:00,56.8,34.0,29.59,NNE,22,7.4,7.4,42,0.00,,,0.26,VWS V14.01,2013-12-19 19:04:00,
2013-12-19 11:05:00,57.2,35.5,29.59,NNW,338,4.3,7.4,44,0.00,,,0.26,VWS V14.01,2013-12-19 19:05:00,
2013-12-19 11:06:00,57.2,35.5,29.59,SSE,158,1.6,7.4,44,0.00,,,0.26,VWS V14.01,2013-12-19 19:06:00,
2013-12-19 11:07:00,58.5,37.2,29.59,SSE,158,0.0,1.6,45,0.00,,,0.26,VWS V14.01,2013-12-19 19:07:00,
2013-12-19 11:08:00,58.5,37.2,29.59,SE,135,3.4,3.4,45,0.00,,,0.26,VWS V14.01,2013-12-19 19:08:00,
2013-12-19 11:09:00,58.5,37.2,29.59,SE,135,2.0,3.4,45,0.00,,,0.26,VWS V14.01,2013-12-19 19:09:00,
2013-12-19 11:10:00,58.5,37.2,29.59,ESE,112,3.8,3.8,45,0.00,,,0.26,VWS V14.01,2013-12-19 19:10:00,
2013-12-19 11:11:00,58.5,37.2,29.59,ENE,68,2.9,3.8,45,0.00,,,0.26,VWS V14.01,2013-12-19 19:11:00,
2013-12-19 11:12:00,60.3,38.8,29.59,ENE,68,3.4,3.8,45,0.00,,,0.26,VWS V14.01,2013-12-19 19:12:00,
2013-12-19 11:13:00,60.3,38.8,29.59,NE,45,6.0,6.0,45,0.00,,,0.26,VWS V14.01,2013-12-19 19:13:00,
2013-12-19 11:14:00,60.3,38.8,29.59,NE,45,6.0,6.0,45,0.00,,,0.26,VWS V14.01,2013-12-19 19:14:00,
2013-12-19 11:15:00,60.1,38.7,29.59,SSW,202,1.6,6.0,45,0.00,,,0.26,VWS V14.01,2013-12-19 19:15:00,
2013-12-19 11:16:00,60.1,38.7,29.59,ESE,112,7.2,7.2,45,0.00,,,0.26,VWS V14.01,2013-12-19 19:16:00,
2013-12-19 11:17:00,60.4,39.0,29.59,ESE,112,1.6,7.2,45,0.00,,,0.26,VWS V14.01,2013-12-19 19:17:00,
2013-12-19 11:18:00,60.4,39.0,29.59,NE,45,3.1,7.2,45,0.00,,,0.26,VWS V14.01,2013-12-19 19:18:00,
2013-12-19 11:19:00,60.6,39.2,29.59,NE,45,2.9,3.1,45,0.00,,,0.26,VWS V14.01,2013-12-19 19:19:00,
2013-12-19 11:20:00,60.6,39.2,29.59,ESE,112,3.4,3.4,45,0.00,,,0.26,VWS V14.01,2013-12-19 19:20:00,
2013-12-19 11:21:00,60.6,39.2,29.59,SE,135,0.0,3.4,45,0.00,,,0.26,VWS V14.01,2013-12-19 19:21:00,
2013-12-19 11:22:00,60.6,39.2,29.59,SE,135,2.7,3.4,45,0.00,,,0.26,VWS V14.01,2013-12-19 19:22:00,
2013-12-19 11:23:00,61.0,38.9,29.59,SE,135,2.7,3.4,44,0.00,,,0.26,VWS V14.01,2013-12-19 19:23:00,
2013-12-19 11:24:00,61.0,38.9,29.59,SE,135,2.7,3.4,44,0.00,,,0.26,VWS V14.01,2013-12-19 19:24:00,
2013-12-19 11:25:00,61.0,38.9,29.59,ESE,112,3.6,3.6,44,0.00,,,0.26,VWS V14.01,2013-12-19 19:25:00,
2013-12-19 11:26:00,60.8,38.8,29.59,ESE,112,3.6,3.6,44,0.00,,,0.26,VWS V14.01,2013-12-19 19:26:00,
2013-12-19 11:27:00,60.8,38.8,29.59,East,90,4.9,4.9,44,0.00,,,0.26,VWS V14.01,2013-12-19 19:27:00,
2013-12-19 11:28:00,61.0,39.5,29.59,South,180,1.3,4.9,45,0.00,,,0.26,VWS V14.01,2013-12-19 19:28:00,
2013-12-19 11:29:00,61.0,39.5,29.59,SSW,202,1.1,4.9,45,0.00,,,0.26,VWS V14.01,2013-12-19 19:29:00,
2013-12-19 11:30:00,61.3,39.8,29.59,SSE,158,6.5,6.5,45,0.00,,,0.26,VWS V14.01,2013-12-19 19:30:00,
2013-12-19 11:31:00,61.5,40.0,29.59,SSE,158,4.9,6.5,45,0.00,,,0.26,VWS V14.01,2013-12-19 19:31:00,
2013-12-19 11:32:00,61.5,40.0,29.59,SSW,202,2.9,6.5,45,0.00,,,0.26,VWS V14.01,2013-12-19 19:32:00,
2013-12-19 11:33:00,61.3,39.8,29.59,South,180,2.7,6.5,45,0.00,,,0.26,VWS V14.01,2013-12-19 19:33:00,
2013-12-19 11:34:00,61.3,39.8,29.59,South,180,2.5,6.5,45,0.00,,,0.26,VWS V14.01,2013-12-19 19:34:00,
2013-12-19 11:35:00,61.0,39.5,29.59,ESE,112,2.0,2.7,45,0.00,,,0.26,VWS V14.01,2013-12-19 19:35:00,
2013-12-19 11:36:00,61.0,39.5,29.59,SSW,202,3.1,3.1,45,0.00,,,0.26,VWS V14.01,2013-12-19 19:36:00,
2013-12-19 11:37:00,61.3,39.8,29.59,South,180,2.5,3.1,45,0.00,,,0.26,VWS V14.01,2013-12-19 19:37:00,
2013-12-19 11:38:00,62.1,40.5,29.59,SSE,158,2.0,3.1,45,0.00,,,0.26,VWS V14.01,2013-12-19 19:38:00,
2013-12-19 11:39:00,62.1,40.5,29.59,SE,135,4.3,4.3,45,0.00,,,0.26,VWS V14.01,2013-12-19 19:39:00,
2013-12-19 11:40:00,62.1,39.9,29.59,SSW,202,2.0,4.3,44,0.00,,,0.26,VWS V14.01,2013-12-19 19:40:00,
2013-12-19 11:41:00,62.1,39.9,29.59,SSW,202,2.5,2.5,44,0.00,,,0.26,VWS V14.01,2013-12-19 19:41:00,
2013-12-19 11:42:00,61.7,39.6,29.59,SSE,158,2.5,2.5,44,0.00,,,0.26,VWS V14.01,2013-12-19 19:42:00,
2013-12-19 11:43:00,61.7,39.6,29.59,SE,135,1.3,2.5,44,0.00,,,0.26,VWS V14.01,2013-12-19 19:43:00,
2013-12-19 11:44:00,62.1,39.9,29.59,SSW,202,1.6,2.5,44,0.00,,,0.26,VWS V14.01,2013-12-19 19:44:00,
2013-12-19 11:45:00,62.2,40.1,29.59,SSW,202,1.6,2.5,44,0.00,,,0.26,VWS V14.01,2013-12-19 19:45:00,
2013-12-19 11:46:00,62.2,40.1,29.59,SSW,202,1.6,2.0,44,0.00,,,0.26,VWS V14.01,2013-12-19 19:46:00,
2013-12-19 11:47:00,62.4,40.2,29.59,SSW,202,1.6,1.6,44,0.00,,,0.26,VWS V14.01,2013-12-19 19:47:00,
2013-12-19 11:48:00,62.4,40.2,29.59,SSW,202,0.0,1.6,44,0.00,,,0.26,VWS V14.01,2013-12-19 19:48:00,
2013-12-19 11:49:00,62.8,40.6,29.59,SSE,158,2.9,2.9,44,0.00,,,0.26,VWS V14.01,2013-12-19 19:49:00,
2013-12-19 11:50:00,62.8,40.6,29.59,SSE,158,1.3,2.9,44,0.00,,,0.26,VWS V14.01,2013-12-19 19:50:00,
2013-12-19 11:51:00,62.8,40.6,29.59,SSE,158,1.3,2.9,44,0.00,,,0.26,VWS V14.01,2013-12-19 19:51:00,
2013-12-19 11:52:00,62.8,40.6,29.59,ENE,68,0.0,2.9,44,0.00,,,0.26,VWS V14.01,2013-12-19 19:52:00,
2013-12-19 11:53:00,63.7,40.8,29.59,ENE,68,0.0,0.0,43,0.00,,,0.26,VWS V14.01,2013-12-19 19:53:00,
2013-12-19 11:54:00,63.9,41.0,29.59,ENE,68,0.0,0.0,43,0.00,,,0.26,VWS V14.01,2013-12-19 19:54:00,
2013-12-19 11:55:00,63.9,41.0,29.59,ENE,68,0.0,0.0,43,0.00,,,0.26,VWS V14.01,2013-12-19 19:55:00,
2013-12-19 11:56:00,63.7,40.2,29.59,ENE,68,0.0,0.0,42,0.00,,,0.26,VWS V14.01,2013-12-19 19:56:00,
2013-12-19 11:57:00,63.7,40.2,29.59,ENE,68,0.0,0.0,42,0.00,,,0.26,VWS V14.01,2013-12-19 19:57:00,
2013-12-19 11:58:00,63.7,40.2,29.59,South,180,0.9,0.9,42,0.00,,,0.26,VWS V14.01,2013-12-19 19:58:00,
2013-12-19 11:59:00,63.7,40.2,29.59,South,180,0.9,0.9,42,0.00,,,0.26,VWS V14.01,2013-12-19 19:59:00,
2013-12-19 12:00:00,64.2,40.7,29.59,South,180,0.0,2.5,42,0.00,,,0.26,VWS V14.01,2013-12-19 20:00:00,
2013-12-19 12:01:00,64.4,40.2,29.59,SSE,158,3.4,3.4,41,0.00,,,0.26,VWS V14.01,2013-12-19 20:01:00,
2013-12-19 12:02:00,64.4,40.2,29.59,SSE,158,3.4,3.4,41,0.00,,,0.26,VWS V14.01,2013-12-19 20:02:00,
2013-12-19 12:03:00,64.6,39.7,29.59,South,180,4.7,4.7,40,0.00,,,0.26,VWS V14.01,2013-12-19 20:03:00,
2013-12-19 12:04:00,64.6,39.7,29.59,South,180,1.1,4.7,40,0.00,,,0.26,VWS V14.01,2013-12-19 20:04:00,
2013-12-19 12:05:00,64.8,39.9,29.59,NNE,22,2.0,4.7,40,0.00,,,0.26,VWS V14.01,2013-12-19 20:05:00,
2013-12-19 12:06:00,64.8,39.9,29.59,SSW,202,3.1,3.1,40,0.00,,,0.26,VWS V14.01,2013-12-19 20:06:00,
2013-12-19 12:07:00,64.8,39.2,29.59,SSW,202,3.1,3.1,39,0.00,,,0.26,VWS V14.01,2013-12-19 20:07:00,
2013-12-19 12:08:00,64.8,39.2,29.59,South,180,0.0,3.1,39,0.00,,,0.26,VWS V14.01,2013-12-19 20:08:00,
2013-12-19 12:09:00,64.8,39.2,29.59,South,180,0.0,3.1,39,0.00,,,0.26,VWS V14.01,2013-12-19 20:09:00,
2013-12-19 12:10:00,65.3,39.7,29.59,East,90,3.1,3.1,39,0.00,,,0.26,VWS V14.01,2013-12-19 20:10:00,
2013-12-19 12:11:00,65.3,39.7,29.59,East,90,3.1,3.1,39,0.00,,,0.26,VWS V14.01,2013-12-19 20:11:00,
2013-12-19 12:12:00,65.5,39.9,29.56,East,90,3.1,3.1,39,0.00,,,0.26,VWS V14.01,2013-12-19 20:12:00,
2013-12-19 12:13:00,65.5,39.9,29.56,East,90,3.1,3.1,39,0.00,,,0.26,VWS V14.01,2013-12-19 20:13:00,
2013-12-19 12:14:00,65.8,39.5,29.56,East,90,3.1,3.1,38,0.00,,,0.26,VWS V14.01,2013-12-19 20:14:00,
2013-12-19 12:15:00,66.2,39.9,29.56,East,90,3.1,3.1,38,0.00,,,0.26,VWS V14.01,2013-12-19 20:15:00,
2013-12-19 12:16:00,66.2,39.9,29.56,NNW,338,3.4,3.4,38,0.00,,,0.26,VWS V14.01,2013-12-19 20:16:00,
2013-12-19 12:17:00,64.4,36.2,29.56,NNW,338,4.7,4.7,35,0.00,,,0.26,VWS V14.01,2013-12-19 20:17:00,
2013-12-19 12:18:00,64.4,36.2,29.56,NE,45,4.0,4.7,35,0.00,,,0.26,VWS V14.01,2013-12-19 20:18:00,
2013-12-19 12:19:00,64.2,36.7,29.56,NE,45,4.0,4.7,36,0.00,,,0.26,VWS V14.01,2013-12-19 20:19:00,
2013-12-19 12:20:00,63.0,34.9,29.56,NNE,22,6.3,6.3,35,0.00,,,0.26,VWS V14.01,2013-12-19 20:20:00,
2013-12-19 12:21:00,63.0,34.9,29.56,NNE,22,6.3,6.3,35,0.00,,,0.26,VWS V14.01,2013-12-19 20:21:00,
2013-12-19 12:22:00,63.0,34.9,29.56,NNE,22,6.3,6.3,35,0.00,,,0.26,VWS V14.01,2013-12-19 20:22:00,
2013-12-19 12:23:00,63.0,34.9,29.56,NNE,22,6.3,6.3,35,0.00,,,0.26,VWS V14.01,2013-12-19 20:23:00,
2013-12-19 12:24:00,61.5,33.6,29.56,NNW,338,4.7,6.3,35,0.00,,,0.26,VWS V14.01,2013-12-19 20:24:00,
2013-12-19 12:25:00,61.5,33.6,29.56,North,0,4.0,6.3,35,0.00,,,0.26,VWS V14.01,2013-12-19 20:25:00,
2013-12-19 12:26:00,61.5,33.6,29.56,NNE,22,3.8,6.3,35,0.00,,,0.26,VWS V14.01,2013-12-19 20:26:00,
2013-12-19 12:27:00,61.5,33.6,29.56,North,0,6.3,6.3,35,0.00,,,0.26,VWS V14.01,2013-12-19 20:27:00,
2013-12-19 12:28:00,61.7,33.8,29.56,NNE,22,7.4,7.4,35,0.00,,,0.26,VWS V14.01,2013-12-19 20:28:00,
2013-12-19 12:29:00,61.7,33.8,29.56,NNE,22,7.4,7.4,35,0.00,,,0.26,VWS V14.01,2013-12-19 20:29:00,
2013-12-19 12:30:00,61.7,33.8,29.56,NNE,22,7.4,7.4,35,0.00,,,0.26,VWS V14.01,2013-12-19 20:30:00,
2013-12-19 12:31:00,60.4,32.7,29.56,NNW,338,10.3,10.3,35,0.00,,,0.26,VWS V14.01,2013-12-19 20:31:00,
2013-12-19 12:32:00,60.4,32.7,29.56,NNW,338,10.3,10.3,35,0.00,,,0.26,VWS V14.01,2013-12-19 20:32:00,
2013-12-19 12:33:00,60.4,32.7,29.56,NNW,338,10.3,10.3,35,0.00,,,0.26,VWS V14.01,2013-12-19 20:33:00,
2013-12-19 12:34:00,60.4,32.7,29.56,NNW,338,10.3,10.3,35,0.00,,,0.26,VWS V14.01,2013-12-19 20:34:00,
2013-12-19 12:35:00,59.9,32.2,29.56,NNW,338,10.3,10.3,35,0.00,,,0.26,VWS V14.01,2013-12-19 20:35:00,
2013-12-19 12:36:00,59.9,32.2,29.56,NNW,338,10.3,10.3,35,0.00,,,0.26,VWS V14.01,2013-12-19 20:36:00,
2013-12-19 12:37:00,60.3,32.5,29.56,NNW,338,10.3,10.3,35,0.00,,,0.26,VWS V14.01,2013-12-19 20:37:00,
2013-12-19 12:38:00,60.3,32.5,29.56,NNW,338,10.3,10.3,35,0.00,,,0.26,VWS V14.01,2013-12-19 20:38:00,
2013-12-19 12:39:00,60.3,32.5,29.56,NNW,338,10.3,10.3,35,0.00,,,0.26,VWS V14.01,2013-12-19 20:39:00,
2013-12-19 12:40:00,58.8,32.0,29.56,NNW,338,8.7,10.3,36,0.00,,,0.26,VWS V14.01,2013-12-19 20:40:00,
2013-12-19 12:41:00,58.8,32.0,29.56,NNW,338,8.5,10.3,36,0.00,,,0.26,VWS V14.01,2013-12-19 20:41:00,
2013-12-19 12:42:00,58.8,32.0,29.56,North,0,8.5,10.3,36,0.00,,,0.26,VWS V14.01,2013-12-19 20:42:00,
2013-12-19 12:43:00,58.8,32.0,29.56,North,0,8.5,8.7,36,0.00,,,0.26,VWS V14.01,2013-12-19 20:43:00,
2013-12-19 12:44:00,59.4,31.7,29.56,NNE,22,4.0,8.7,35,0.00,,,0.26,VWS V14.01,2013-12-19 20:44:00,
2013-12-19 12:45:00,60.1,32.4,29.56,NNW,338,2.5,8.5,35,0.00,,,0.26,VWS V14.01,2013-12-19 20:45:00,
2013-12-19 12:46:00,60.1,32.4,29.56,NNE,22,5.6,8.5,35,0.00,,,0.26,VWS V14.01,2013-12-19 20:46:00,
2013-12-19 12:47:00,60.4,32.7,29.56,NNE,22,5.6,8.5,35,0.00,,,0.26,VWS V14.01,2013-12-19 20:47:00,
2013-12-19 12:48:00,60.4,32.7,29.56,NNE,22,5.6,5.6,35,0.00,,,0.26,VWS V14.01,2013-12-19 20:48:00,
2013-12-19 12:49:00,61.9,34.7,29.56,NNW,338,0.0,5.6,36,0.00,,,0.26,VWS V14.01,2013-12-19 20:49:00,
2013-12-19 12:50:00,61.9,34.0,29.56,WNW,292,2.7,5.6,35,0.00,,,0.26,VWS V14.01,2013-12-19 20:50:00,
2013-12-19 12:51:00,61.9,34.0,29.56,NW,315,3.4,5.6,35,0.00,,,0.26,VWS V14.01,2013-12-19 20:51:00,
2013-12-19 12:52:00,61.9,34.0,29.56,NW,315,3.4,5.6,35,0.00,,,0.26,VWS V14.01,2013-12-19 20:52:00,
2013-12-19 12:53:00,62.2,34.3,29.56,NNW,338,2.7,3.4,35,0.00,,,0.26,VWS V14.01,2013-12-19 20:53:00,
2013-12-19 12:54:00,61.9,34.0,29.56,NNW,338,4.0,4.0,35,0.00,,,0.26,VWS V14.01,2013-12-19 20:54:00,
2013-12-19 12:55:00,61.9,34.0,29.56,North,0,5.4,5.4,35,0.00,,,0.26,VWS V14.01,2013-12-19 20:55:00,
2013-12-19 12:56:00,61.5,33.6,29.56,North,0,7.2,7.2,35,0.00,,,0.26,VWS V14.01,2013-12-19 20:56:00,
2013-12-19 12:57:00,61.5,33.6,29.56,North,0,7.2,7.2,35,0.00,,,0.26,VWS V14.01,2013-12-19 20:57:00,
2013-12-19 12:58:00,60.8,33.0,29.56,NNW,338,5.4,7.2,35,0.00,,,0.26,VWS V14.01,2013-12-19 20:58:00,
2013-12-19 12:59:00,60.8,33.0,29.56,NNW,338,5.4,7.2,35,0.00,,,0.26,VWS V14.01,2013-12-19 20:59:00,
2013-12-19 13:00:00,60.3,33.2,29.56,NNW,338,7.8,7.8,36,0.00,,,0.26,VWS V14.01,2013-12-19 21:00:00,
2013-12-19 13:01:00,59.7,32.7,29.56,NW,315,5.6,7.8,36,0.00,,,0.26,VWS V14.01,2013-12-19 21:01:00,
2013-12-19 13:02:00,59.7,32.7,29.56,WNW,292,4.0,7.8,36,0.00,,,0.26,VWS V14.01,2013-12-19 21:02:00,
2013-12-19 13:03:00,60.6,33.5,29.56,NNW,338,4.0,7.8,36,0.00,,,0.26,VWS V14.01,2013-12-19 21:03:00,
2013-12-19 13:04:00,60.6,33.5,29.56,NNW,338,4.7,5.6,36,0.00,,,0.26,VWS V14.01,2013-12-19 21:04:00,
2013-12-19 13:05:00,60.4,33.4,29.56,NNW,338,4.7,4.7,36,0.00,,,0.26,VWS V14.01,2013-12-19 21:05:00,
2013-12-19 13:06:00,60.4,33.4,29.56,NNW,338,5.8,5.8,36,0.00,,,0.26,VWS V14.01,2013-12-19 21:06:00,
2013-12-19 13:07:00,60.6,33.5,29.56,NNW,338,6.0,6.0,36,0.00,,,0.26,VWS V14.01,2013-12-19 21:07:00,
2013-12-19 13:08:00,60.6,33.5,29.56,NW,315,4.0,6.0,36,0.00,,,0.26,VWS V14.01,2013-12-19 21:08:00,
2013-12-19 13:09:00,60.3,33.2,29.56,NNW,338,6.0,6.0,36,0.00,,,0.26,VWS V14.01,2013-12-19 21:09:00,
2013-12-19 13:10:00,60.3,35.2,29.56,West,270,9.6,9.6,39,0.00,,,0.26,VWS V14.01,2013-12-19 21:10:00,
2013-12-19 13:11:00,60.3,35.2,29.56,WNW,292,5.4,9.6,39,0.00,,,0.26,VWS V14.01,2013-12-19 21:11:00,
2013-12-19 13:12:00,60.1,36.9,29.56,WNW,292,7.8,9.6,42,0.00,,,0.26,VWS V14.01,2013-12-19 21:12:00,
2013-12-19 13:13:00,60.1,36.9,29.56,West,270,7.2,9.6,42,0.00,,,0.26,VWS V14.01,2013-12-19 21:13:00,
2013-12-19 13:14:00,59.7,37.2,29.56,NW,315,6.0,7.8,43,0.00,,,0.26,VWS V14.01,2013-12-19 21:14:00,
2013-12-19 13:15:00,59.0,36.6,29.56,West,270,7.4,7.8,43,0.00,,,0.26,VWS V14.01,2013-12-19 21:15:00,
2013-12-19 13:16:00,59.0,36.6,29.56,NW,315,10.7,10.7,43,0.00,,,0.26,VWS V14.01,2013-12-19 21:16:00,
2013-12-19 13:17:00,58.5,36.7,29.56,NW,315,8.1,10.7,44,0.00,,,0.26,VWS V14.01,2013-12-19 21:17:00,
2013-12-19 13:18:00,58.5,36.7,29.56,WNW,292,6.7,10.7,44,0.00,,,0.26,VWS V14.01,2013-12-19 21:18:00,
2013-12-19 13:19:00,58.5,36.7,29.56,NNW,338,8.1,10.7,44,0.00,,,0.26,VWS V14.01,2013-12-19 21:19:00,
2013-12-19 13:20:00,58.5,36.7,29.56,WNW,292,4.3,8.1,44,0.00,,,0.26,VWS V14.01,2013-12-19 21:20:00,
2013-12-19 13:21:00,58.5,36.7,29.56,WNW,292,3.8,8.1,44,0.00,,,0.26,VWS V14.01,2013-12-19 21:21:00,
2013-12-19 13:22:00,58.5,36.7,29.56,WNW,292,3.8,8.1,44,0.00,,,0.26,VWS V14.01,2013-12-19 21:22:00,
2013-12-19 13:23:00,58.8,37.0,29.56,WNW,292,6.5,6.5,44,0.00,,,0.26,VWS V14.01,2013-12-19 21:23:00,
2013-12-19 13:24:00,58.8,37.5,29.56,WNW,292,7.8,7.8,45,0.00,,,0.26,VWS V14.01,2013-12-19 21:24:00,
2013-12-19 13:25:00,58.8,37.5,29.56,West,270,5.8,7.8,45,0.00,,,0.26,VWS V14.01,2013-12-19 21:25:00,
2013-12-19 13:26:00,59.2,37.3,29.56,SW,225,10.5,10.5,44,0.00,,,0.26,VWS V14.01,2013-12-19 21:26:00,
2013-12-19 13:27:00,59.2,37.3,29.56,West,270,10.7,10.7,44,0.00,,,0.26,VWS V14.01,2013-12-19 21:27:00,
2013-12-19 13:28:00,59.2,37.3,29.56,West,270,10.5,10.7,44,0.00,,,0.26,VWS V14.01,2013-12-19 21:28:00,
2013-12-19 13:29:00,59.2,37.3,29.56,West,270,3.8,10.7,44,0.00,,,0.26,VWS V14.01,2013-12-19 21:29:00,
2013-12-19 13:30:00,58.8,37.5,29.56,WSW,248,10.7,10.7,45,0.00,,,0.26,VWS V14.01,2013-12-19 21:30:00,
2013-12-19 13:31:00,58.8,37.5,29.56,WSW,248,8.5,10.7,45,0.00,,,0.26,VWS V14.01,2013-12-19 21:31:00,
2013-12-19 13:32:00,58.8,37.5,29.56,WSW,248,3.6,10.7,45,0.00,,,0.26,VWS V14.01,2013-12-19 21:32:00,
2013-12-19 13:33:00,59.0,37.7,29.56,West,270,9.2,10.7,45,0.00,,,0.26,VWS V14.01,2013-12-19 21:33:00,
2013-12-19 13:34:00,59.0,37.7,29.56,West,270,10.5,10.5,45,0.00,,,0.26,VWS V14.01,2013-12-19 21:34:00,
2013-12-19 13:35:00,59.2,37.9,29.56,SW,225,4.3,10.5,45,0.00,,,0.26,VWS V14.01,2013-12-19 21:35:00,
2013-12-19 13:36:00,59.2,37.9,29.56,WSW,248,6.5,10.5,45,0.00,,,0.26,VWS V14.01,2013-12-19 21:36:00,
2013-12-19 13:37:00,59.5,38.2,29.56,West,270,8.1,10.5,45,0.00,,,0.26,VWS V14.01,2013-12-19 21:37:00,
2013-12-19 13:38:00,59.5,38.2,29.56,West,270,8.1,10.5,45,0.00,,,0.26,VWS V14.01,2013-12-19 21:38:00,
2013-12-19 13:39:00,59.2,37.9,29.56,WNW,292,4.0,8.1,45,0.00,,,0.26,VWS V14.01,2013-12-19 21:39:00,
2013-12-19 13:40:00,59.4,38.0,29.56,WNW,292,6.5,8.1,45,0.00,,,0.26,VWS V14.01,2013-12-19 21:40:00,
2013-12-19 13:41:00,59.4,38.0,29.56,West,270,8.5,8.5,45,0.00,,,0.26,VWS V14.01,2013-12-19 21:41:00,
2013-12-19 13:42:00,58.5,36.7,29.56,WNW,292,13.0,13.0,44,0.00,,,0.26,VWS V14.01,2013-12-19 21:42:00,
2013-12-19 13:43:00,58.5,36.7,29.56,WNW,292,11.0,13.0,44,0.00,,,0.26,VWS V14.01,2013-12-19 21:43:00,
2013-12-19 13:44:00,57.9,36.7,29.56,WNW,292,9.6,13.0,45,0.00,,,0.26,VWS V14.01,2013-12-19 21:44:00,
2013-12-19 13:45:00,58.1,36.9,29.56,West,270,4.5,13.0,45,0.00,,,0.26,VWS V14.01,2013-12-19 21:45:00,
2013-12-19 13:46:00,58.1,36.9,29.56,WNW,292,7.6,11.0,45,0.00,,,0.26,VWS V14.01,2013-12-19 21:46:00,
2013-12-19 13:47:00,57.7,36.0,29.56,West,270,9.4,9.6,44,0.00,,,0.26,VWS V14.01,2013-12-19 21:47:00,
2013-12-19 13:48:00,57.7,36.0,29.56,NW,315,7.8,9.4,44,0.00,,,0.26,VWS V14.01,2013-12-19 21:48:00,
2013-12-19 13:49:00,57.9,36.2,29.56,NNW,338,7.8,9.4,44,0.00,,,0.26,VWS V14.01,2013-12-19 21:49:00,
2013-12-19 13:50:00,57.9,36.2,29.56,WNW,292,9.8,9.8,44,0.00,,,0.26,VWS V14.01,2013-12-19 21:50:00,
2013-12-19 13:51:00,57.9,36.2,29.56,WNW,292,7.8,9.8,44,0.00,,,0.26,VWS V14.01,2013-12-19 21:51:00,
2013-12-19 13:52:00,57.9,36.2,29.56,NW,315,10.3,10.3,44,0.00,,,0.26,VWS V14.01,2013-12-19 21:52:00,
2013-12-19 13:53:00,57.7,36.6,29.56,WNW,292,5.4,10.3,45,0.00,,,0.26,VWS V14.01,2013-12-19 21:53:00,
2013-12-19 13:54:00,57.9,36.7,29.56,WSW,248,9.6,10.3,45,0.00,,,0.26,VWS V14.01,2013-12-19 21:54:00,
2013-12-19 13:55:00,57.9,36.7,29.56,WNW,292,11.0,11.0,45,0.00,,,0.26,VWS V14.01,2013-12-19 21:55:00,
2013-12-19 13:56:00,57.9,36.7,29.56,WNW,292,12.3,12.3,45,0.00,,,0.26,VWS V14.01,2013-12-19 21:56:00,
2013-12-19 13:57:00,57.9,36.7,29.56,WNW,292,9.6,12.3,45,0.00,,,0.26,VWS V14.01,2013-12-19 21:57:00,
2013-12-19 13:58:00,57.9,36.7,29.56,WNW,292,9.6,12.3,45,0.00,,,0.26,VWS V14.01,2013-12-19 21:58:00,
2013-12-19 13:59:00,57.9,36.7,29.56,WNW,292,8.1,12.3,45,0.00,,,0.26,VWS V14.01,2013-12-19 21:59:00,
2013-12-19 14:00:00,58.3,37.6,29.56,West,270,7.6,12.3,46,0.00,,,0.26,VWS V14.01,2013-12-19 22:00:00,
2013-12-19 14:01:00,58.3,37.6,29.56,West,270,8.5,12.3,46,0.00,,,0.26,VWS V14.01,2013-12-19 22:01:00,
2013-12-19 14:02:00,58.3,37.6,29.56,WSW,248,10.5,10.5,46,0.00,,,0.26,VWS V14.01,2013-12-19 22:02:00,
2013-12-19 14:03:00,57.9,37.3,29.56,WNW,292,12.5,12.5,46,0.00,,,0.26,VWS V14.01,2013-12-19 22:03:00,
2013-12-19 14:04:00,57.9,37.3,29.56,WNW,292,12.3,12.5,46,0.00,,,0.26,VWS V14.01,2013-12-19 22:04:00,
2013-12-19 14:05:00,57.2,36.6,29.56,WNW,292,12.3,12.5,46,0.00,,,0.26,VWS V14.01,2013-12-19 22:05:00,
2013-12-19 14:06:00,57.2,36.6,29.56,WNW,292,12.3,12.5,46,0.00,,,0.26,VWS V14.01,2013-12-19 22:06:00,
2013-12-19 14:07:00,57.2,36.6,29.56,WNW,292,12.3,12.5,46,0.00,,,0.26,VWS V14.01,2013-12-19 22:07:00,
2013-12-19 14:08:00,57.2,36.6,29.56,WNW,292,10.3,12.3,46,0.00,,,0.26,VWS V14.01,2013-12-19 22:08:00,
2013-12-19 14:09:00,56.8,36.3,29.56,WNW,292,12.3,12.3,46,0.00,,,0.26,VWS V14.01,2013-12-19 22:09:00,
2013-12-19 14:10:00,56.8,36.3,29.56,WNW,292,10.3,12.3,46,0.00,,,0.26,VWS V14.01,2013-12-19 22:10:00,
2013-12-19 14:11:00,56.8,36.3,29.56,WNW,292,8.7,12.3,46,0.00,,,0.26,VWS V14.01,2013-12-19 22:11:00,
2013-12-19 14:12:00,57.0,36.5,29.56,NW,315,17.0,17.0,46,0.00,,,0.26,VWS V14.01,2013-12-19 22:12:00,
2013-12-19 14:13:00,57.0,36.5,29.56,WNW,292,12.5,17.0,46,0.00,,,0.26,VWS V14.01,2013-12-19 22:13:00,
2013-12-19 14:14:00,57.2,36.6,29.56,WNW,292,10.3,17.0,46,0.00,,,0.26,VWS V14.01,2013-12-19 22:14:00,
2013-12-19 14:15:00,57.6,37.0,29.56,West,270,13.0,17.0,46,0.00,,,0.26,VWS V14.01,2013-12-19 22:15:00,
2013-12-19 14:16:00,57.6,37.0,29.56,West,270,9.6,13.0,46,0.00,,,0.26,VWS V14.01,2013-12-19 22:16:00,
2013-12-19 14:17:00,57.6,37.0,29.56,West,270,9.6,13.0,46,0.00,,,0.26,VWS V14.01,2013-12-19 22:17:00,
2013-12-19 14:18:00,57.6,37.0,29.56,West,270,9.6,13.0,46,0.00,,,0.26,VWS V14.01,2013-12-19 22:18:00,
2013-12-19 14:19:00,57.6,37.0,29.56,West,270,9.6,13.0,46,0.00,,,0.26,VWS V14.01,2013-12-19 22:19:00,
2013-12-19 14:20:00,57.6,37.0,29.56,West,270,9.6,9.6,46,0.00,,,0.26,VWS V14.01,2013-12-19 22:20:00,
2013-12-19 14:21:00,57.7,37.1,29.56,West,270,9.6,9.6,46,0.00,,,0.26,VWS V14.01,2013-12-19 22:21:00,
2013-12-19 14:22:00,57.7,37.1,29.56,West,270,15.2,15.2,46,0.00,,,0.26,VWS V14.01,2013-12-19 22:22:00,
2013-12-19 14:23:00,57.7,37.1,29.56,West,270,15.2,15.2,46,0.00,,,0.26,VWS V14.01,2013-12-19 22:23:00,
2013-12-19 14:24:00,57.7,37.1,29.56,WNW,292,7.8,15.2,46,0.00,,,0.26,VWS V14.01,2013-12-19 22:24:00,
2013-12-19 14:25:00,57.6,37.0,29.56,WNW,292,7.8,15.2,46,0.00,,,0.26,VWS V14.01,2013-12-19 22:25:00,
2013-12-19 14:26:00,57.6,37.0,29.56,NNW,338,10.5,15.2,46,0.00,,,0.26,VWS V14.01,2013-12-19 22:26:00,
2013-12-19 14:27:00,57.6,37.0,29.56,NNW,338,10.5,10.5,46,0.00,,,0.26,VWS V14.01,2013-12-19 22:27:00,
2013-12-19 14:28:00,57.6,37.0,29.56,NNW,338,10.5,10.5,46,0.00,,,0.26,VWS V14.01,2013-12-19 22:28:00,
2013-12-19 14:29:00,57.2,36.6,29.56,NNW,338,8.7,10.5,46,0.00,,,0.26,VWS V14.01,2013-12-19 22:29:00,
2013-12-19 14:30:00,57.2,36.6,29.56,North,0,5.8,10.5,46,0.00,,,0.26,VWS V14.01,2013-12-19 22:30:00,
2013-12-19 14:31:00,57.6,37.0,29.56,WNW,292,10.3,10.5,46,0.00,,,0.26,VWS V14.01,2013-12-19 22:31:00,
2013-12-19 14:32:00,57.4,36.8,29.56,WSW,248,8.1,10.3,46,0.00,,,0.26,VWS V14.01,2013-12-19 22:32:00,
2013-12-19 14:33:00,57.4,36.8,29.56,WSW,248,10.5,10.5,46,0.00,,,0.26,VWS V14.01,2013-12-19 22:33:00,
2013-12-19 14:34:00,57.6,37.0,29.56,NW,315,12.8,12.8,46,0.00,,,0.26,VWS V14.01,2013-12-19 22:34:00,
2013-12-19 14:35:00,57.6,37.0,29.56,NW,315,12.1,12.8,46,0.00,,,0.26,VWS V14.01,2013-12-19 22:35:00,
2013-12-19 14:36:00,57.6,37.0,29.56,WNW,292,9.8,12.8,46,0.00,,,0.26,VWS V14.01,2013-12-19 22:36:00,
2013-12-19 14:37:00,57.6,37.0,29.56,West,270,7.6,12.8,46,0.00,,,0.26,VWS V14.01,2013-12-19 22:37:00,
2013-12-19 14:38:00,57.9,37.3,29.56,West,270,5.8,12.8,46,0.00,,,0.26,VWS V14.01,2013-12-19 22:38:00,
2013-12-19 14:40:00,57.9,37.3,29.56,West,270,5.8,12.1,46,0.00,,,0.26,VWS V14.01,2013-12-19 22:40:00,
2013-12-19 14:41:00,58.1,37.5,29.56,WSW,248,12.5,12.5,46,0.00,,,0.26,VWS V14.01,2013-12-19 22:41:00,
2013-12-19 14:42:00,58.1,37.5,29.56,SSW,202,12.5,12.5,46,0.00,,,0.26,VWS V14.01,2013-12-19 22:42:00,
2013-12-19 14:43:00,58.1,37.5,29.56,SSW,202,12.5,12.5,46,0.00,,,0.26,VWS V14.01,2013-12-19 22:43:00,
2013-12-19 14:44:00,58.1,37.5,29.56,SSW,202,12.5,12.5,46,0.00,,,0.26,VWS V14.01,2013-12-19 22:44:00,
2013-12-19 14:45:00,58.1,37.5,29.56,WNW,292,14.8,14.8,46,0.00,,,0.26,VWS V14.01,2013-12-19 22:45:00,
2013-12-19 14:46:00,58.1,37.5,29.56,WNW,292,14.8,14.8,46,0.00,,,0.26,VWS V14.01,2013-12-19 22:46:00,
2013-12-19 14:47:00,57.6,37.5,29.56,WNW,292,14.8,14.8,47,0.00,,,0.26,VWS V14.01,2013-12-19 22:47:00,
2013-12-19 14:48:00,57.6,37.5,29.56,NW,315,8.1,14.8,47,0.00,,,0.26,VWS V14.01,2013-12-19 22:48:00,
2013-12-19 14:49:00,57.6,37.5,29.56,West,270,9.8,14.8,47,0.00,,,0.26,VWS V14.01,2013-12-19 22:49:00,
2013-12-19 14:50:00,57.6,37.5,29.56,WNW,292,8.1,14.8,47,0.00,,,0.26,VWS V14.01,2013-12-19 22:50:00,
2013-12-19 14:51:00,57.4,37.3,29.56,NW,315,10.5,10.5,47,0.00,,,0.26,VWS V14.01,2013-12-19 22:51:00,
2013-12-19 14:52:00,57.4,37.3,29.56,WNW,292,11.2,11.2,47,0.00,,,0.26,VWS V14.01,2013-12-19 22:52:00,
2013-12-19 14:53:00,57.7,37.7,29.56,WNW,292,11.2,11.2,47,0.00,,,0.26,VWS V14.01,2013-12-19 22:53:00,
2013-12-19 14:54:00,57.7,37.7,29.56,WNW,292,11.2,11.2,47,0.00,,,0.26,VWS V14.01,2013-12-19 22:54:00,
2013-12-19 14:55:00,57.7,37.7,29.56,NW,315,6.5,11.2,47,0.00,,,0.26,VWS V14.01,2013-12-19 22:55:00,
2013-12-19 14:56:00,57.7,37.7,29.56,NW,315,6.5,11.2,47,0.00,,,0.26,VWS V14.01,2013-12-19 22:56:00,
2013-12-19 14:57:00,57.2,37.2,29.56,NW,315,6.5,11.2,47,0.00,,,0.26,VWS V14.01,2013-12-19 22:57:00,
2013-12-19 14:58:00,57.2,37.2,29.56,NW,315,6.5,11.2,47,0.00,,,0.26,VWS V14.01,2013-12-19 22:58:00,
2013-12-19 14:59:00,57.2,37.2,29.56,West,270,10.1,11.2,47,0.00,,,0.26,VWS V14.01,2013-12-19 22:59:00,
2013-12-19 15:00:00,57.2,37.2,29.56,West,270,10.1,11.2,47,0.00,,,0.26,VWS V14.01,2013-12-19 23:00:00,
2013-12-19 15:01:00,57.2,37.2,29.56,WNW,292,6.5,10.1,47,0.00,,,0.26,VWS V14.01,2013-12-19 23:01:00,
2013-12-19 15:02:00,57.4,37.3,29.56,West,270,10.3,11.4,47,0.00,,,0.26,VWS V14.01,2013-12-19 23:02:00,
2013-12-19 15:03:00,57.6,37.5,29.56,NNW,338,4.0,11.4,47,0.00,,,0.26,VWS V14.01,2013-12-19 23:03:00,
2013-12-19 15:04:00,57.6,37.5,29.56,WNW,292,8.5,11.4,47,0.00,,,0.26,VWS V14.01,2013-12-19 23:04:00,
2013-12-19 15:05:00,57.6,37.5,29.56,WNW,292,8.5,11.4,47,0.00,,,0.26,VWS V14.01,2013-12-19 23:05:00,
2013-12-19 15:06:00,57.6,37.5,29.56,WNW,292,8.5,11.4,47,0.00,,,0.26,VWS V14.01,2013-12-19 23:06:00,
2013-12-19 15:07:00,57.6,37.5,29.56,WNW,292,8.5,10.3,47,0.00,,,0.26,VWS V14.01,2013-12-19 23:07:00,
2013-12-19 15:08:00,57.6,37.5,29.56,WNW,292,8.5,8.5,47,0.00,,,0.26,VWS V14.01,2013-12-19 23:08:00,
2013-12-19 15:09:00,57.2,37.2,29.56,WNW,292,8.5,8.5,47,0.00,,,0.26,VWS V14.01,2013-12-19 23:09:00,
2013-12-19 15:10:00,57.2,37.2,29.56,WNW,292,8.5,8.5,47,0.00,,,0.26,VWS V14.01,2013-12-19 23:10:00,
2013-12-19 15:11:00,57.2,37.2,29.56,WNW,292,8.5,8.5,47,0.00,,,0.26,VWS V14.01,2013-12-19 23:11:00,
2013-12-19 15:12:00,57.2,37.7,29.56,WNW,292,8.5,8.5,48,0.00,,,0.26,VWS V14.01,2013-12-19 23:12:00,
2013-12-19 15:13:00,57.2,37.7,29.56,WNW,292,8.5,8.5,48,0.00,,,0.26,VWS V14.01,2013-12-19 23:13:00,
2013-12-19 15:14:00,57.4,37.9,29.56,WSW,248,10.1,10.1,48,0.00,,,0.26,VWS V14.01,2013-12-19 23:14:00,
2013-12-19 15:15:00,57.4,37.9,29.56,WSW,248,10.1,10.1,48,0.00,,,0.26,VWS V14.01,2013-12-19 23:15:00,
2013-12-19 15:16:00,57.4,37.9,29.56,WSW,248,6.3,10.1,48,0.00,,,0.26,VWS V14.01,2013-12-19 23:16:00,
2013-12-19 15:17:00,57.4,37.9,29.56,WSW,248,6.3,10.1,48,0.00,,,0.26,VWS V14.01,2013-12-19 23:17:00,
2013-12-19 15:18:00,57.4,37.9,29.56,WNW,292,10.3,10.3,48,0.00,,,0.26,VWS V14.01,2013-12-19 23:18:00,
2013-12-19 15:19:00,56.7,37.7,29.56,NNW,338,10.5,10.5,49,0.00,,,0.26,VWS V14.01,2013-12-19 23:19:00,
2013-12-19 15:20:00,56.7,37.7,29.56,WSW,248,7.4,10.5,49,0.00,,,0.26,VWS V14.01,2013-12-19 23:20:00,
2013-12-19 15:21:00,56.7,37.7,29.56,West,270,10.3,10.5,49,0.00,,,0.26,VWS V14.01,2013-12-19 23:21:00,
2013-12-19 15:22:00,56.7,37.7,29.56,West,270,10.3,10.5,49,0.00,,,0.26,VWS V14.01,2013-12-19 23:22:00,
2013-12-19 15:23:00,56.5,37.6,29.56,NW,315,12.5,12.5,49,0.00,,,0.26,VWS V14.01,2013-12-19 23:23:00,
2013-12-19 15:24:00,56.5,37.6,29.56,NNW,338,13.2,13.2,49,0.00,,,0.26,VWS V14.01,2013-12-19 23:24:00,
2013-12-19 15:25:00,56.7,37.7,29.56,WNW,292,8.1,13.2,49,0.00,,,0.26,VWS V14.01,2013-12-19 23:25:00,
2013-12-19 15:26:00,56.7,37.7,29.56,WSW,248,8.1,13.2,49,0.00,,,0.26,VWS V14.01,2013-12-19 23:26:00,
2013-12-19 15:27:00,56.7,37.7,29.56,WSW,248,8.1,13.2,49,0.00,,,0.26,VWS V14.01,2013-12-19 23:27:00,
2013-12-19 15:28:00,56.7,37.7,29.56,WSW,248,8.1,13.2,49,0.00,,,0.26,VWS V14.01,2013-12-19 23:28:00,
2013-12-19 15:29:00,56.7,37.7,29.56,WNW,292,13.0,13.2,49,0.00,,,0.26,VWS V14.01,2013-12-19 23:29:00,
2013-12-19 15:30:00,56.3,36.9,29.56,WNW,292,13.0,13.0,48,0.00,,,0.26,VWS V14.01,2013-12-19 23:30:00,
2013-12-19 15:31:00,56.3,36.9,29.56,West,270,9.4,13.0,48,0.00,,,0.26,VWS V14.01,2013-12-19 23:31:00,
2013-12-19 15:32:00,56.3,36.9,29.56,WNW,292,8.5,14.3,48,0.00,,,0.26,VWS V14.01,2013-12-19 23:32:00,
2013-12-19 15:33:00,56.3,36.9,29.56,WNW,292,8.5,14.3,48,0.00,,,0.26,VWS V14.01,2013-12-19 23:33:00,
2013-12-19 15:34:00,56.3,36.9,29.56,WNW,292,8.5,14.3,48,0.00,,,0.26,VWS V14.01,2013-12-19 23:34:00,
2013-12-19 15:35:00,56.3,36.9,29.56,WNW,292,8.5,14.3,48,0.00,,,0.26,VWS V14.01,2013-12-19 23:35:00,
2013-12-19 15:36:00,56.3,36.9,29.56,WNW,292,11.0,11.0,48,0.00,,,0.26,VWS V14.01,2013-12-19 23:36:00,
2013-12-19 15:37:00,56.3,36.9,29.56,West,270,6.5,11.0,48,0.00,,,0.26,VWS V14.01,2013-12-19 23:37:00,
2013-12-19 15:38:00,56.3,36.9,29.56,WNW,292,11.2,11.2,48,0.00,,,0.26,VWS V14.01,2013-12-19 23:38:00,
2013-12-19 15:39:00,56.3,36.9,29.56,WNW,292,11.2,11.2,48,0.00,,,0.26,VWS V14.01,2013-12-19 23:39:00,
2013-12-19 15:40:00,56.3,36.9,29.56,WNW,292,11.2,11.2,48,0.00,,,0.26,VWS V14.01,2013-12-19 23:40:00,
2013-12-19 15:41:00,56.3,36.9,29.56,WNW,292,11.2,11.2,48,0.00,,,0.26,VWS V14.01,2013-12-19 23:41:00,
2013-12-19 15:42:00,56.3,36.9,29.56,WNW,292,6.0,11.2,48,0.00,,,0.26,VWS V14.01,2013-12-19 23:42:00,
2013-12-19 15:43:00,56.3,36.9,29.56,WNW,292,6.0,11.2,48,0.00,,,0.26,VWS V14.01,2013-12-19 23:43:00,
2013-12-19 15:44:00,56.3,36.9,29.56,SW,225,5.4,11.2,48,0.00,,,0.26,VWS V14.01,2013-12-19 23:44:00,
2013-12-19 15:45:00,56.3,36.9,29.56,SW,225,5.4,11.2,48,0.00,,,0.26,VWS V14.01,2013-12-19 23:45:00,
2013-12-19 15:47:00,56.8,37.4,29.56,WSW,248,3.4,6.5,48,0.00,,,0.26,VWS V14.01,2013-12-19 23:47:00,
2013-12-19 15:48:00,56.8,37.4,29.56,WSW,248,3.4,6.5,48,0.00,,,0.26,VWS V14.01,2013-12-19 23:48:00,
2013-12-19 15:49:00,56.8,37.4,29.56,WSW,248,3.4,6.5,48,0.00,,,0.26,VWS V14.01,2013-12-19 23:49:00,
2013-12-19 15:50:00,56.8,37.4,29.56,WSW,248,3.4,6.5,48,0.00,,,0.26,VWS V14.01,2013-12-19 23:50:00,
2013-12-19 15:51:00,56.8,37.4,29.56,WSW,248,3.4,6.5,48,0.00,,,0.26,VWS V14.01,2013-12-19 23:51:00,
2013-12-19 15:52:00,56.8,37.4,29.56,WSW,248,3.4,3.4,48,0.00,,,0.26,VWS V14.01,2013-12-19 23:52:00,
2013-12-19 15:53:00,56.8,37.4,29.56,WSW,248,3.4,3.4,48,0.00,,,0.26,VWS V14.01,2013-12-19 23:53:00,
2013-12-19 15:54:00,56.8,37.4,29.56,WSW,248,3.4,3.4,48,0.00,,,0.26,VWS V14.01,2013-12-19 23:54:00,
2013-12-19 15:55:00,56.8,37.4,29.56,WSW,248,3.4,3.4,48,0.00,,,0.26,VWS V14.01,2013-12-19 23:55:00,
2013-12-19 15:56:00,56.8,37.4,29.56,WSW,248,3.4,3.4,48,0.00,,,0.26,VWS V14.01,2013-12-19 23:56:00,
2013-12-19 15:57:00,56.8,37.4,29.59,WSW,248,3.4,3.4,48,0.00,,,0.26,VWS V14.01,2013-12-19 23:57:00,
2013-12-19 15:58:00,56.8,37.4,29.59,WSW,248,3.4,3.4,48,0.00,,,0.26,VWS V14.01,2013-12-19 23:58:00,
2013-12-19 15:59:00,56.8,37.4,29.59,WSW,248,3.4,3.4,48,0.00,,,0.26,VWS V14.01,2013-12-19 23:59:00,
2013-12-19 16:00:00,56.8,37.4,29.59,WSW,248,3.4,3.4,48,0.00,,,0.26,VWS V14.01,2013-12-20 00:00:00,
2013-12-19 16:01:00,56.8,37.4,29.59,WSW,248,3.4,3.4,48,0.00,,,0.26,VWS V14.01,2013-12-20 00:01:00,
2013-12-19 16:02:00,56.8,37.4,29.59,WSW,248,3.4,3.4,48,0.00,,,0.26,VWS V14.01,2013-12-20 00:02:00,
2013-12-19 16:03:00,56.8,37.4,29.59,WSW,248,3.4,3.4,48,0.00,,,0.26,VWS V14.01,2013-12-20 00:03:00,
2013-12-19 16:04:00,56.8,37.4,29.59,WSW,248,3.4,3.4,48,0.00,,,0.26,VWS V14.01,2013-12-20 00:04:00,
2013-12-19 16:05:00,56.8,37.4,29.59,WSW,248,3.4,3.4,48,0.00,,,0.26,VWS V14.01,2013-12-20 00:05:00,
2013-12-19 16:06:00,56.8,37.4,29.59,WSW,248,3.4,3.4,48,0.00,,,0.26,VWS V14.01,2013-12-20 00:06:00,
2013-12-19 16:07:00,56.8,37.4,29.59,WSW,248,3.4,3.4,48,0.00,,,0.26,VWS V14.01,2013-12-20 00:07:00,
2013-12-19 16:08:00,56.8,37.4,29.59,WSW,248,3.4,3.4,48,0.00,,,0.26,VWS V14.01,2013-12-20 00:08:00,
2013-12-19 16:09:00,56.8,37.4,29.59,WSW,248,3.4,3.4,48,0.00,,,0.26,VWS V14.01,2013-12-20 00:09:00,
2013-12-19 16:10:00,56.8,37.4,29.59,WSW,248,3.4,3.4,48,0.00,,,0.26,VWS V14.01,2013-12-20 00:10:00,
2013-12-19 16:11:00,56.8,37.4,29.59,WSW,248,3.4,3.4,48,0.00,,,0.26,VWS V14.01,2013-12-20 00:11:00,
2013-12-19 16:12:00,56.8,37.4,29.59,WSW,248,3.4,3.4,48,0.00,,,0.26,VWS V14.01,2013-12-20 00:12:00,
2013-12-19 16:13:00,56.8,37.4,29.59,WSW,248,3.4,3.4,48,0.00,,,0.26,VWS V14.01,2013-12-20 00:13:00,
2013-12-19 16:14:00,56.8,37.4,29.59,WSW,248,3.4,3.4,48,0.00,,,0.26,VWS V14.01,2013-12-20 00:14:00,
2013-12-19 16:15:00,56.8,37.4,29.59,WSW,248,3.4,3.4,48,0.00,,,0.26,VWS V14.01,2013-12-20 00:15:00,
2013-12-19 16:16:00,56.8,37.4,29.59,WSW,248,3.4,3.4,48,0.00,,,0.26,VWS V14.01,2013-12-20 00:16:00,
2013-12-19 16:17:00,56.8,37.4,29.59,WSW,248,3.4,3.4,48,0.00,,,0.26,VWS V14.01,2013-12-20 00:17:00,
2013-12-19 16:18:00,56.8,37.4,29.59,WSW,248,3.4,3.4,48,0.00,,,0.26,VWS V14.01,2013-12-20 00:18:00,
2013-12-19 16:19:00,56.8,37.4,29.59,WSW,248,3.4,3.4,48,0.00,,,0.26,VWS V14.01,2013-12-20 00:19:00,
2013-12-19 16:20:00,56.8,37.4,29.59,WSW,248,3.4,3.4,48,0.00,,,0.26,VWS V14.01,2013-12-20 00:20:00,
2013-12-19 16:21:00,56.8,37.4,29.59,WSW,248,3.4,3.4,48,0.00,,,0.26,VWS V14.01,2013-12-20 00:21:00,
2013-12-19 16:22:00,56.8,37.4,29.59,WSW,248,3.4,3.4,48,0.00,,,0.26,VWS V14.01,2013-12-20 00:22:00,
2013-12-19 16:23:00,56.8,37.4,29.59,WSW,248,3.4,3.4,48,0.00,,,0.26,VWS V14.01,2013-12-20 00:23:00,
2013-12-19 16:24:00,56.8,37.4,29.59,WSW,248,3.4,3.4,48,0.00,,,0.26,VWS V14.01,2013-12-20 00:24:00,
2013-12-19 16:25:00,56.8,37.4,29.59,WSW,248,3.4,3.4,48,0.00,,,0.26,VWS V14.01,2013-12-20 00:25:00,
2013-12-19 16:27:00,56.8,37.4,29.59,WSW,248,3.4,3.4,48,0.00,,,0.26,VWS V14.01,2013-12-20 00:27:00,
2013-12-19 16:28:00,54.1,35.9,29.59,WSW,248,3.4,3.4,50,0.00,,,0.26,VWS V14.01,2013-12-20 00:28:00,
2013-12-19 16:29:00,54.1,35.9,29.59,WSW,248,3.4,3.4,50,0.00,,,0.26,VWS V14.01,2013-12-20 00:29:00,
2013-12-19 16:30:00,54.1,35.9,29.59,WSW,248,3.4,3.4,50,0.00,,,0.26,VWS V14.01,2013-12-20 00:30:00,
2013-12-19 16:31:00,54.1,35.9,29.59,WSW,248,3.4,3.4,50,0.00,,,0.26,VWS V14.01,2013-12-20 00:31:00,
2013-12-19 16:32:00,54.1,35.9,29.59,WSW,248,3.4,3.4,50,0.00,,,0.26,VWS V14.01,2013-12-20 00:32:00,
2013-12-19 16:33:00,54.1,35.9,29.59,WSW,248,3.4,3.4,50,0.00,,,0.26,VWS V14.01,2013-12-20 00:33:00,
2013-12-19 16:34:00,54.1,35.9,29.59,WSW,248,3.4,3.4,50,0.00,,,0.26,VWS V14.01,2013-12-20 00:34:00,
2013-12-19 16:35:00,54.1,35.9,29.59,WSW,248,3.4,3.4,50,0.00,,,0.26,VWS V14.01,2013-12-20 00:35:00,
2013-12-19 16:36:00,54.1,35.9,29.59,WSW,248,3.4,3.4,50,0.00,,,0.26,VWS V14.01,2013-12-20 00:36:00,
2013-12-19 16:37:00,54.1,35.9,29.59,WSW,248,3.4,3.4,50,0.00,,,0.26,VWS V14.01,2013-12-20 00:37:00,
2013-12-19 16:38:00,54.1,35.9,29.59,WSW,248,3.4,3.4,50,0.00,,,0.26,VWS V14.01,2013-12-20 00:38:00,
2013-12-19 16:39:00,54.1,35.9,29.59,WSW,248,3.4,3.4,50,0.00,,,0.26,VWS V14.01,2013-12-20 00:39:00,
2013-12-19 16:40:00,54.1,35.9,29.59,WSW,248,3.4,3.4,50,0.00,,,0.26,VWS V14.01,2013-12-20 00:40:00,
2013-12-19 16:41:00,54.1,35.9,29.59,WSW,248,3.4,3.4,50,0.00,,,0.26,VWS V14.01,2013-12-20 00:41:00,
2013-12-19 16:42:00,54.1,35.9,29.59,WSW,248,3.4,3.4,50,0.00,,,0.26,VWS V14.01,2013-12-20 00:42:00,
2013-12-19 16:43:00,54.1,35.9,29.59,WSW,248,3.4,3.4,50,0.00,,,0.26,VWS V14.01,2013-12-20 00:43:00,
2013-12-19 16:44:00,53.6,36.4,29.59,WNW,292,6.5,8.5,52,0.00,,,0.26,VWS V14.01,2013-12-20 00:44:00,
2013-12-19 16:45:00,53.6,36.4,29.59,WNW,292,6.5,8.5,52,0.00,,,0.26,VWS V14.01,2013-12-20 00:45:00,
2013-12-19 16:46:00,53.6,36.4,29.59,NNW,338,7.6,8.5,52,0.00,,,0.26,VWS V14.01,2013-12-20 00:46:00,
2013-12-19 16:47:00,53.6,36.4,29.59,NW,315,10.1,10.1,52,0.00,,,0.26,VWS V14.01,2013-12-20 00:47:00,
2013-12-19 16:48:00,53.6,36.4,29.59,NNW,338,6.5,10.1,52,0.00,,,0.26,VWS V14.01,2013-12-20 00:48:00,
2013-12-19 16:49:00,53.4,36.7,29.59,NW,315,8.5,10.1,53,0.00,,,0.26,VWS V14.01,2013-12-20 00:49:00,
2013-12-19 16:50:00,53.4,36.7,29.59,NW,315,8.5,10.1,53,0.00,,,0.26,VWS V14.01,2013-12-20 00:50:00,
2013-12-19 16:51:00,53.4,36.7,29.59,NNW,338,8.5,8.5,53,0.00,,,0.26,VWS V14.01,2013-12-20 00:51:00,
2013-12-19 16:52:00,53.4,36.7,29.59,NW,315,6.5,8.5,53,0.00,,,0.26,VWS V14.01,2013-12-20 00:52:00,
2013-12-19 16:53:00,53.2,36.6,29.59,NW,315,4.9,8.5,53,0.00,,,0.26,VWS V14.01,2013-12-20 00:53:00,
2013-12-19 16:54:00,53.2,36.6,29.59,WNW,292,6.9,6.9,53,0.00,,,0.26,VWS V14.01,2013-12-20 00:54:00,
2013-12-19 16:55:00,53.2,36.6,29.59,WNW,292,5.4,6.9,53,0.00,,,0.26,VWS V14.01,2013-12-20 00:55:00,
2013-12-19 16:56:00,53.2,36.6,29.59,NW,315,7.2,7.2,53,0.00,,,0.26,VWS V14.01,2013-12-20 00:56:00,
2013-12-19 16:57:00,53.2,36.6,29.59,WNW,292,6.3,7.2,53,0.00,,,0.26,VWS V14.01,2013-12-20 00:57:00,
2013-12-19 16:58:00,53.2,36.6,29.62,NNW,338,6.5,7.2,53,0.00,,,0.26,VWS V14.01,2013-12-20 00:58:00,
2013-12-19 16:59:00,53.1,36.4,29.62,WNW,292,4.3,7.2,53,0.00,,,0.26,VWS V14.01,2013-12-20 00:59:00,
2013-12-19 17:00:00,53.1,36.4,29.62,WNW,292,4.3,6.5,53,0.00,,,0.26,VWS V14.01,2013-12-20 01:00:00,
2013-12-19 17:01:00,53.1,36.4,29.62,WNW,292,4.3,6.5,53,0.00,,,0.26,VWS V14.01,2013-12-20 01:01:00,
2013-12-19 17:02:00,53.1,36.4,29.62,WNW,292,4.3,6.5,53,0.00,,,0.26,VWS V14.01,2013-12-20 01:02:00,
2013-12-19 17:03:00,53.1,36.4,29.62,WNW,292,4.3,4.3,53,0.00,,,0.26,VWS V14.01,2013-12-20 01:03:00,
2013-12-19 17:04:00,53.1,36.4,29.62,WNW,292,4.3,4.3,53,0.00,,,0.26,VWS V14.01,2013-12-20 01:04:00,
2013-12-19 17:05:00,53.1,36.4,29.62,WNW,292,4.3,4.3,53,0.00,,,0.26,VWS V14.01,2013-12-20 01:05:00,
2013-12-19 17:06:00,53.1,36.4,29.62,WNW,292,6.5,7.4,53,0.00,,,0.26,VWS V14.01,2013-12-20 01:06:00,
2013-12-19 17:07:00,53.1,36.4,29.62,WNW,292,6.5,7.4,53,0.00,,,0.26,VWS V14.01,2013-12-20 01:07:00,
2013-12-19 17:08:00,53.1,36.4,29.62,WNW,292,5.6,7.4,53,0.00,,,0.26,VWS V14.01,2013-12-20 01:08:00,
2013-12-19 17:09:00,53.1,35.9,29.62,NW,315,7.6,7.6,52,0.00,,,0.26,VWS V14.01,2013-12-20 01:09:00,
2013-12-19 17:10:00,53.1,35.9,29.62,NW,315,7.6,7.6,52,0.00,,,0.26,VWS V14.01,2013-12-20 01:10:00,
2013-12-19 17:11:00,53.1,35.9,29.62,NW,315,7.6,7.6,52,0.00,,,0.26,VWS V14.01,2013-12-20 01:11:00,
2013-12-19 17:12:00,53.1,35.9,29.62,NW,315,7.6,7.6,52,0.00,,,0.26,VWS V14.01,2013-12-20 01:12:00,
2013-12-19 17:13:00,53.1,35.9,29.62,WNW,292,4.9,7.6,52,0.00,,,0.26,VWS V14.01,2013-12-20 01:13:00,
2013-12-19 17:14:00,53.1,35.9,29.62,WNW,292,6.3,7.6,52,0.00,,,0.26,VWS V14.01,2013-12-20 01:14:00,
2013-12-19 17:15:00,53.1,35.9,29.62,WNW,292,6.3,7.6,52,0.00,,,0.26,VWS V14.01,2013-12-20 01:15:00,
2013-12-19 17:16:00,53.1,35.9,29.62,NW,315,5.8,6.3,52,0.00,,,0.26,VWS V14.01,2013-12-20 01:16:00,
2013-12-19 17:17:00,53.1,35.9,29.62,West,270,7.6,7.6,52,0.00,,,0.26,VWS V14.01,2013-12-20 01:17:00,
2013-12-19 17:18:00,52.9,35.3,29.62,West,270,7.6,7.6,51,0.00,,,0.26,VWS V14.01,2013-12-20 01:18:00,
2013-12-19 17:19:00,52.9,35.3,29.62,West,270,6.0,7.6,51,0.00,,,0.26,VWS V14.01,2013-12-20 01:19:00,
2013-12-19 17:20:00,52.9,35.3,29.62,West,270,6.0,7.6,51,0.00,,,0.26,VWS V14.01,2013-12-20 01:20:00,
2013-12-19 17:21:00,52.9,35.3,29.62,West,270,6.0,7.6,51,0.00,,,0.26,VWS V14.01,2013-12-20 01:21:00,
2013-12-19 17:22:00,52.9,35.3,29.62,West,270,6.0,7.6,51,0.00,,,0.26,VWS V14.01,2013-12-20 01:22:00,
2013-12-19 17:23:00,52.9,35.3,29.62,West,270,6.0,7.6,51,0.00,,,0.26,VWS V14.01,2013-12-20 01:23:00,
2013-12-19 17:24:00,52.9,35.3,29.62,West,270,6.0,6.0,51,0.00,,,0.26,VWS V14.01,2013-12-20 01:24:00,
2013-12-19 17:25:00,52.9,35.3,29.62,West,270,6.0,6.0,51,0.00,,,0.26,VWS V14.01,2013-12-20 01:25:00,
2013-12-19 17:26:00,52.9,34.8,29.62,West,270,6.0,6.0,50,0.00,,,0.26,VWS V14.01,2013-12-20 01:26:00,
2013-12-19 17:27:00,52.9,34.8,29.62,West,270,6.0,6.0,50,0.00,,,0.26,VWS V14.01,2013-12-20 01:27:00,
2013-12-19 17:28:00,53.1,34.9,29.62,West,270,6.0,6.0,50,0.00,,,0.26,VWS V14.01,2013-12-20 01:28:00,
2013-12-19 17:29:00,53.1,34.9,29.62,West,270,6.0,6.0,50,0.00,,,0.26,VWS V14.01,2013-12-20 01:29:00,
2013-12-19 17:30:00,53.1,34.9,29.62,West,270,6.0,6.0,50,0.00,,,0.26,VWS V14.01,2013-12-20 01:30:00,
2013-12-19 17:31:00,53.1,34.9,29.62,West,270,6.0,6.0,50,0.00,,,0.26,VWS V14.01,2013-12-20 01:31:00,
2013-12-19 17:32:00,53.1,34.9,29.62,West,270,6.0,6.0,50,0.00,,,0.26,VWS V14.01,2013-12-20 01:32:00,
2013-12-19 17:33:00,53.1,34.9,29.62,West,270,6.0,6.0,50,0.00,,,0.26,VWS V14.01,2013-12-20 01:33:00,
2013-12-19 17:34:00,52.9,34.8,29.62,WNW,292,4.3,6.5,50,0.00,,,0.26,VWS V14.01,2013-12-20 01:34:00,
2013-12-19 17:35:00,52.9,34.8,29.62,WNW,292,4.7,6.5,50,0.00,,,0.26,VWS V14.01,2013-12-20 01:35:00,
2013-12-19 17:36:00,52.9,34.8,29.62,WNW,292,6.5,6.5,50,0.00,,,0.26,VWS V14.01,2013-12-20 01:36:00,
2013-12-19 17:37:00,53.1,34.4,29.62,WNW,292,6.5,6.5,49,0.00,,,0.26,VWS V14.01,2013-12-20 01:37:00,
2013-12-19 17:38:00,53.1,34.4,29.62,WNW,292,6.5,6.5,49,0.00,,,0.26,VWS V14.01,2013-12-20 01:38:00,
2013-12-19 17:39:00,53.1,34.4,29.62,WNW,292,6.5,6.5,49,0.00,,,0.26,VWS V14.01,2013-12-20 01:39:00,
2013-12-19 17:40:00,53.1,34.4,29.62,WNW,292,6.5,6.5,49,0.00,,,0.26,VWS V14.01,2013-12-20 01:40:00,
2013-12-19 17:41:00,53.2,34.6,29.62,WNW,292,6.5,6.5,49,0.00,,,0.26,VWS V14.01,2013-12-20 01:41:00,
2013-12-19 17:42:00,53.2,34.6,29.62,WNW,292,6.5,6.5,49,0.00,,,0.26,VWS V14.01,2013-12-20 01:42:00,
2013-12-19 17:43:00,53.2,34.6,29.62,WNW,292,6.5,6.5,49,0.00,,,0.26,VWS V14.01,2013-12-20 01:43:00,
2013-12-19 17:44:00,53.2,34.6,29.62,WNW,292,6.5,6.5,49,0.00,,,0.26,VWS V14.01,2013-12-20 01:44:00,
2013-12-19 17:45:00,53.2,34.6,29.62,WNW,292,6.5,6.5,49,0.00,,,0.26,VWS V14.01,2013-12-20 01:45:00,
2013-12-19 17:46:00,53.2,34.6,29.62,WNW,292,6.5,6.5,49,0.00,,,0.26,VWS V14.01,2013-12-20 01:46:00,
2013-12-19 17:47:00,53.2,34.6,29.62,WNW,292,6.5,6.5,49,0.00,,,0.26,VWS V14.01,2013-12-20 01:47:00,
2013-12-19 17:48:00,53.2,34.6,29.62,WNW,292,6.5,6.5,49,0.00,,,0.26,VWS V14.01,2013-12-20 01:48:00,
2013-12-19 17:49:00,53.2,34.6,29.62,WNW,292,6.5,6.5,49,0.00,,,0.26,VWS V14.01,2013-12-20 01:49:00,
2013-12-19 17:50:00,53.2,34.6,29.62,WNW,292,6.5,6.5,49,0.00,,,0.26,VWS V14.01,2013-12-20 01:50:00,
2013-12-19 17:51:00,53.2,34.6,29.62,WNW,292,6.5,6.5,49,0.00,,,0.26,VWS V14.01,2013-12-20 01:51:00,
2013-12-19 17:52:00,53.2,34.6,29.62,WNW,292,6.5,6.5,49,0.00,,,0.26,VWS V14.01,2013-12-20 01:52:00,
2013-12-19 17:53:00,53.2,34.6,29.62,WNW,292,6.5,6.5,49,0.00,,,0.26,VWS V14.01,2013-12-20 01:53:00,
2013-12-19 17:54:00,53.2,34.6,29.62,WNW,292,6.5,6.5,49,0.00,,,0.26,VWS V14.01,2013-12-20 01:54:00,
2013-12-19 17:55:00,53.2,34.6,29.62,WNW,292,6.5,6.5,49,0.00,,,0.26,VWS V14.01,2013-12-20 01:55:00,
2013-12-19 17:56:00,53.2,34.6,29.62,WNW,292,6.5,6.5,49,0.00,,,0.26,VWS V14.01,2013-12-20 01:56:00,
2013-12-19 17:57:00,53.2,34.6,29.62,WNW,292,6.5,6.5,49,0.00,,,0.26,VWS V14.01,2013-12-20 01:57:00,
2013-12-19 17:58:00,53.2,34.6,29.62,WNW,292,6.5,6.5,49,0.00,,,0.26,VWS V14.01,2013-12-20 01:58:00,
2013-12-19 17:59:00,53.2,34.6,29.62,WNW,292,6.5,6.5,49,0.00,,,0.26,VWS V14.01,2013-12-20 01:59:00,
2013-12-19 18:00:00,53.2,34.6,29.62,WNW,292,6.5,6.5,49,0.00,,,0.26,VWS V14.01,2013-12-20 02:00:00,
2013-12-19 18:01:00,53.2,34.6,29.62,WNW,292,6.5,6.5,49,0.00,,,0.26,VWS V14.01,2013-12-20 02:01:00,
2013-12-19 18:02:00,53.2,34.6,29.62,WNW,292,6.5,6.5,49,0.00,,,0.26,VWS V14.01,2013-12-20 02:02:00,
2013-12-19 18:03:00,53.2,34.6,29.62,WNW,292,6.5,6.5,49,0.00,,,0.26,VWS V14.01,2013-12-20 02:03:00,
2013-12-19 18:04:00,53.2,34.6,29.62,WNW,292,6.5,6.5,49,0.00,,,0.26,VWS V14.01,2013-12-20 02:04:00,
2013-12-19 18:05:00,53.2,34.6,29.62,WNW,292,6.5,6.5,49,0.00,,,0.26,VWS V14.01,2013-12-20 02:05:00,
2013-12-19 18:06:00,53.2,34.6,29.62,West,270,6.5,6.5,49,0.00,,,0.26,VWS V14.01,2013-12-20 02:06:00,
2013-12-19 18:07:00,53.2,34.6,29.62,West,270,3.4,6.5,49,0.00,,,0.26,VWS V14.01,2013-12-20 02:07:00,
2013-12-19 18:08:00,53.2,34.6,29.62,West,270,4.9,6.5,49,0.00,,,0.26,VWS V14.01,2013-12-20 02:08:00,
2013-12-19 18:09:00,52.3,34.3,29.62,WSW,248,4.3,6.5,50,0.00,,,0.26,VWS V14.01,2013-12-20 02:09:00,
2013-12-19 18:10:00,52.3,34.3,29.62,WSW,248,4.3,6.5,50,0.00,,,0.26,VWS V14.01,2013-12-20 02:10:00,
2013-12-19 18:11:00,52.3,34.3,29.62,NW,315,4.3,6.5,50,0.00,,,0.26,VWS V14.01,2013-12-20 02:11:00,
2013-12-19 18:12:00,52.3,34.3,29.62,WNW,292,5.6,5.6,50,0.00,,,0.26,VWS V14.01,2013-12-20 02:12:00,
2013-12-19 18:13:00,52.3,34.3,29.62,WSW,248,5.4,5.6,50,0.00,,,0.26,VWS V14.01,2013-12-20 02:13:00,
2013-12-19 18:14:00,52.3,33.8,29.62,West,270,6.0,6.0,49,0.00,,,0.26,VWS V14.01,2013-12-20 02:14:00,
2013-12-19 18:15:00,52.3,33.8,29.62,West,270,6.0,6.0,49,0.00,,,0.26,VWS V14.01,2013-12-20 02:15:00,
2013-12-19 18:16:00,52.3,33.8,29.62,WNW,292,6.0,6.0,49,0.00,,,0.26,VWS V14.01,2013-12-20 02:16:00,
2013-12-19 18:17:00,52.3,33.8,29.62,WNW,292,6.0,6.0,49,0.00,,,0.26,VWS V14.01,2013-12-20 02:17:00,
2013-12-19 18:18:00,52.3,33.8,29.62,WSW,248,6.0,6.0,49,0.00,,,0.26,VWS V14.01,2013-12-20 02:18:00,
2013-12-19 18:19:00,52.3,33.8,29.62,WNW,292,4.7,6.0,49,0.00,,,0.26,VWS V14.01,2013-12-20 02:19:00,
2013-12-19 18:20:00,52.3,33.8,29.62,NW,315,6.7,6.7,49,0.00,,,0.26,VWS V14.01,2013-12-20 02:20:00,
2013-12-19 18:21:00,52.5,33.9,29.62,WSW,248,6.3,6.7,49,0.00,,,0.26,VWS V14.01,2013-12-20 02:21:00,
2013-12-19 18:22:00,52.5,33.9,29.62,NW,315,5.6,6.7,49,0.00,,,0.26,VWS V14.01,2013-12-20 02:22:00,
2013-12-19 18:23:00,52.7,33.6,29.62,NW,315,5.4,6.7,48,0.00,,,0.26,VWS V14.01,2013-12-20 02:23:00,
2013-12-19 18:24:00,52.7,33.6,29.62,WNW,292,5.4,6.3,48,0.00,,,0.26,VWS V14.01,2013-12-20 02:24:00,
2013-12-19 18:25:00,52.7,33.6,29.62,WNW,292,5.4,5.6,48,0.00,,,0.26,VWS V14.01,2013-12-20 02:25:00,
2013-12-19 18:26:00,52.7,33.6,29.62,WNW,292,5.4,5.6,48,0.00,,,0.26,VWS V14.01,2013-12-20 02:26:00,
2013-12-19 18:27:00,52.9,33.7,29.62,WNW,292,5.4,5.4,48,0.00,,,0.26,VWS V14.01,2013-12-20 02:27:00,
2013-12-19 18:28:00,52.9,33.2,29.62,NW,315,3.1,5.4,47,0.00,,,0.26,VWS V14.01,2013-12-20 02:28:00,
2013-12-19 18:29:00,53.1,33.4,29.62,NW,315,3.1,5.4,47,0.00,,,0.26,VWS V14.01,2013-12-20 02:29:00,
2013-12-19 18:30:00,53.1,33.4,29.62,NW,315,3.1,5.4,47,0.00,,,0.26,VWS V14.01,2013-12-20 02:30:00,
2013-12-19 18:31:00,53.1,33.4,29.62,NW,315,3.1,5.4,47,0.00,,,0.26,VWS V14.01,2013-12-20 02:31:00,
2013-12-19 18:32:00,53.1,33.4,29.62,NNW,338,6.3,6.3,47,0.00,,,0.26,VWS V14.01,2013-12-20 02:32:00,
2013-12-19 18:33:00,53.1,33.4,29.62,NNW,338,6.3,6.3,47,0.00,,,0.26,VWS V14.01,2013-12-20 02:33:00,
2013-12-19 18:34:00,53.1,33.4,29.62,NNW,338,6.3,6.3,47,0.00,,,0.26,VWS V14.01,2013-12-20 02:34:00,
2013-12-19 18:35:00,53.1,33.4,29.62,NNW,338,6.3,6.3,47,0.00,,,0.26,VWS V14.01,2013-12-20 02:35:00,
2013-12-19 18:36:00,53.1,33.4,29.62,NNW,338,6.3,6.3,47,0.00,,,0.26,VWS V14.01,2013-12-20 02:36:00,
2013-12-19 18:37:00,53.1,32.8,29.62,NNW,338,6.3,6.3,46,0.00,,,0.26,VWS V14.01,2013-12-20 02:37:00,
2013-12-19 18:38:00,53.1,32.8,29.62,NNW,338,6.3,6.3,46,0.00,,,0.26,VWS V14.01,2013-12-20 02:38:00,
2013-12-19 18:39:00,53.2,32.5,29.62,NNW,338,6.3,6.3,45,0.00,,,0.26,VWS V14.01,2013-12-20 02:39:00,
2013-12-19 18:40:00,53.2,32.5,29.62,NNW,338,6.3,6.3,45,0.00,,,0.26,VWS V14.01,2013-12-20 02:40:00,
2013-12-19 18:41:00,53.2,33.0,29.62,NNW,338,6.3,6.3,46,0.00,,,0.26,VWS V14.01,2013-12-20 02:41:00,
2013-12-19 18:42:00,53.4,33.2,29.62,NNW,338,6.3,6.3,46,0.00,,,0.26,VWS V14.01,2013-12-20 02:42:00,
2013-12-19 18:43:00,53.4,33.2,29.65,NNW,338,6.3,6.3,46,0.00,,,0.26,VWS V14.01,2013-12-20 02:43:00,
2013-12-19 18:44:00,53.4,33.2,29.65,North,0,7.8,7.8,46,0.00,,,0.26,VWS V14.01,2013-12-20 02:44:00,
2013-12-19 18:45:00,53.4,33.2,29.65,NNW,338,7.4,7.8,46,0.00,,,0.26,VWS V14.01,2013-12-20 02:45:00,
2013-12-19 18:46:00,53.4,32.1,29.65,NNW,338,6.0,7.8,44,0.00,,,0.26,VWS V14.01,2013-12-20 02:46:00,
2013-12-19 18:47:00,53.4,32.1,29.65,NW,315,5.6,7.8,44,0.00,,,0.26,VWS V14.01,2013-12-20 02:47:00,
2013-12-19 18:48:00,53.4,32.1,29.65,NNW,338,10.1,10.1,44,0.00,,,0.26,VWS V14.01,2013-12-20 02:48:00,
2013-12-19 18:49:00,53.4,32.1,29.65,NNW,338,6.5,10.1,44,0.00,,,0.26,VWS V14.01,2013-12-20 02:49:00,
2013-12-19 18:50:00,53.4,32.1,29.65,NW,315,9.2,10.1,44,0.00,,,0.26,VWS V14.01,2013-12-20 02:50:00,
2013-12-19 18:51:00,53.2,31.9,29.65,WNW,292,6.9,10.1,44,0.00,,,0.26,VWS V14.01,2013-12-20 02:51:00,
2013-12-19 18:52:00,53.2,31.9,29.65,NNW,338,5.6,9.2,44,0.00,,,0.26,VWS V14.01,2013-12-20 02:52:00,
2013-12-19 18:53:00,53.2,31.9,29.65,NNW,338,5.6,9.2,44,0.00,,,0.26,VWS V14.01,2013-12-20 02:53:00,
2013-12-19 18:54:00,53.2,31.9,29.65,NNW,338,8.1,8.1,44,0.00,,,0.26,VWS V14.01,2013-12-20 02:54:00,
2013-12-19 18:55:00,53.2,31.9,29.65,NNW,338,8.1,8.1,44,0.00,,,0.26,VWS V14.01,2013-12-20 02:55:00,
2013-12-19 18:56:00,53.2,31.9,29.65,NNW,338,6.3,8.1,44,0.00,,,0.26,VWS V14.01,2013-12-20 02:56:00,
2013-12-19 18:57:00,53.2,31.3,29.65,NNW,338,6.5,8.1,43,0.00,,,0.26,VWS V14.01,2013-12-20 02:57:00,
2013-12-19 18:58:00,53.1,31.2,29.65,NNW,338,8.5,8.5,43,0.00,,,0.26,VWS V14.01,2013-12-20 02:58:00,
2013-12-19 18:59:00,53.1,31.2,29.65,NNW,338,6.3,11.0,43,0.00,,,0.26,VWS V14.01,2013-12-20 02:59:00,
2013-12-19 19:00:00,53.1,31.2,29.65,NNW,338,9.8,11.0,43,0.00,,,0.26,VWS V14.01,2013-12-20 03:00:00,
2013-12-19 19:01:00,53.1,31.2,29.65,NNW,338,7.4,11.0,43,0.00,,,0.26,VWS V14.01,2013-12-20 03:01:00,
2013-12-19 19:02:00,53.2,30.8,29.65,NNW,338,7.4,11.0,42,0.00,,,0.26,VWS V14.01,2013-12-20 03:02:00,
2013-12-19 19:03:00,53.2,30.8,29.65,NNW,338,6.3,9.8,42,0.00,,,0.26,VWS V14.01,2013-12-20 03:03:00,
2013-12-19 19:04:00,53.2,30.8,29.65,NNW,338,8.5,8.5,42,0.00,,,0.26,VWS V14.01,2013-12-20 03:04:00,
2013-12-19 19:05:00,53.2,30.8,29.65,NNW,338,7.6,8.5,42,0.00,,,0.26,VWS V14.01,2013-12-20 03:05:00,
2013-12-19 19:06:00,53.2,30.8,29.65,NNW,338,6.5,8.5,42,0.00,,,0.26,VWS V14.01,2013-12-20 03:06:00,
2013-12-19 19:07:00,53.4,30.3,29.65,NNW,338,8.5,8.5,41,0.00,,,0.26,VWS V14.01,2013-12-20 03:07:00,
2013-12-19 19:08:00,53.4,30.3,29.65,NNW,338,7.4,8.5,41,0.00,,,0.26,VWS V14.01,2013-12-20 03:08:00,
2013-12-19 19:09:00,53.4,30.3,29.65,NW,315,3.4,8.5,41,0.00,,,0.26,VWS V14.01,2013-12-20 03:09:00,
2013-12-19 19:10:00,53.4,30.3,29.65,NW,315,3.4,8.5,41,0.00,,,0.26,VWS V14.01,2013-12-20 03:10:00,
2013-12-19 19:11:00,53.4,30.3,29.65,NNW,338,6.9,8.5,41,0.00,,,0.26,VWS V14.01,2013-12-20 03:11:00,
2013-12-19 19:12:00,53.2,30.2,29.65,WNW,292,4.3,6.9,41,0.00,,,0.26,VWS V14.01,2013-12-20 03:12:00,
2013-12-19 19:13:00,53.2,30.2,29.65,NNW,338,8.5,8.5,41,0.00,,,0.26,VWS V14.01,2013-12-20 03:13:00,
2013-12-19 19:14:00,53.2,29.6,29.65,NNW,338,7.8,8.5,40,0.00,,,0.26,VWS V14.01,2013-12-20 03:14:00,
2013-12-19 19:15:00,53.2,29.6,29.65,NNW,338,7.8,8.5,40,0.00,,,0.26,VWS V14.01,2013-12-20 03:15:00,
2013-12-19 19:16:00,53.2,29.6,29.65,NNW,338,6.3,8.5,40,0.00,,,0.26,VWS V14.01,2013-12-20 03:16:00,
2013-12-19 19:17:00,53.2,29.6,29.65,NNW,338,5.8,8.5,40,0.00,,,0.26,VWS V14.01,2013-12-20 03:17:00,
2013-12-19 19:18:00,53.2,29.6,29.65,NW,315,6.5,7.8,40,0.00,,,0.26,VWS V14.01,2013-12-20 03:18:00,
2013-12-19 19:19:00,53.2,29.6,29.65,NW,315,6.5,6.5,40,0.00,,,0.26,VWS V14.01,2013-12-20 03:19:00,
2013-12-19 19:20:00,53.2,29.6,29.65,NW,315,6.5,6.5,40,0.00,,,0.26,VWS V14.01,2013-12-20 03:20:00,
2013-12-19 19:21:00,53.1,28.8,29.65,WNW,292,6.5,6.5,39,0.00,,,0.26,VWS V14.01,2013-12-20 03:21:00,
2013-12-19 19:22:00,53.1,28.8,29.65,NNW,338,8.7,8.7,39,0.00,,,0.26,VWS V14.01,2013-12-20 03:22:00,
2013-12-19 19:23:00,53.1,28.8,29.65,NNW,338,8.1,8.7,39,0.00,,,0.26,VWS V14.01,2013-12-20 03:23:00,
2013-12-19 19:24:00,53.1,28.8,29.65,NW,315,7.4,8.7,39,0.00,,,0.26,VWS V14.01,2013-12-20 03:24:00,
2013-12-19 19:25:00,53.1,28.8,29.65,NW,315,7.4,8.7,39,0.00,,,0.26,VWS V14.01,2013-12-20 03:25:00,
2013-12-19 19:26:00,53.1,28.8,29.65,NW,315,7.4,8.7,39,0.00,,,0.26,VWS V14.01,2013-12-20 03:26:00,
2013-12-19 19:27:00,53.1,28.8,29.65,WNW,292,5.8,8.7,39,0.00,,,0.26,VWS V14.01,2013-12-20 03:27:00,
2013-12-19 19:28:00,53.1,28.8,29.65,NW,315,10.5,10.5,39,0.00,,,0.26,VWS V14.01,2013-12-20 03:28:00,
2013-12-19 19:29:00,53.1,28.8,29.65,NNW,338,7.8,10.5,39,0.00,,,0.26,VWS V14.01,2013-12-20 03:29:00,
2013-12-19 19:30:00,53.1,28.8,29.65,NNW,338,6.5,10.5,39,0.00,,,0.26,VWS V14.01,2013-12-20 03:30:00,
2013-12-19 19:31:00,53.1,28.8,29.65,NNW,338,6.5,10.5,39,0.00,,,0.26,VWS V14.01,2013-12-20 03:31:00,
2013-12-19 19:32:00,53.1,28.8,29.65,NNW,338,6.5,10.5,39,0.00,,,0.26,VWS V14.01,2013-12-20 03:32:00,
2013-12-19 19:33:00,53.1,28.8,29.65,NNW,338,6.5,7.8,39,0.00,,,0.26,VWS V14.01,2013-12-20 03:33:00,
2013-12-19 19:34:00,53.1,28.8,29.65,NNW,338,6.5,6.5,39,0.00,,,0.26,VWS V14.01,2013-12-20 03:34:00,
2013-12-19 19:35:00,52.7,28.5,29.65,NNW,338,6.5,6.5,39,0.00,,,0.26,VWS V14.01,2013-12-20 03:35:00,
2013-12-19 19:36:00,52.7,28.5,29.65,NNW,338,6.5,6.5,39,0.00,,,0.26,VWS V14.01,2013-12-20 03:36:00,
2013-12-19 19:37:00,52.7,28.5,29.65,NNW,338,6.5,6.5,39,0.00,,,0.26,VWS V14.01,2013-12-20 03:37:00,
2013-12-19 19:38:00,52.7,28.5,29.65,NNW,338,6.5,6.5,39,0.00,,,0.26,VWS V14.01,2013-12-20 03:38:00,
2013-12-19 19:39:00,52.7,28.5,29.65,NNW,338,6.5,6.5,39,0.00,,,0.26,VWS V14.01,2013-12-20 03:39:00,
2013-12-19 19:40:00,52.7,28.5,29.65,NNW,338,6.5,6.5,39,0.00,,,0.26,VWS V14.01,2013-12-20 03:40:00,
2013-12-19 19:41:00,52.7,28.5,29.65,NNW,338,6.5,6.5,39,0.00,,,0.26,VWS V14.01,2013-12-20 03:41:00,
2013-12-19 19:42:00,52.7,28.5,29.65,NNW,338,6.5,6.5,39,0.00,,,0.26,VWS V14.01,2013-12-20 03:42:00,
2013-12-19 19:43:00,52.7,28.5,29.65,NW,315,4.0,6.5,39,0.00,,,0.26,VWS V14.01,2013-12-20 03:43:00,
2013-12-19 19:44:00,52.7,28.5,29.65,NW,315,4.0,6.5,39,0.00,,,0.26,VWS V14.01,2013-12-20 03:44:00,
2013-12-19 19:45:00,52.7,28.5,29.65,NW,315,4.0,6.5,39,0.00,,,0.26,VWS V14.01,2013-12-20 03:45:00,
2013-12-19 19:46:00,52.7,28.5,29.65,NW,315,4.0,6.5,39,0.00,,,0.26,VWS V14.01,2013-12-20 03:46:00,
2013-12-19 19:47:00,52.7,28.5,29.65,NW,315,4.0,6.5,39,0.00,,,0.26,VWS V14.01,2013-12-20 03:47:00,
2013-12-19 19:48:00,52.7,28.5,29.65,NW,315,4.0,4.0,39,0.00,,,0.26,VWS V14.01,2013-12-20 03:48:00,
2013-12-19 19:49:00,52.7,28.5,29.65,NW,315,4.0,4.0,39,0.00,,,0.26,VWS V14.01,2013-12-20 03:49:00,
2013-12-19 19:50:00,52.7,28.5,29.65,NW,315,4.0,4.0,39,0.00,,,0.26,VWS V14.01,2013-12-20 03:50:00,
2013-12-19 19:51:00,52.7,28.5,29.65,NW,315,4.0,4.0,39,0.00,,,0.26,VWS V14.01,2013-12-20 03:51:00,
2013-12-19 19:52:00,52.7,28.5,29.65,NW,315,4.0,4.0,39,0.00,,,0.26,VWS V14.01,2013-12-20 03:52:00,
2013-12-19 19:53:00,52.7,28.5,29.65,NW,315,4.0,4.0,39,0.00,,,0.26,VWS V14.01,2013-12-20 03:53:00,
2013-12-19 19:54:00,52.7,28.5,29.65,NW,315,4.0,4.0,39,0.00,,,0.26,VWS V14.01,2013-12-20 03:54:00,
2013-12-19 19:55:00,52.7,28.5,29.65,NW,315,4.0,4.0,39,0.00,,,0.26,VWS V14.01,2013-12-20 03:55:00,
2013-12-19 19:56:00,52.7,28.5,29.65,NW,315,4.0,4.0,39,0.00,,,0.26,VWS V14.01,2013-12-20 03:56:00,
2013-12-19 19:57:00,51.6,27.5,29.65,West,270,3.4,4.0,39,0.00,,,0.26,VWS V14.01,2013-12-20 03:57:00,
2013-12-19 19:58:00,51.8,27.0,29.65,WNW,292,4.3,4.3,38,0.00,,,0.26,VWS V14.01,2013-12-20 03:58:00,
2013-12-19 19:59:00,51.8,27.0,29.65,NNW,338,4.0,4.3,38,0.00,,,0.26,VWS V14.01,2013-12-20 03:59:00,
2013-12-19 20:00:00,51.8,27.0,29.65,WNW,292,4.0,4.3,38,0.00,,,0.26,VWS V14.01,2013-12-20 04:00:00,
2013-12-19 20:01:00,51.8,27.0,29.65,WNW,292,4.0,4.3,38,0.00,,,0.26,VWS V14.01,2013-12-20 04:01:00,
2013-12-19 20:02:00,51.4,27.3,29.65,NW,315,3.4,4.3,39,0.00,,,0.26,VWS V14.01,2013-12-20 04:02:00,
2013-12-19 20:03:00,51.4,27.3,29.65,WNW,292,3.4,4.0,39,0.00,,,0.26,VWS V14.01,2013-12-20 04:03:00,
2013-12-19 20:04:00,51.4,27.3,29.65,NW,315,6.3,6.3,39,0.00,,,0.26,VWS V14.01,2013-12-20 04:04:00,
2013-12-19 20:05:00,51.8,27.0,29.65,NW,315,6.3,6.3,38,0.00,,,0.26,VWS V14.01,2013-12-20 04:05:00,
2013-12-19 20:06:00,51.8,27.0,29.65,WNW,292,3.6,6.3,38,0.00,,,0.26,VWS V14.01,2013-12-20 04:06:00,
2013-12-19 20:07:00,51.8,27.0,29.65,West,270,2.0,6.3,38,0.00,,,0.26,VWS V14.01,2013-12-20 04:07:00,
2013-12-19 20:08:00,51.8,27.0,29.65,NW,315,2.9,6.3,38,0.00,,,0.26,VWS V14.01,2013-12-20 04:08:00,
2013-12-19 20:09:00,51.6,26.9,29.65,NNW,338,4.5,4.5,38,0.00,,,0.26,VWS V14.01,2013-12-20 04:09:00,
2013-12-19 20:10:00,51.6,26.9,29.65,NNW,338,3.1,4.5,38,0.00,,,0.26,VWS V14.01,2013-12-20 04:10:00,
2013-12-19 20:11:00,51.6,27.5,29.65,NNW,338,2.7,4.5,39,0.00,,,0.26,VWS V14.01,2013-12-20 04:11:00,
2013-12-19 20:12:00,51.6,27.5,29.65,WNW,292,2.7,4.5,39,0.00,,,0.26,VWS V14.01,2013-12-20 04:12:00,
2013-12-19 20:13:00,51.4,27.3,29.65,West,270,5.6,5.6,39,0.00,,,0.26,VWS V14.01,2013-12-20 04:13:00,
2013-12-19 20:14:00,51.1,27.0,29.65,WSW,248,4.3,5.6,39,0.00,,,0.26,VWS V14.01,2013-12-20 04:14:00,
2013-12-19 20:15:00,51.1,27.0,29.65,WNW,292,4.3,5.6,39,0.00,,,0.26,VWS V14.01,2013-12-20 04:15:00,
2013-12-19 20:16:00,50.9,26.8,29.65,WNW,292,2.5,5.6,39,0.00,,,0.26,VWS V14.01,2013-12-20 04:16:00,
2013-12-19 20:17:00,50.9,26.8,29.65,WSW,248,5.4,5.6,39,0.00,,,0.26,VWS V14.01,2013-12-20 04:17:00,
2013-12-19 20:18:00,50.9,26.2,29.65,WNW,292,5.4,5.4,38,0.00,,,0.26,VWS V14.01,2013-12-20 04:18:00,
2013-12-19 20:19:00,51.1,26.4,29.65,NW,315,5.8,5.8,38,0.00,,,0.26,VWS V14.01,2013-12-20 04:19:00,
2013-12-19 20:20:00,51.1,26.4,29.65,NW,315,5.8,5.8,38,0.00,,,0.26,VWS V14.01,2013-12-20 04:20:00,
2013-12-19 20:21:00,51.3,26.5,29.65,WNW,292,3.6,5.8,38,0.00,,,0.26,VWS V14.01,2013-12-20 04:21:00,
2013-12-19 20:22:00,51.3,26.5,29.65,WNW,292,5.4,5.8,38,0.00,,,0.26,VWS V14.01,2013-12-20 04:22:00,
2013-12-19 20:23:00,51.1,26.4,29.65,WNW,292,2.7,5.8,38,0.00,,,0.26,VWS V14.01,2013-12-20 04:23:00,
2013-12-19 20:24:00,50.9,26.2,29.65,West,270,3.4,5.4,38,0.00,,,0.26,VWS V14.01,2013-12-20 04:24:00,
2013-12-19 20:25:00,50.9,26.2,29.65,WNW,292,4.9,5.4,38,0.00,,,0.26,VWS V14.01,2013-12-20 04:25:00,
2013-12-19 20:26:00,50.9,26.2,29.65,West,270,3.1,4.9,38,0.00,,,0.26,VWS V14.01,2013-12-20 04:26:00,
2013-12-19 20:27:00,50.7,26.1,29.65,West,270,5.4,5.4,38,0.00,,,0.26,VWS V14.01,2013-12-20 04:27:00,
2013-12-19 20:28:00,50.7,26.1,29.65,West,270,5.4,5.4,38,0.00,,,0.26,VWS V14.01,2013-12-20 04:28:00,
2013-12-19 20:29:00,50.7,26.0,29.65,WNW,292,2.7,5.4,38,0.00,,,0.26,VWS V14.01,2013-12-20 04:29:00,
2013-12-19 20:30:00,50.7,26.1,29.65,West,270,5.4,5.4,38,0.00,,,0.26,VWS V14.01,2013-12-20 04:30:00,
2013-12-19 20:31:00,50.7,26.1,29.65,NW,315,3.6,5.4,38,0.00,,,0.26,VWS V14.01,2013-12-20 04:31:00,
2013-12-19 20:32:00,51.1,25.7,29.65,North,0,3.8,5.4,37,0.00,,,0.26,VWS V14.01,2013-12-20 04:32:00,
2013-12-19 20:33:00,51.1,25.7,29.65,WSW,248,2.9,5.4,37,0.00,,,0.26,VWS V14.01,2013-12-20 04:33:00,
2013-12-19 20:34:00,50.9,25.6,29.65,NNW,338,2.9,3.8,37,0.00,,,0.26,VWS V14.01,2013-12-20 04:34:00,
2013-12-19 20:35:00,50.9,25.6,29.65,NNW,338,2.9,3.8,37,0.00,,,0.26,VWS V14.01,2013-12-20 04:35:00,
2013-12-19 20:36:00,50.5,25.9,29.65,NW,315,2.5,2.9,38,0.00,,,0.26,VWS V14.01,2013-12-20 04:36:00,
2013-12-19 20:38:00,50.5,25.9,29.65,NNW,338,3.4,3.4,38,0.00,,,0.26,VWS V14.01,2013-12-20 04:38:00,
2013-12-19 20:39:00,50.7,26.0,29.65,NW,315,3.1,4.9,38,0.00,,,0.26,VWS V14.01,2013-12-20 04:39:00,
2013-12-19 20:40:00,50.7,26.1,29.65,WNW,292,4.0,4.9,38,0.00,,,0.26,VWS V14.01,2013-12-20 04:40:00,
2013-12-19 20:41:00,50.7,26.1,29.65,WNW,292,6.5,6.5,38,0.00,,,0.26,VWS V14.01,2013-12-20 04:41:00,
2013-12-19 20:42:00,50.7,26.1,29.65,NW,315,3.6,6.5,38,0.00,,,0.26,VWS V14.01,2013-12-20 04:42:00,
2013-12-19 20:43:00,50.9,25.6,29.68,NW,315,3.6,6.5,37,0.00,,,0.26,VWS V14.01,2013-12-20 04:43:00,
2013-12-19 20:44:00,51.3,25.9,29.68,NNW,338,6.3,6.3,37,0.00,,,0.26,VWS V14.01,2013-12-20 04:44:00,
2013-12-19 20:45:00,51.3,25.9,29.68,NNW,338,6.3,6.3,37,0.00,,,0.26,VWS V14.01,2013-12-20 04:45:00,
2013-12-19 20:46:00,51.4,26.1,29.68,North,0,8.7,8.7,37,0.00,,,0.26,VWS V14.01,2013-12-20 04:46:00,
2013-12-19 20:47:00,51.4,26.1,29.68,North,0,9.8,9.8,37,0.00,,,0.26,VWS V14.01,2013-12-20 04:47:00,
2013-12-19 20:48:00,51.6,25.6,29.68,NNW,338,8.5,9.8,36,0.00,,,0.26,VWS V14.01,2013-12-20 04:48:00,
2013-12-19 20:49:00,52.0,25.9,29.68,NNW,338,8.7,10.7,36,0.00,,,0.26,VWS V14.01,2013-12-20 04:49:00,
2013-12-19 20:50:00,52.0,25.9,29.68,NNW,338,8.7,10.7,36,0.00,,,0.26,VWS V14.01,2013-12-20 04:50:00,
2013-12-19 20:51:00,52.5,25.7,29.68,North,0,13.2,13.2,35,0.00,,,0.26,VWS V14.01,2013-12-20 04:51:00,
2013-12-19 20:52:00,52.5,25.7,29.68,NNW,338,11.0,13.2,35,0.00,,,0.26,VWS V14.01,2013-12-20 04:52:00,
2013-12-19 20:53:00,52.7,25.8,29.68,NNW,338,7.4,13.2,35,0.00,,,0.26,VWS V14.01,2013-12-20 04:53:00,
2013-12-19 20:54:00,52.5,25.7,29.68,North,0,7.4,13.2,35,0.00,,,0.26,VWS V14.01,2013-12-20 04:54:00,
2013-12-19 20:55:00,52.5,25.7,29.68,NNW,338,8.1,11.0,35,0.00,,,0.26,VWS V14.01,2013-12-20 04:55:00,
2013-12-19 20:56:00,52.5,25.7,29.68,North,0,16.8,16.8,35,0.00,,,0.26,VWS V14.01,2013-12-20 04:56:00,
2013-12-19 20:57:00,53.1,24.0,29.68,NNE,22,13.0,16.8,32,0.00,,,0.26,VWS V14.01,2013-12-20 04:57:00,
2013-12-19 20:58:00,53.1,24.0,29.68,North,0,8.1,16.8,32,0.00,,,0.26,VWS V14.01,2013-12-20 04:58:00,
2013-12-19 20:59:00,53.1,24.0,29.68,NNE,22,13.2,17.5,32,0.00,,,0.26,VWS V14.01,2013-12-20 04:59:00,
2013-12-19 21:00:00,53.1,24.0,29.68,NNE,22,13.2,17.5,32,0.00,,,0.26,VWS V14.01,2013-12-20 05:00:00,
2013-12-19 21:01:00,53.1,24.0,29.68,North,0,15.4,17.5,32,0.00,,,0.26,VWS V14.01,2013-12-20 05:01:00,
2013-12-19 21:02:00,53.4,22.8,29.68,North,0,11.0,17.5,30,0.00,,,0.26,VWS V14.01,2013-12-20 05:02:00,
2013-12-19 21:03:00,53.6,22.1,29.68,North,0,11.0,17.5,29,0.00,,,0.26,VWS V14.01,2013-12-20 05:03:00,
2013-12-19 21:04:00,53.6,22.1,29.68,NNE,22,17.0,17.5,29,0.00,,,0.26,VWS V14.01,2013-12-20 05:04:00,
2013-12-19 21:05:00,53.6,22.1,29.68,NNE,22,17.7,17.7,29,0.00,,,0.26,VWS V14.01,2013-12-20 05:05:00,
2013-12-19 21:06:00,53.6,22.1,29.68,NNW,338,13.0,17.7,29,0.00,,,0.26,VWS V14.01,2013-12-20 05:06:00,
2013-12-19 21:07:00,53.6,22.1,29.68,North,0,19.2,19.2,29,0.00,,,0.26,VWS V14.01,2013-12-20 05:07:00,
2013-12-19 21:08:00,53.6,22.1,29.68,NNW,338,12.8,19.2,29,0.00,,,0.26,VWS V14.01,2013-12-20 05:08:00,
2013-12-19 21:09:00,53.6,21.3,29.68,NNE,22,17.5,19.2,28,0.00,,,0.26,VWS V14.01,2013-12-20 05:09:00,
2013-12-19 21:10:00,53.6,21.3,29.68,NNE,22,15.2,19.2,28,0.00,,,0.26,VWS V14.01,2013-12-20 05:10:00,
2013-12-19 21:11:00,53.6,21.3,29.68,NNE,22,9.8,17.5,28,0.00,,,0.26,VWS V14.01,2013-12-20 05:11:00,
2013-12-19 21:12:00,53.6,21.3,29.68,NNE,22,9.8,17.5,28,0.00,,,0.26,VWS V14.01,2013-12-20 05:12:00,
2013-12-19 21:13:00,53.4,22.0,29.68,NNE,22,10.3,15.2,29,0.00,,,0.26,VWS V14.01,2013-12-20 05:13:00,
2013-12-19 21:14:00,53.4,22.0,29.68,NNE,22,10.3,10.3,29,0.00,,,0.26,VWS V14.01,2013-12-20 05:14:00,
2013-12-19 21:15:00,53.4,22.0,29.68,NNE,22,10.3,10.3,29,0.00,,,0.26,VWS V14.01,2013-12-20 05:15:00,
2013-12-19 21:16:00,53.4,21.1,29.68,North,0,13.9,13.9,28,0.00,,,0.26,VWS V14.01,2013-12-20 05:16:00,
2013-12-19 21:17:00,53.4,21.1,29.68,North,0,13.9,13.9,28,0.00,,,0.26,VWS V14.01,2013-12-20 05:17:00,
2013-12-19 21:18:00,53.6,20.5,29.68,NNE,22,19.7,19.7,27,0.00,,,0.26,VWS V14.01,2013-12-20 05:18:00,
2013-12-19 21:19:00,53.6,20.5,29.68,NNE,22,13.0,19.7,27,0.00,,,0.26,VWS V14.01,2013-12-20 05:19:00,
2013-12-19 21:20:00,53.6,20.5,29.68,NNE,22,13.0,19.7,27,0.00,,,0.26,VWS V14.01,2013-12-20 05:20:00,
2013-12-19 21:21:00,53.8,19.7,29.68,NNE,22,13.0,19.7,26,0.00,,,0.26,VWS V14.01,2013-12-20 05:21:00,
2013-12-19 21:22:00,53.8,19.7,29.68,North,0,12.8,19.7,26,0.00,,,0.26,VWS V14.01,2013-12-20 05:22:00,
2013-12-19 21:24:00,53.8,19.7,29.68,North,0,12.8,13.0,26,0.00,,,0.26,VWS V14.01,2013-12-20 05:24:00,
2013-12-19 21:25:00,53.8,19.7,29.68,NNE,22,18.1,18.1,26,0.00,,,0.26,VWS V14.01,2013-12-20 05:25:00,
2013-12-19 21:26:00,53.8,19.7,29.68,NNE,22,10.7,18.1,26,0.00,,,0.26,VWS V14.01,2013-12-20 05:26:00,
2013-12-19 21:27:00,53.8,19.7,29.68,NNE,22,10.7,18.1,26,0.00,,,0.26,VWS V14.01,2013-12-20 05:27:00,
2013-12-19 21:28:00,53.8,19.7,29.68,NNE,22,11.4,18.1,26,0.00,,,0.26,VWS V14.01,2013-12-20 05:28:00,
2013-12-19 21:29:00,53.8,19.7,29.68,NNE,22,13.0,13.0,26,0.00,,,0.26,VWS V14.01,2013-12-20 05:29:00,
2013-12-19 21:30:00,53.8,19.7,29.68,North,0,15.7,15.7,26,0.00,,,0.26,VWS V14.01,2013-12-20 05:30:00,
2013-12-19 21:31:00,53.8,19.7,29.68,NNW,338,13.2,15.7,26,0.00,,,0.26,VWS V14.01,2013-12-20 05:31:00,
2013-12-19 21:32:00,53.8,19.7,29.68,NNW,338,13.2,15.7,26,0.00,,,0.26,VWS V14.01,2013-12-20 05:32:00,
2013-12-19 21:33:00,53.8,19.7,29.68,NNE,22,9.8,15.7,26,0.00,,,0.26,VWS V14.01,2013-12-20 05:33:00,
2013-12-19 21:34:00,53.6,18.6,29.68,NNE,22,6.0,13.2,25,0.00,,,0.26,VWS V14.01,2013-12-20 05:34:00,
2013-12-19 21:35:00,53.6,18.6,29.68,NNE,22,8.1,13.2,25,0.00,,,0.26,VWS V14.01,2013-12-20 05:35:00,
2013-12-19 21:36:00,53.6,19.6,29.68,NNE,22,7.4,9.8,26,0.00,,,0.26,VWS V14.01,2013-12-20 05:36:00,
2013-12-19 21:37:00,53.4,19.4,29.68,NNE,22,11.2,11.2,26,0.00,,,0.26,VWS V14.01,2013-12-20 05:37:00,
2013-12-19 21:38:00,53.4,19.4,29.68,NNE,22,5.6,11.2,26,0.00,,,0.26,VWS V14.01,2013-12-20 05:38:00,
2013-12-19 21:39:00,53.4,19.4,29.68,North,0,5.4,11.2,26,0.00,,,0.26,VWS V14.01,2013-12-20 05:39:00,
2013-12-19 21:40:00,53.4,19.4,29.68,NNE,22,10.7,11.2,26,0.00,,,0.26,VWS V14.01,2013-12-20 05:40:00,
2013-12-19 21:41:00,53.4,19.4,29.68,NNE,22,8.7,10.7,26,0.00,,,0.26,VWS V14.01,2013-12-20 05:41:00,
2013-12-19 21:42:00,53.4,19.4,29.68,NNE,22,8.7,10.7,26,0.00,,,0.26,VWS V14.01,2013-12-20 05:42:00,
2013-12-19 21:43:00,53.4,16.6,29.68,North,0,5.6,10.7,23,0.00,,,0.26,VWS V14.01,2013-12-20 05:43:00,
2013-12-19 21:44:00,53.4,16.6,29.68,North,0,5.6,8.7,23,0.00,,,0.26,VWS V14.01,2013-12-20 05:44:00,
2013-12-19 21:45:00,53.4,16.6,29.68,NNE,22,6.0,8.7,23,0.00,,,0.26,VWS V14.01,2013-12-20 05:45:00,
2013-12-19 21:46:00,53.2,16.4,29.68,NNE,22,3.8,6.0,23,0.00,,,0.26,VWS V14.01,2013-12-20 05:46:00,
2013-12-19 21:47:00,53.2,16.4,29.68,NNE,22,8.5,8.5,23,0.00,,,0.26,VWS V14.01,2013-12-20 05:47:00,
2013-12-19 21:48:00,53.4,11.0,29.68,NNE,22,8.5,8.5,18,0.00,,,0.26,VWS V14.01,2013-12-20 05:48:00,
2013-12-19 21:49:00,53.4,11.0,29.68,North,0,7.6,8.5,18,0.00,,,0.26,VWS V14.01,2013-12-20 05:49:00,
2013-12-19 21:50:00,53.4,11.0,29.68,NNE,22,6.0,8.5,18,0.00,,,0.26,VWS V14.01,2013-12-20 05:50:00,
2013-12-19 21:52:00,53.4,11.0,29.68,NNE,22,6.0,8.5,18,0.00,,,0.26,VWS V14.01,2013-12-20 05:52:00,
2013-12-19 21:53:00,53.2,8.2,29.68,NNE,22,9.2,9.2,16,0.00,,,0.26,VWS V14.01,2013-12-20 05:53:00,
2013-12-19 21:54:00,53.2,8.2,29.68,NNE,22,9.6,9.6,16,0.00,,,0.26,VWS V14.01,2013-12-20 05:54:00,
2013-12-19 21:55:00,53.4,3.8,29.68,NNE,22,9.6,9.6,13,0.00,,,0.26,VWS V14.01,2013-12-20 05:55:00,
2013-12-19 21:56:00,53.4,3.8,29.68,NNE,22,9.6,9.6,13,0.00,,,0.26,VWS V14.01,2013-12-20 05:56:00,
2013-12-19 21:57:00,53.4,3.8,29.68,NNE,22,9.6,9.6,13,0.00,,,0.26,VWS V14.01,2013-12-20 05:57:00,
2013-12-19 21:58:00,53.4,3.8,29.68,NNE,22,9.6,9.6,13,0.00,,,0.26,VWS V14.01,2013-12-20 05:58:00,
2013-12-19 21:59:00,53.4,3.8,29.68,NNE,22,9.6,9.6,13,0.00,,,0.26,VWS V14.01,2013-12-20 05:59:00,
2013-12-19 22:00:00,53.2,3.7,29.68,NNE,22,9.6,9.6,13,0.00,,,0.26,VWS V14.01,2013-12-20 06:00:00,
2013-12-19 22:01:00,53.2,3.7,29.68,NNE,22,9.6,9.6,13,0.00,,,0.26,VWS V14.01,2013-12-20 06:01:00,
2013-12-19 22:02:00,53.2,0.1,29.68,NNE,22,9.6,9.6,11,0.00,,,0.26,VWS V14.01,2013-12-20 06:02:00,
2013-12-19 22:03:00,53.2,0.1,29.68,NE,45,8.7,9.6,11,0.00,,,0.26,VWS V14.01,2013-12-20 06:03:00,
2013-12-19 22:04:00,53.4,0.2,29.68,NE,45,8.7,9.6,11,0.00,,,0.26,VWS V14.01,2013-12-20 06:04:00,
2013-12-19 22:05:00,53.4,0.2,29.68,NE,45,8.7,9.6,11,0.00,,,0.26,VWS V14.01,2013-12-20 06:05:00,
2013-12-19 22:06:00,53.4,0.2,29.68,NE,45,8.7,9.6,11,0.00,,,0.26,VWS V14.01,2013-12-20 06:06:00,
2013-12-19 22:07:00,53.2,0.1,29.68,NE,45,8.7,8.7,11,0.00,,,0.26,VWS V14.01,2013-12-20 06:07:00,
2013-12-19 22:08:00,53.2,0.1,29.68,NE,45,8.7,8.7,11,0.00,,,0.26,VWS V14.01,2013-12-20 06:08:00,
2013-12-19 22:09:00,53.2,-6.6,29.68,NNE,22,3.6,8.7,8,0.00,,,0.26,VWS V14.01,2013-12-20 06:09:00,
2013-12-19 22:10:00,53.2,-6.6,29.68,NNE,22,10.5,10.5,8,0.00,,,0.26,VWS V14.01,2013-12-20 06:10:00,
2013-12-19 22:11:00,53.2,-6.6,29.68,North,0,10.3,10.5,8,0.00,,,0.26,VWS V14.01,2013-12-20 06:11:00,
2013-12-19 22:12:00,53.4,-9.2,29.68,North,0,10.3,10.5,7,0.00,,,0.26,VWS V14.01,2013-12-20 06:12:00,
2013-12-19 22:13:00,53.4,-9.2,29.68,North,0,10.3,10.5,7,0.00,,,0.26,VWS V14.01,2013-12-20 06:13:00,
2013-12-19 22:14:00,53.2,-9.3,29.68,NNE,22,10.7,10.7,7,0.00,,,0.26,VWS V14.01,2013-12-20 06:14:00,
2013-12-19 22:15:00,53.2,-9.3,29.68,NNE,22,15.9,15.9,7,0.00,,,0.26,VWS V14.01,2013-12-20 06:15:00,
2013-12-19 22:16:00,53.2,-9.3,29.68,NNE,22,11.9,15.9,7,0.00,,,0.26,VWS V14.01,2013-12-20 06:16:00,
2013-12-19 22:17:00,53.2,-9.3,29.68,NNE,22,13.0,15.9,7,0.00,,,0.26,VWS V14.01,2013-12-20 06:17:00,
2013-12-19 22:18:00,53.2,-9.3,29.68,NNE,22,13.0,15.9,7,0.00,,,0.26,VWS V14.01,2013-12-20 06:18:00,
2013-12-19 22:19:00,53.2,-9.3,29.68,NNE,22,14.5,15.9,7,0.00,,,0.26,VWS V14.01,2013-12-20 06:19:00,
2013-12-19 22:20:00,53.2,-9.3,29.68,NNE,22,11.0,15.9,7,0.00,,,0.26,VWS V14.01,2013-12-20 06:20:00,
2013-12-19 22:21:00,53.2,-9.3,29.68,NNE,22,17.2,17.2,7,0.00,,,0.26,VWS V14.01,2013-12-20 06:21:00,
2013-12-19 22:22:00,53.2,-9.3,29.68,NNE,22,13.0,17.2,7,0.00,,,0.26,VWS V14.01,2013-12-20 06:22:00,
2013-12-19 22:23:00,53.1,-6.7,29.68,NNE,22,7.8,17.2,8,0.00,,,0.26,VWS V14.01,2013-12-20 06:23:00,
2013-12-19 22:24:00,53.1,-6.7,29.68,NE,45,15.2,17.2,8,0.00,,,0.26,VWS V14.01,2013-12-20 06:24:00,
2013-12-19 22:25:00,53.1,-6.7,29.68,NNE,22,11.9,15.2,8,0.00,,,0.26,VWS V14.01,2013-12-20 06:25:00,
2013-12-19 22:26:00,53.1,-6.7,29.68,NNE,22,10.1,15.2,8,0.00,,,0.26,VWS V14.01,2013-12-20 06:26:00,
2013-12-19 22:27:00,53.1,-6.7,29.68,NNE,22,10.7,15.2,8,0.00,,,0.26,VWS V14.01,2013-12-20 06:27:00,
2013-12-19 22:28:00,53.1,-6.7,29.71,NNE,22,10.7,12.1,8,0.00,,,0.26,VWS V14.01,2013-12-20 06:28:00,
2013-12-19 22:29:00,53.1,-6.7,29.71,NNE,22,6.3,12.1,8,0.00,,,0.26,VWS V14.01,2013-12-20 06:29:00,
2013-12-19 22:30:00,53.1,-0.1,29.71,WNW,292,6.3,12.1,11,0.00,,,0.26,VWS V14.01,2013-12-20 06:30:00,
2013-12-19 22:31:00,53.1,-0.1,29.71,NNW,338,6.0,10.7,11,0.00,,,0.26,VWS V14.01,2013-12-20 06:31:00,
2013-12-19 22:32:00,52.7,-0.3,29.71,NNW,338,5.4,6.3,11,0.00,,,0.26,VWS V14.01,2013-12-20 06:32:00,
2013-12-19 22:33:00,52.7,-0.3,29.71,NNW,338,4.3,6.3,11,0.00,,,0.26,VWS V14.01,2013-12-20 06:33:00,
2013-12-19 22:34:00,52.5,-0.5,29.71,NNE,22,8.1,8.1,11,0.00,,,0.26,VWS V14.01,2013-12-20 06:34:00,
2013-12-19 22:35:00,52.5,-0.5,29.71,NNE,22,5.6,8.1,11,0.00,,,0.26,VWS V14.01,2013-12-20 06:35:00,
2013-12-19 22:36:00,52.5,-7.1,29.71,North,0,12.1,12.1,8,0.00,,,0.26,VWS V14.01,2013-12-20 06:36:00,
2013-12-19 22:37:00,52.7,-7.0,29.71,NNE,22,8.7,12.1,8,0.00,,,0.26,VWS V14.01,2013-12-20 06:37:00,
2013-12-19 22:38:00,52.7,-7.0,29.71,NNE,22,10.5,12.1,8,0.00,,,0.26,VWS V14.01,2013-12-20 06:38:00,
2013-12-19 22:39:00,52.7,-9.7,29.71,NNE,22,7.8,12.1,7,0.00,,,0.26,VWS V14.01,2013-12-20 06:39:00,
2013-12-19 22:40:00,52.7,-9.7,29.71,NNE,22,7.8,10.5,7,0.00,,,0.26,VWS V14.01,2013-12-20 06:40:00,
2013-12-19 22:41:00,52.7,-7.0,29.71,North,0,7.6,10.5,8,0.00,,,0.26,VWS V14.01,2013-12-20 06:41:00,
2013-12-19 22:42:00,52.7,-7.0,29.71,North,0,6.5,8.1,8,0.00,,,0.26,VWS V14.01,2013-12-20 06:42:00,
2013-12-19 22:43:00,52.7,-7.0,29.71,NNW,338,10.1,10.1,8,0.00,,,0.26,VWS V14.01,2013-12-20 06:43:00,
2013-12-19 22:44:00,52.7,-7.0,29.71,NNW,338,10.1,10.1,8,0.00,,,0.26,VWS V14.01,2013-12-20 06:44:00,
2013-12-19 22:45:00,52.7,-7.0,29.71,NNE,22,7.6,10.1,8,0.00,,,0.26,VWS V14.01,2013-12-20 06:45:00,
2013-12-19 22:46:00,52.7,-7.0,29.71,NNE,22,10.3,10.3,8,0.00,,,0.26,VWS V14.01,2013-12-20 06:46:00,
2013-12-19 22:47:00,52.7,-7.0,29.71,NNE,22,8.1,10.3,8,0.00,,,0.26,VWS V14.01,2013-12-20 06:47:00,
2013-12-19 22:48:00,52.7,-7.0,29.71,NNE,22,7.6,10.3,8,0.00,,,0.26,VWS V14.01,2013-12-20 06:48:00,
2013-12-19 22:49:00,52.7,-7.0,29.71,NNE,22,7.8,10.3,8,0.00,,,0.26,VWS V14.01,2013-12-20 06:49:00,
2013-12-19 22:50:00,52.5,-7.1,29.71,North,0,5.8,8.1,8,0.00,,,0.26,VWS V14.01,2013-12-20 06:50:00,
2013-12-19 22:51:00,52.5,-7.1,29.71,NNE,22,4.0,8.1,8,0.00,,,0.26,VWS V14.01,2013-12-20 06:51:00,
2013-12-19 22:52:00,52.3,-0.6,29.71,NNE,22,8.7,8.7,11,0.00,,,0.26,VWS V14.01,2013-12-20 06:52:00,
2013-12-19 22:53:00,52.3,-0.6,29.71,NNW,338,6.0,8.7,11,0.00,,,0.26,VWS V14.01,2013-12-20 06:53:00,
2013-12-19 22:54:00,52.3,-0.6,29.71,NNE,22,10.5,10.5,11,0.00,,,0.26,VWS V14.01,2013-12-20 06:54:00,
2013-12-19 22:55:00,52.2,-0.8,29.71,NNE,22,7.8,10.5,11,0.00,,,0.26,VWS V14.01,2013-12-20 06:55:00,
2013-12-19 22:56:00,52.2,-0.8,29.71,NNE,22,10.3,10.5,11,0.00,,,0.26,VWS V14.01,2013-12-20 06:56:00,
2013-12-19 22:57:00,52.2,-0.8,29.71,NNW,338,5.6,10.5,11,0.00,,,0.26,VWS V14.01,2013-12-20 06:57:00,
2013-12-19 22:58:00,52.2,-0.8,29.68,NNW,338,5.6,10.3,11,0.00,,,0.26,VWS V14.01,2013-12-20 06:58:00,
2013-12-19 22:59:00,52.2,-0.8,29.68,NNE,22,5.6,10.3,11,0.00,,,0.26,VWS V14.01,2013-12-20 06:59:00,
2013-12-19 23:00:00,52.2,-0.8,29.68,NNW,338,6.5,6.5,11,0.00,,,0.26,VWS V14.01,2013-12-20 07:00:00,
2013-12-19 23:01:00,52.2,-0.8,29.68,NNW,338,7.4,7.4,11,0.00,,,0.26,VWS V14.01,2013-12-20 07:01:00,
2013-12-19 23:02:00,52.2,-0.8,29.68,NNW,338,7.4,7.4,11,0.00,,,0.26,VWS V14.01,2013-12-20 07:02:00,
2013-12-19 23:03:00,52.2,-0.8,29.68,NNE,22,6.3,7.4,11,0.00,,,0.26,VWS V14.01,2013-12-20 07:03:00,
2013-12-19 23:04:00,52.0,-0.9,29.68,NNW,338,7.8,7.8,11,0.00,,,0.26,VWS V14.01,2013-12-20 07:04:00,
2013-12-19 23:05:00,52.0,-0.9,29.68,NNW,338,5.6,7.8,11,0.00,,,0.26,VWS V14.01,2013-12-20 07:05:00,
2013-12-19 23:06:00,52.0,-0.9,29.68,NNW,338,10.7,10.7,11,0.00,,,0.26,VWS V14.01,2013-12-20 07:06:00,
2013-12-19 23:07:00,52.0,2.7,29.68,North,0,7.6,10.7,13,0.00,,,0.26,VWS V14.01,2013-12-20 07:07:00,
2013-12-19 23:08:00,52.0,2.7,29.68,NNW,338,6.5,10.7,13,0.00,,,0.26,VWS V14.01,2013-12-20 07:08:00,
2013-12-19 23:09:00,52.0,7.2,29.68,NNW,338,6.5,10.7,16,0.00,,,0.26,VWS V14.01,2013-12-20 07:09:00,
2013-12-19 23:10:00,52.0,7.2,29.68,NNW,338,6.0,7.6,16,0.00,,,0.26,VWS V14.01,2013-12-20 07:10:00,
2013-12-19 23:11:00,51.8,7.1,29.68,NNW,338,5.6,6.5,16,0.00,,,0.26,VWS V14.01,2013-12-20 07:11:00,
2013-12-19 23:12:00,51.8,7.1,29.68,NNW,338,3.8,6.5,16,0.00,,,0.26,VWS V14.01,2013-12-20 07:12:00,
2013-12-19 23:13:00,51.6,10.7,29.71,NNW,338,8.5,8.5,19,0.00,,,0.26,VWS V14.01,2013-12-20 07:13:00,
2013-12-19 23:14:00,51.6,10.7,29.71,NNW,338,7.6,8.5,19,0.00,,,0.26,VWS V14.01,2013-12-20 07:14:00,
2013-12-19 23:15:00,51.6,16.0,29.71,North,0,9.8,9.8,24,0.00,,,0.26,VWS V14.01,2013-12-20 07:15:00,
2013-12-19 23:16:00,51.6,16.0,29.71,NNW,338,7.8,9.8,24,0.00,,,0.26,VWS V14.01,2013-12-20 07:16:00,
2013-12-19 23:17:00,51.6,16.0,29.71,NNW,338,8.1,9.8,24,0.00,,,0.26,VWS V14.01,2013-12-20 07:17:00,
2013-12-19 23:18:00,51.6,17.9,29.71,NNW,338,7.6,9.8,26,0.00,,,0.26,VWS V14.01,2013-12-20 07:18:00,
2013-12-19 23:19:00,51.6,17.9,29.71,NNW,338,6.3,9.8,26,0.00,,,0.26,VWS V14.01,2013-12-20 07:19:00,
2013-12-19 23:21:00,51.6,17.9,29.71,NNW,338,6.3,8.1,26,0.00,,,0.26,VWS V14.01,2013-12-20 07:21:00,
2013-12-19 23:22:00,51.6,18.8,29.71,NNW,338,8.5,8.5,27,0.00,,,0.26,VWS V14.01,2013-12-20 07:22:00,
2013-12-19 23:23:00,51.4,18.6,29.71,NNW,338,7.6,8.5,27,0.00,,,0.26,VWS V14.01,2013-12-20 07:23:00,
2013-12-19 23:24:00,51.4,18.6,29.71,NNW,338,7.6,8.5,27,0.00,,,0.26,VWS V14.01,2013-12-20 07:24:00,
2013-12-19 23:25:00,51.3,19.3,29.71,NNW,338,5.8,8.5,28,0.00,,,0.26,VWS V14.01,2013-12-20 07:25:00,
2013-12-19 23:26:00,51.3,19.3,29.71,NNW,338,6.3,8.5,28,0.00,,,0.26,VWS V14.01,2013-12-20 07:26:00,
2013-12-19 23:27:00,51.1,19.1,29.71,NW,315,6.0,7.6,28,0.00,,,0.26,VWS V14.01,2013-12-20 07:27:00,
2013-12-19 23:28:00,51.1,19.1,29.71,NNW,338,4.9,7.6,28,0.00,,,0.26,VWS V14.01,2013-12-20 07:28:00,
2013-12-19 23:29:00,50.9,19.8,29.71,NNW,338,4.3,6.3,29,0.00,,,0.26,VWS V14.01,2013-12-20 07:29:00,
2013-12-19 23:30:00,50.7,18.8,29.71,WNW,292,4.7,6.0,28,0.00,,,0.26,VWS V14.01,2013-12-20 07:30:00,
2013-12-19 23:31:00,50.7,18.8,29.71,WNW,292,3.8,4.9,28,0.00,,,0.26,VWS V14.01,2013-12-20 07:31:00,
2013-12-19 23:32:00,50.7,19.6,29.71,NNW,338,4.0,4.9,29,0.00,,,0.26,VWS V14.01,2013-12-20 07:32:00,
2013-12-19 23:33:00,50.7,19.6,29.71,WNW,292,5.4,5.4,29,0.00,,,0.26,VWS V14.01,2013-12-20 07:33:00,
2013-12-19 23:34:00,50.5,19.5,29.71,WNW,292,3.8,5.4,29,0.00,,,0.26,VWS V14.01,2013-12-20 07:34:00,
2013-12-19 23:35:00,50.5,19.5,29.71,WNW,292,6.0,6.0,29,0.00,,,0.26,VWS V14.01,2013-12-20 07:35:00,
2013-12-19 23:36:00,50.5,19.5,29.71,WNW,292,4.7,6.0,29,0.00,,,0.26,VWS V14.01,2013-12-20 07:36:00,
2013-12-19 23:37:00,50.4,19.3,29.71,NW,315,3.8,6.0,29,0.00,,,0.26,VWS V14.01,2013-12-20 07:37:00,
2013-12-19 23:38:00,50.4,19.3,29.71,NW,315,3.8,6.0,29,0.00,,,0.26,VWS V14.01,2013-12-20 07:38:00,
2013-12-19 23:39:00,50.4,19.3,29.71,WNW,292,6.3,6.3,29,0.00,,,0.26,VWS V14.01,2013-12-20 07:39:00,
2013-12-19 23:40:00,50.4,19.3,29.71,WNW,292,4.0,6.3,29,0.00,,,0.26,VWS V14.01,2013-12-20 07:40:00,
2013-12-19 23:41:00,50.4,19.3,29.71,WNW,292,4.0,6.3,29,0.00,,,0.26,VWS V14.01,2013-12-20 07:41:00,
2013-12-19 23:42:00,50.4,19.3,29.71,WNW,292,3.6,6.3,29,0.00,,,0.26,VWS V14.01,2013-12-20 07:42:00,
2013-12-19 23:43:00,50.4,20.1,29.71,NW,315,4.0,6.3,30,0.00,,,0.26,VWS V14.01,2013-12-20 07:43:00,
2013-12-19 23:44:00,50.4,20.1,29.71,WNW,292,3.6,6.3,30,0.00,,,0.26,VWS V14.01,2013-12-20 07:44:00,
2013-12-19 23:45:00,50.2,20.0,29.71,NW,315,4.0,4.0,30,0.00,,,0.26,VWS V14.01,2013-12-20 07:45:00,
2013-12-19 23:46:00,50.2,20.0,29.71,NW,315,5.8,5.8,30,0.00,,,0.26,VWS V14.01,2013-12-20 07:46:00,
2013-12-19 23:47:00,50.2,20.0,29.71,NW,315,4.0,5.8,30,0.00,,,0.26,VWS V14.01,2013-12-20 07:47:00,
2013-12-19 23:48:00,50.4,20.1,29.71,WNW,292,4.9,5.8,30,0.00,,,0.26,VWS V14.01,2013-12-20 07:48:00,
2013-12-19 23:49:00,50.4,20.1,29.71,NW,315,5.8,5.8,30,0.00,,,0.26,VWS V14.01,2013-12-20 07:49:00,
2013-12-19 23:50:00,50.5,20.3,29.71,WNW,292,4.3,5.8,30,0.00,,,0.26,VWS V14.01,2013-12-20 07:50:00,
2013-12-19 23:51:00,50.5,20.3,29.71,WNW,292,6.3,6.3,30,0.00,,,0.26,VWS V14.01,2013-12-20 07:51:00,
2013-12-19 23:52:00,50.4,20.1,29.71,WNW,292,5.4,6.3,30,0.00,,,0.26,VWS V14.01,2013-12-20 07:52:00,
2013-12-19 23:53:00,50.5,20.3,29.71,NW,315,5.6,6.3,30,0.00,,,0.26,VWS V14.01,2013-12-20 07:53:00,
2013-12-19 23:54:00,50.5,20.3,29.71,NW,315,6.0,6.3,30,0.00,,,0.26,VWS V14.01,2013-12-20 07:54:00,
2013-12-19 23:55:00,50.5,20.3,29.71,NW,315,6.0,6.0,30,0.00,,,0.26,VWS V14.01,2013-12-20 07:55:00,
2013-12-19 23:56:00,50.5,20.3,29.71,NW,315,6.3,6.3,30,0.00,,,0.26,VWS V14.01,2013-12-20 07:56:00,
2013-12-19 23:57:00,50.5,19.5,29.71,NW,315,6.3,6.3,29,0.00,,,0.26,VWS V14.01,2013-12-20 07:57:00,
2013-12-19 23:58:00,50.5,19.5,29.71,NNW,338,6.9,6.9,29,0.00,,,0.26,VWS V14.01,2013-12-20 07:58:00,
2013-12-19 23:59:00,50.5,20.3,29.71,NNW,338,6.7,6.9,30,0.00,,,0.26,VWS V14.01,2013-12-20 07:59:00,